[[{"header":{"parameterUnit":"m.s-1","parameterCategory":1,"la1":31.0,"la2":29.5877,"lo1":-88.7671,"lo2":-86.6584,"dy":0.0162,"dx":0.0185,"nx":115,"ny":88,"refTime":"2024-06-21T18:00:00:Z","depth":0,"parameterNumber":2,"parameterNumberName":"U-component_of_WINDS"},"data":[0.0,0.0,0.0,0.0,0.0,0.0,0.0,0.0,0.0,0.0,0.0,0.0,0.0,0.0,0.0,0.0,0.0,0.0,0.0,0.0,0.0,0.0,0.0,0.0,0.0,0.0,0.0,0.0,0.0,0.0,0.0,0.0,0.0,0.0,0.0,0.0,0.0,0.0,0.0,0.0,0.0,0.0,0.0,0.0,0.0,0.0,0.0,0.0,0.0,0.0,0.0,0.0,0.0,0.0,0.0,0.0,0.0,0.0,0.0,0.0,0.0,0.0,0.0,0.0,0.0,0.0,0.0,0.0,0.0,0.0,0.0,0.0,0.0,0.0,0.0,0.0,0.0,0.0,0.0,0.0,0.0,0.0,0.0,0.0,0.0,0.0,0.0,0.0,0.0,0.0,0.0,0.0,0.0,0.0,0.0,0.0,0.0,0.0,0.0,0.0,0.0,0.0,0.0,0.0,0.0,0.0,0.0,0.0,0.0,0.0,0.0,0.0,0.0,0.0,0.0,0.0,0.0,0.0,0.0,0.0,0.0,0.0,0.0,0.0,0.0,0.0,0.0,0.0,0.0,0.0,0.0,0.0,0.0,0.0,0.0,0.0,0.0,0.0,0.0,0.0,0.0,0.0,0.0,0.0,0.0,0.0,0.0,0.0,0.0,0.0,0.0,0.0,0.0,0.0,0.0,0.0,0.0,0.0,0.0,0.0,0.0,0.0,0.0,0.0,0.0,0.0,0.0,0.0,0.0,0.0,0.0,0.0,0.0,0.0,0.0,0.0,0.0,0.0,0.0,0.0,0.0,0.0,0.0,0.0,0.0,0.0,0.0,0.0,0.0,0.0,0.0,0.0,0.0,0.0,0.0,0.0,0.0,0.0,0.0,0.0,0.0,0.0,0.0,0.0,0.0,0.0,0.0,0.0,0.0,0.0,0.0,0.0,0.0,0.0,0.0,0.0,0.0,0.0,0.0,0.0,0.0,0.0,0.0,0.0,0.0,0.0,0.0,0.0,0.0,0.0,0.0,0.0,0.0,0.0,0.0,0.0,0.0,0.0,0.0,0.0,0.0,0.0,0.0,0.0,0.0,0.0,0.0,0.0,0.0,0.0,0.0,0.0,0.0,0.0,0.0,0.0,0.0,0.0,0.0,0.0,0.0,0.0,0.0,0.0,0.0,0.0,0.0,0.0,0.0,0.0,0.0,0.0,0.0,0.0,0.0,0.0,0.0,0.0,0.0,0.0,0.0,0.0,0.0,0.0,0.0,0.0,0.0,0.0,0.0,0.0,0.0,0.0,0.0,0.0,0.0,0.0,0.0,0.0,0.0,0.0,0.0,0.0,0.0,0.0,0.0,0.0,0.0,0.0,0.0,0.0,0.0,0.0,0.0,0.0,0.0,0.0,0.0,0.0,0.0,0.0,0.0,0.0,0.0,0.0,0.0,0.0,0.0,0.0,0.0,0.0,0.0,0.0,0.0,0.0,0.0,0.0,0.0,0.0,0.0,0.0,0.0,0.0,0.0,0.0,0.0,0.0,0.0,0.0,0.0,0.0,0.0,0.0,0.0,0.0,0.0,0.0,0.0,0.0,0.0,0.0,0.0,0.0,0.0,0.0,0.0,0.0,0.0,0.0,0.0,0.0,0.0,0.0,0.0,0.0,0.0,0.0,0.0,0.0,0.0,0.0,0.0,0.0,0.0,0.0,0.0,0.0,0.0,0.0,0.0,0.0,0.0,0.0,0.0,0.0,0.0,0.0,0.0,0.0,0.0,0.0,0.0,0.0,0.0,0.0,0.0,0.0,0.0,0.0,0.0,0.0,0.0,0.0,0.0,0.0,0.0,0.0,0.0,0.0,0.0,0.0,0.0,0.0,0.0,0.0,0.0,0.0,0.0,0.0,0.0,0.0,0.0,0.0,0.0,0.0,0.0,0.0,0.0,0.0,0.0,0.0,0.0,0.0,0.0,0.0,0.0,0.0,0.0,0.0,0.0,0.0,0.0,0.0,0.0,0.0,0.0,0.0,0.0,0.0,0.0,0.0,0.0,0.0,0.0,0.0,0.0,0.0,0.0,0.0,0.0,0.0,0.0,0.0,0.0,0.0,0.0,0.0,0.0,0.0,0.0,0.0,0.0,0.0,0.0,0.0,0.0,0.0,0.0,0.0,0.0,0.0,0.0,0.0,0.0,0.0,0.0,0.0,0.0,0.0,0.0,0.0,0.0,0.0,0.0,0.0,0.0,0.0,0.0,0.0,0.0,0.0,0.0,0.0,0.0,0.0,0.0,0.0,0.0,0.0,0.0,0.0,0.0,0.0,0.0,0.0,0.0,0.0,0.0,0.0,0.0,0.0,0.0,0.0,0.0,0.0,0.0,0.0,0.0,0.0,0.0,0.0,0.0,0.0,0.0,0.0,0.0,0.0,0.0,0.0,0.0,0.0,0.0,0.0,0.0,0.0,0.0,0.0,0.0,0.0,0.0,0.0,0.0,0.0,0.0,0.0,0.0,0.0,0.0,0.0,0.0,0.0,0.0,0.0,0.0,0.0,0.0,0.0,0.0,0.0,0.0,0.0,0.0,0.0,0.0,0.0,0.0,0.0,0.0,0.0,0.0,0.0,0.0,0.0,0.0,0.0,0.0,0.0,0.0,0.0,0.0,0.0,0.0,0.0,0.0,0.0,0.0,0.0,0.0,0.0,0.0,0.0,0.0,0.0,0.0,0.0,0.0,0.0,0.0,0.0,0.0,0.0,0.0,0.0,0.0,0.0,0.0,0.0,0.0,0.0,0.0,0.0,0.0,0.0,0.0,0.0,0.0,0.0,0.0,0.0,0.0,0.0,0.0,0.0,0.0,0.0,0.0,0.0,0.0,0.0,0.0,0.0,0.0,0.0,0.0,0.0,0.0,0.0,0.0,0.0,0.0,0.0,0.0,0.0,0.0,0.0,0.0,0.0,0.0,0.0,0.0,0.0,0.0,0.0,0.0,0.0,0.0,0.0,0.0,0.0,0.0,0.0,0.0,0.0,0.0,0.0,0.0,0.0,0.0,0.0,0.0,0.0,0.0,0.0,0.0,0.0,0.0,0.0,0.0,0.0,0.0,0.0,0.0,0.0,0.0,0.0,0.0,0.0,0.0,0.0,0.0,0.0,0.0,0.0,0.0,0.0,0.0,0.0,0.0,0.0,0.0,0.0,0.0,0.0,0.0,0.0,0.0,0.0,0.0,0.0,0.0,0.0,0.0,0.0,0.0,0.0,0.0,0.0,0.0,0.0,0.0,0.0,0.0,0.0,0.0,0.0,0.0,0.0,0.0,0.0,0.0,0.0,0.0,0.0,0.0,0.0,0.0,0.0,0.0,0.0,0.0,0.0,0.0,0.0,0.0,0.0,0.0,0.0,0.0,0.0,0.0,0.0,0.0,0.0,0.0,0.0,0.0,0.0,0.0,0.0,0.0,0.0,0.0,0.0,0.0,0.0,0.0,0.0,0.0,0.0,0.0,0.0,0.0,0.0,0.0,0.0,0.0,0.0,0.0,0.0,0.0,0.0,0.0,0.0,0.0,0.0,0.0,0.0,0.0,0.0,0.0,0.0,0.0,0.0,0.0,0.0,0.0,0.0,0.0,0.0,0.0,0.0,0.0,0.0,0.0,0.0,0.0,0.0,0.0,0.0,0.0,0.0,0.0,0.0,0.0,0.0,0.0,0.0,0.0,0.0,0.0,0.0,0.0,0.0,0.0,0.0,0.0,0.0,0.0,0.0,0.0,0.0,0.0,0.0,0.0,0.0,0.0,0.0,0.0,0.0,0.0,0.0,0.0,0.0,0.0,0.0,0.0,0.0,0.0,0.0,0.0,0.0,0.0,0.0,0.0,0.0,0.0,0.0,0.0,0.0,0.0,0.0,0.0,0.0,0.0,0.0,0.0,0.0,0.0,0.0,0.0,0.0,0.0,0.0,0.0,0.0,0.0,0.0,0.0,0.0,0.0,0.0,0.0,0.0,0.0,0.0,0.0,0.0,0.0,0.0,0.0,0.0,0.0,0.0,0.0,0.0,0.0,0.0,0.0,0.0,0.0,0.0,0.0,0.0,0.0,0.0,0.0,0.0,0.0,0.0,0.0,0.0,0.0,0.0,0.0,0.0,0.0,0.0,0.0,0.0,0.0,0.0,0.0,0.0,0.0,0.0,0.0,0.0,0.0,0.0,0.0,0.0,0.0,0.0,0.0,0.0,0.0,0.0,0.0,0.0,0.0,0.0,0.0,0.0,0.0,0.0,0.0,0.0,-1.2954,0.0,0.0,0.0,0.0,0.0,0.0,0.0,0.0,0.0,0.0,0.0,0.0,0.0,0.0,0.0,0.0,0.0,0.0,0.0,0.0,0.0,0.0,0.0,0.0,0.0,0.0,0.0,0.0,0.0,0.0,0.0,0.0,0.0,0.0,0.0,0.0,0.0,0.0,0.0,0.0,0.0,0.0,0.0,0.0,0.0,0.0,0.0,0.0,0.0,0.0,0.0,0.0,0.0,0.0,0.0,0.0,0.0,0.0,0.0,0.0,0.0,0.0,0.0,0.0,0.0,0.0,0.0,0.0,0.0,0.0,0.0,0.0,0.0,0.0,0.0,0.0,0.0,0.0,0.0,0.0,0.0,0.0,0.0,0.0,0.0,0.0,0.0,0.0,0.0,0.0,0.0,0.0,0.0,0.0,0.0,0.0,0.0,0.0,0.0,0.0,0.0,0.0,0.0,0.0,0.0,0.0,0.0,0.0,0.0,0.0,-1.3791,-1.3791,-1.3791,-1.3687,-1.3425,0.0,0.0,0.0,0.0,0.0,0.0,0.0,0.0,0.0,0.0,0.0,0.0,0.0,0.0,0.0,0.0,0.0,0.0,0.0,0.0,0.0,0.0,0.0,0.0,0.0,0.0,0.0,0.0,0.0,0.0,0.0,0.0,0.0,0.0,0.0,0.0,0.0,0.0,0.0,0.0,0.0,0.0,0.0,0.0,0.0,0.0,0.0,0.0,0.0,0.0,0.0,0.0,0.0,0.0,0.0,0.0,0.0,0.0,0.0,0.0,0.0,0.0,0.0,0.0,0.0,0.0,0.0,0.0,0.0,0.0,0.0,0.0,0.0,0.0,0.0,0.0,0.0,0.0,0.0,0.0,0.0,0.0,0.0,0.0,0.0,0.0,0.0,0.0,0.0,0.0,0.0,0.0,0.0,0.0,0.0,0.0,0.0,0.0,0.0,0.0,0.0,0.0,0.0,0.0,0.0,0.0,0.0,0.0,0.0,0.0,0.0,0.0,-1.4323,-1.4393,-1.4393,0.0,0.0,0.0,0.0,0.0,0.0,0.0,0.0,0.0,0.0,0.0,0.0,0.0,0.0,0.0,0.0,0.0,0.0,0.0,0.0,0.0,0.0,0.0,0.0,0.0,0.0,0.0,0.0,0.0,0.0,0.0,0.0,0.0,0.0,0.0,0.0,0.0,0.0,0.0,0.0,0.0,0.0,0.0,0.0,0.0,0.0,0.0,0.0,0.0,0.0,0.0,0.0,0.0,0.0,0.0,0.0,0.0,0.0,0.0,0.0,0.0,0.0,0.0,0.0,0.0,0.0,0.0,0.0,0.0,0.0,0.0,0.0,0.0,0.0,0.0,0.0,0.0,0.0,0.0,0.0,0.0,0.0,0.0,0.0,0.0,0.0,0.0,0.0,0.0,0.0,0.0,0.0,0.0,0.0,0.0,0.0,0.0,0.0,0.0,0.0,0.0,0.0,0.0,0.0,0.0,0.0,0.0,0.0,0.0,0.0,-1.4259,-1.5231,-1.5852,0.0,-1.6153,0.0,0.0,0.0,0.0,0.0,0.0,0.0,0.0,0.0,0.0,0.0,0.0,0.0,0.0,0.0,0.0,0.0,0.0,0.0,0.0,0.0,0.0,0.0,0.0,0.0,0.0,0.0,0.0,0.0,0.0,0.0,0.0,0.0,0.0,0.0,0.0,0.0,0.0,0.0,0.0,0.0,0.0,0.0,0.0,0.0,0.0,0.0,0.0,0.0,0.0,0.0,0.0,0.0,0.0,0.0,0.0,0.0,0.0,0.0,0.0,0.0,0.0,0.0,0.0,0.0,0.0,0.0,0.0,0.0,0.0,0.0,0.0,0.0,0.0,0.0,0.0,0.0,0.0,0.0,0.0,0.0,0.0,0.0,0.0,0.0,0.0,0.0,0.0,0.0,0.0,0.0,0.0,0.0,0.0,0.0,0.0,0.0,0.0,0.0,0.0,0.0,0.0,0.0,0.0,0.0,0.0,0.0,0.0,0.0,0.0,0.0,-1.5049,-1.555,-1.5774,0.0,0.0,0.0,0.0,0.0,0.0,0.0,0.0,0.0,0.0,0.0,0.0,0.0,0.0,0.0,0.0,0.0,0.0,0.0,0.0,0.0,0.0,0.0,0.0,0.0,0.0,0.0,0.0,0.0,0.0,0.0,0.0,0.0,0.0,0.0,0.0,0.0,0.0,0.0,0.0,0.0,0.0,0.0,0.0,0.0,0.0,0.0,0.0,0.0,0.0,0.0,0.0,0.0,0.0,0.0,0.0,0.0,0.0,0.0,0.0,0.0,0.0,0.0,0.0,0.0,0.0,0.0,0.0,0.0,0.0,0.0,0.0,0.0,0.0,0.0,0.0,0.0,0.0,0.0,0.0,0.0,0.0,0.0,0.0,0.0,0.0,0.0,0.0,0.0,0.0,0.0,0.0,0.0,0.0,0.0,0.0,0.0,0.0,0.0,0.0,0.0,0.0,0.0,0.0,0.0,0.0,0.0,0.0,0.0,0.0,-1.5277,0.0,-1.5545,-1.562,-1.548,-1.5,0.0,0.0,0.0,0.0,0.0,0.0,0.0,0.0,0.0,0.0,0.0,0.0,0.0,0.0,0.0,0.0,0.0,0.0,0.0,0.0,0.0,0.0,0.0,0.0,0.0,0.0,0.0,0.0,0.0,0.0,0.0,0.0,0.0,0.0,0.0,0.0,0.0,0.0,0.0,0.0,0.0,0.0,0.0,0.0,0.0,0.0,0.0,0.0,0.0,0.0,0.0,0.0,0.0,0.0,0.0,0.0,0.0,0.0,0.0,0.0,0.0,0.0,0.0,0.0,0.0,0.0,0.0,0.0,0.0,0.0,0.0,0.0,0.0,0.0,0.0,0.0,0.0,0.0,0.0,0.0,0.0,0.0,0.0,0.0,0.0,0.0,0.0,0.0,0.0,0.0,0.0,0.0,0.0,0.0,0.0,0.0,0.0,0.0,0.0,0.0,0.0,0.0,0.0,0.0,0.0,0.0,0.0,0.0,0.0,-1.5196,-1.5664,-1.7195,-1.6692,-1.5754,0.0,0.0,0.0,0.0,0.0,0.0,0.0,0.0,0.0,0.0,0.0,0.0,0.0,0.0,0.0,0.0,0.0,0.0,0.0,0.0,0.0,0.0,0.0,0.0,0.0,0.0,0.0,0.0,0.0,0.0,0.0,0.0,0.0,0.0,0.0,0.0,0.0,0.0,0.0,0.0,0.0,0.0,0.0,0.0,0.0,0.0,0.0,0.0,0.0,0.0,0.0,0.0,0.0,0.0,0.0,0.0,0.0,0.0,0.0,0.0,0.0,0.0,0.0,0.0,0.0,0.0,0.0,0.0,0.0,0.0,0.0,0.0,0.0,0.0,0.0,0.0,0.0,0.0,0.0,0.0,0.0,0.0,0.0,0.0,0.0,0.0,0.0,0.0,0.0,0.0,0.0,0.0,0.0,0.0,0.0,0.0,0.0,0.0,0.0,0.0,0.0,0.0,0.0,0.0,0.0,0.0,0.0,0.0,0.0,-1.335,-1.3758,-1.5428,-1.8242,-1.6172,-1.4901,0.0,0.0,0.0,0.0,0.0,0.0,0.0,0.0,0.0,0.0,0.0,0.0,0.0,0.0,0.0,0.0,0.0,0.0,0.0,0.0,0.0,0.0,0.0,0.0,0.0,0.0,0.0,0.0,0.0,0.0,0.0,0.0,0.0,0.0,0.0,0.0,0.0,0.0,0.0,0.0,0.0,0.0,0.0,0.0,0.0,0.0,0.0,0.0,0.0,0.0,0.0,0.0,0.0,0.0,0.0,0.0,0.0,0.0,0.0,0.0,0.0,0.0,0.0,0.0,0.0,0.0,0.0,0.0,0.0,0.0,0.0,0.0,0.0,0.0,0.0,0.0,0.0,0.0,0.0,0.0,0.0,0.0,0.0,0.0,0.0,0.0,0.0,0.0,0.0,0.0,0.0,0.0,0.0,0.0,0.0,0.0,0.0,0.0,0.0,0.0,0.0,0.0,0.0,0.0,0.0,0.0,0.0,0.0,0.0,-1.3032,0.0,-1.5745,0.0,-1.5521,-1.4025,0.0,0.0,0.0,0.0,0.0,0.0,0.0,0.0,0.0,0.0,0.0,0.0,0.0,0.0,0.0,0.0,0.0,0.0,0.0,0.0,0.0,0.0,0.0,0.0,0.0,0.0,0.0,0.0,0.0,0.0,0.0,0.0,0.0,0.0,0.0,0.0,0.0,0.0,0.0,0.0,0.0,0.0,0.0,0.0,0.0,0.0,0.0,0.0,0.0,0.0,0.0,0.0,0.0,0.0,0.0,0.0,0.0,0.0,0.0,0.0,0.0,0.0,0.0,0.0,0.0,0.0,0.0,0.0,0.0,0.0,0.0,0.0,0.0,0.0,0.0,0.0,0.0,0.0,0.0,0.0,0.0,0.0,0.0,0.0,0.0,0.0,0.0,0.0,0.0,0.0,0.0,0.0,0.0,0.0,0.0,0.0,0.0,0.0,0.0,0.0,0.0,0.0,0.0,0.0,0.0,0.0,0.0,0.0,-1.2993,-1.5258,-1.6441,-1.6532,-1.5488,-1.4835,-1.3223,0.0,0.0,0.0,0.0,0.0,0.0,0.0,0.0,0.0,0.0,0.0,0.0,0.0,0.0,0.0,0.0,0.0,0.0,0.0,0.0,0.0,0.0,0.0,0.0,0.0,0.0,0.0,0.0,0.0,0.0,0.0,0.0,0.0,0.0,0.0,0.0,0.0,0.0,0.0,0.0,0.0,0.0,0.0,0.0,0.0,0.0,0.0,0.0,0.0,0.0,0.0,0.0,0.0,0.0,0.0,0.0,0.0,0.0,0.0,0.0,0.0,0.0,0.0,0.0,0.0,0.0,0.0,0.0,0.0,0.0,0.0,0.0,0.0,0.0,0.0,0.0,0.0,0.0,0.0,0.0,0.0,0.0,0.0,0.0,0.0,0.0,0.0,0.0,0.0,0.0,0.0,0.0,0.0,0.0,0.0,0.0,0.0,0.0,0.0,0.0,0.0,0.0,0.0,0.0,0.0,0.0,0.0,0.0,0.0,-1.4953,-1.5216,-1.6012,-1.7255,-1.4877,-1.3554,0.0,0.0,0.0,0.0,0.0,0.0,0.0,0.0,0.0,0.0,0.0,0.0,0.0,0.0,0.0,0.0,0.0,0.0,0.0,0.0,0.0,0.0,0.0,0.0,0.0,0.0,0.0,0.0,0.0,0.0,0.0,0.0,0.0,0.0,0.0,0.0,0.0,0.0,0.0,0.0,0.0,0.0,0.0,0.0,0.0,0.0,0.0,0.0,0.0,0.0,0.0,0.0,0.0,0.0,0.0,0.0,0.0,0.0,0.0,0.0,0.0,0.0,0.0,0.0,0.0,0.0,0.0,0.0,0.0,0.0,0.0,0.0,0.0,0.0,0.0,0.0,0.0,0.0,0.0,0.0,0.0,0.0,0.0,0.0,0.0,0.0,0.0,0.0,0.0,0.0,0.0,0.0,0.0,0.0,0.0,0.0,0.0,0.0,0.0,0.0,0.0,0.0,0.0,0.0,0.0,0.0,0.0,0.0,0.0,-1.6888,-1.7088,-1.7663,-1.8554,-1.628,-1.4795,-1.42,0.0,0.0,0.0,0.0,0.0,0.0,0.0,0.0,0.0,0.0,0.0,0.0,0.0,0.0,0.0,0.0,0.0,0.0,0.0,0.0,0.0,0.0,0.0,0.0,0.0,0.0,0.0,0.0,0.0,0.0,0.0,0.0,0.0,0.0,0.0,0.0,0.0,0.0,0.0,0.0,0.0,0.0,0.0,0.0,0.0,0.0,0.0,0.0,0.0,0.0,0.0,0.0,0.0,0.0,0.0,0.0,0.0,0.0,0.0,0.0,0.0,0.0,0.0,0.0,0.0,0.0,0.0,0.0,0.0,0.0,0.0,0.0,0.0,0.0,0.0,0.0,0.0,0.0,0.0,0.0,0.0,0.0,0.0,0.0,0.0,0.0,0.0,0.0,0.0,0.0,0.0,0.0,0.0,0.0,0.0,0.0,0.0,0.0,0.0,0.0,0.0,0.0,0.0,0.0,0.0,0.0,0.0,0.0,-2.0478,-2.1631,-2.13,-1.9554,-1.8787,-1.6788,0.0,0.0,0.0,0.0,0.0,0.0,0.0,0.0,0.0,0.0,0.0,0.0,0.0,0.0,0.0,0.0,0.0,0.0,0.0,0.0,0.0,0.0,0.0,0.0,0.0,0.0,0.0,0.0,0.0,0.0,0.0,0.0,0.0,0.0,0.0,0.0,0.0,0.0,0.0,0.0,0.0,0.0,0.0,0.0,0.0,0.0,0.0,0.0,0.0,0.0,0.0,0.0,0.0,0.0,0.0,0.0,0.0,0.0,0.0,0.0,0.0,0.0,0.0,0.0,0.0,0.0,0.0,0.0,0.0,0.0,0.0,0.0,0.0,0.0,0.0,0.0,0.0,0.0,0.0,0.0,0.0,0.0,0.0,0.0,0.0,0.0,0.0,0.0,0.0,0.0,0.0,0.0,0.0,0.0,0.0,0.0,0.0,0.0,0.0,0.0,0.0,0.0,0.0,0.0,0.0,0.0,0.0,0.0,0.0,-2.1963,-2.513,-2.5813,-2.3639,-2.0555,-1.831,0.0,0.0,0.0,0.0,0.0,0.0,0.0,0.0,0.0,0.0,0.0,0.0,0.0,0.0,0.0,0.0,0.0,0.0,0.0,0.0,0.0,0.0,0.0,0.0,0.0,0.0,0.0,0.0,0.0,0.0,0.0,0.0,0.0,0.0,0.0,0.0,0.0,0.0,0.0,0.0,0.0,0.0,0.0,0.0,0.0,0.0,0.0,0.0,0.0,0.0,0.0,0.0,0.0,0.0,0.0,0.0,0.0,0.0,0.0,0.0,0.0,0.0,0.0,0.0,0.0,0.0,0.0,0.0,0.0,0.0,0.0,0.0,0.0,0.0,0.0,0.0,0.0,0.0,0.0,0.0,0.0,0.0,0.0,0.0,0.0,0.0,0.0,0.0,0.0,0.0,0.0,0.0,0.0,0.0,0.0,0.0,0.0,0.0,0.0,0.0,0.0,0.0,0.0,0.0,0.0,0.0,0.0,0.0,-2.1528,-2.3639,-2.7793,-2.9332,-2.7841,-2.3826,-2.0617,0.0,0.0,0.0,0.0,0.0,0.0,0.0,0.0,0.0,0.0,0.0,0.0,0.0,0.0,0.0,0.0,0.0,0.0,0.0,0.0,0.0,0.0,0.0,0.0,0.0,0.0,0.0,0.0,0.0,0.0,0.0,0.0,0.0,0.0,0.0,0.0,0.0,0.0,0.0,0.0,0.0,0.0,0.0,0.0,0.0,0.0,0.0,0.0,0.0,0.0,0.0,0.0,0.0,0.0,0.0,0.0,0.0,0.0,0.0,0.0,0.0,0.0,0.0,0.0,0.0,0.0,0.0,0.0,0.0,0.0,0.0,0.0,0.0,0.0,0.0,0.0,0.0,0.0,0.0,0.0,0.0,0.0,0.0,0.0,0.0,0.0,0.0,0.0,0.0,0.0,0.0,0.0,0.0,0.0,0.0,0.0,0.0,0.0,0.0,0.0,0.0,0.0,0.0,0.0,0.0,0.0,0.0,0.0,-2.3557,-2.5396,-2.9756,-3.1843,-3.136,-2.7365,-2.3102,0.0,0.0,0.0,0.0,0.0,0.0,0.0,0.0,0.0,0.0,0.0,0.0,0.0,0.0,0.0,0.0,0.0,0.0,0.0,0.0,0.0,0.0,0.0,0.0,0.0,0.0,0.0,0.0,0.0,0.0,0.0,0.0,0.0,0.0,0.0,0.0,0.0,0.0,0.0,0.0,0.0,0.0,0.0,0.0,0.0,0.0,0.0,0.0,0.0,0.0,0.0,0.0,0.0,0.0,0.0,0.0,0.0,0.0,0.0,0.0,0.0,0.0,0.0,0.0,0.0,0.0,0.0,0.0,0.0,0.0,0.0,0.0,0.0,0.0,0.0,0.0,0.0,0.0,0.0,0.0,0.0,0.0,0.0,0.0,0.0,0.0,0.0,0.0,0.0,0.0,0.0,0.0,0.0,0.0,0.0,0.0,0.0,0.0,0.0,0.0,0.0,0.0,0.0,0.0,0.0,0.0,0.0,0.0,-2.4633,-2.6827,-3.0594,-3.2318,-3.1899,-2.7173,-2.3515,0.0,0.0,0.0,0.0,0.0,0.0,0.0,0.0,0.0,0.0,0.0,0.0,0.0,0.0,0.0,0.0,0.0,0.0,0.0,0.0,0.0,0.0,0.0,0.0,0.0,0.0,0.0,0.0,0.0,0.0,0.0,0.0,0.0,0.0,0.0,0.0,0.0,0.0,0.0,0.0,0.0,0.0,0.0,0.0,0.0,0.0,0.0,0.0,-1.4262,0.0,0.0,0.0,0.0,0.0,0.0,0.0,0.0,0.0,0.0,0.0,0.0,0.0,0.0,0.0,0.0,0.0,0.0,0.0,0.0,0.0,0.0,0.0,0.0,0.0,0.0,0.0,0.0,0.0,0.0,0.0,0.0,0.0,0.0,0.0,0.0,0.0,0.0,0.0,0.0,0.0,0.0,0.0,0.0,0.0,0.0,0.0,0.0,0.0,0.0,0.0,0.0,0.0,0.0,0.0,0.0,0.0,0.0,0.0,-2.5502,-2.8193,-3.1174,-3.2602,-3.2173,-2.8475,-2.5088,0.0,0.0,0.0,0.0,0.0,0.0,0.0,0.0,0.0,0.0,0.0,0.0,0.0,0.0,0.0,0.0,0.0,0.0,0.0,0.0,0.0,0.0,0.0,0.0,0.0,0.0,0.0,0.0,0.0,0.0,0.0,0.0,0.0,0.0,0.0,0.0,0.0,0.0,0.0,0.0,0.0,0.0,0.0,0.0,0.0,0.0,0.0,0.0,0.0,0.0,0.0,0.0,0.0,0.0,0.0,0.0,0.0,0.0,0.0,0.0,0.0,0.0,0.0,0.0,0.0,0.0,0.0,0.0,0.0,0.0,0.0,0.0,0.0,0.0,0.0,0.0,0.0,0.0,0.0,0.0,0.0,0.0,0.0,0.0,0.0,0.0,0.0,0.0,0.0,0.0,0.0,0.0,0.0,0.0,0.0,0.0,0.0,0.0,0.0,0.0,0.0,0.0,0.0,0.0,0.0,0.0,0.0,-2.2873,-2.6119,-2.9622,-3.1692,-3.2669,-3.2628,-3.0118,-2.6806,-2.277,0.0,0.0,0.0,0.0,0.0,0.0,0.0,0.0,0.0,0.0,0.0,0.0,0.0,0.0,0.0,0.0,0.0,0.0,0.0,0.0,0.0,0.0,0.0,0.0,0.0,0.0,0.0,0.0,0.0,0.0,0.0,0.0,0.0,0.0,0.0,0.0,0.0,0.0,-1.2879,-1.389,0.0,0.0,0.0,0.0,0.0,0.0,0.0,0.0,-1.5214,0.0,0.0,0.0,0.0,0.0,0.0,0.0,0.0,0.0,0.0,0.0,0.0,0.0,0.0,0.0,0.0,0.0,0.0,0.0,0.0,0.0,0.0,0.0,0.0,0.0,0.0,0.0,0.0,0.0,0.0,0.0,0.0,0.0,0.0,0.0,0.0,0.0,0.0,0.0,0.0,0.0,0.0,0.0,0.0,0.0,0.0,0.0,0.0,0.0,0.0,0.0,0.0,0.0,0.0,0.0,0.0,-2.3038,-2.3681,-2.6455,-3.1388,-3.2277,-3.2669,-3.2664,-3.0429,-2.7262,-2.3246,0.0,0.0,0.0,0.0,0.0,0.0,0.0,0.0,0.0,0.0,0.0,0.0,0.0,0.0,0.0,0.0,0.0,0.0,0.0,0.0,0.0,0.0,0.0,0.0,0.0,0.0,0.0,0.0,0.0,0.0,0.0,0.0,0.0,0.0,0.0,0.0,0.0,0.0,0.0,-1.5925,-1.6374,0.0,0.0,0.0,0.0,0.0,0.0,0.0,0.0,-1.605,0.0,0.0,0.0,0.0,0.0,0.0,0.0,0.0,0.0,0.0,0.0,0.0,0.0,0.0,0.0,0.0,0.0,0.0,0.0,0.0,0.0,0.0,0.0,0.0,0.0,0.0,0.0,0.0,0.0,0.0,0.0,0.0,0.0,0.0,0.0,0.0,0.0,0.0,0.0,0.0,0.0,0.0,0.0,0.0,0.0,0.0,0.0,0.0,0.0,0.0,0.0,0.0,0.0,0.0,0.0,-2.3267,-2.513,-2.8048,-3.2173,-3.2566,-3.2669,-3.2607,-2.9829,-2.6641,0.0,0.0,0.0,0.0,0.0,0.0,0.0,0.0,0.0,0.0,0.0,0.0,0.0,0.0,0.0,0.0,0.0,0.0,0.0,0.0,0.0,0.0,0.0,0.0,0.0,0.0,0.0,0.0,0.0,0.0,0.0,0.0,0.0,0.0,0.0,0.0,0.0,0.0,0.0,0.0,-1.7119,-1.7771,-1.8651,0.0,0.0,0.0,0.0,0.0,0.0,-1.6767,-1.6361,0.0,0.0,0.0,0.0,0.0,0.0,0.0,0.0,0.0,0.0,0.0,0.0,0.0,0.0,0.0,0.0,0.0,0.0,0.0,0.0,0.0,0.0,0.0,0.0,0.0,0.0,0.0,0.0,0.0,0.0,0.0,0.0,0.0,0.0,0.0,0.0,0.0,0.0,0.0,0.0,0.0,0.0,0.0,0.0,0.0,0.0,0.0,0.0,0.0,0.0,0.0,0.0,0.0,0.0,0.0,-2.3122,-2.6227,-2.9343,-3.2504,-3.2669,-3.2669,-3.2607,-2.9083,-2.592,0.0,0.0,0.0,0.0,0.0,0.0,0.0,0.0,0.0,0.0,0.0,0.0,0.0,0.0,0.0,0.0,0.0,0.0,0.0,0.0,0.0,0.0,0.0,0.0,0.0,0.0,0.0,0.0,0.0,0.0,0.0,0.0,0.0,0.0,0.0,0.0,0.0,0.0,0.0,0.0,0.0,-1.9321,-2.0093,-1.9672,0.0,0.0,0.0,0.0,-1.8101,-1.8154,0.0,0.0,0.0,0.0,0.0,0.0,0.0,0.0,0.0,0.0,0.0,0.0,0.0,0.0,0.0,0.0,0.0,0.0,0.0,0.0,0.0,0.0,0.0,0.0,0.0,0.0,0.0,0.0,0.0,0.0,0.0,0.0,0.0,0.0,0.0,0.0,0.0,0.0,0.0,0.0,0.0,0.0,0.0,0.0,0.0,0.0,0.0,0.0,0.0,0.0,0.0,0.0,0.0,0.0,0.0,0.0,-2.3101,-2.5916,-2.9083,-3.2463,-3.2669,-3.2669,-3.2607,-2.8773,-2.5564,0.0,0.0,0.0,0.0,0.0,0.0,0.0,0.0,0.0,0.0,0.0,0.0,0.0,0.0,0.0,0.0,0.0,0.0,0.0,0.0,0.0,0.0,0.0,0.0,0.0,0.0,0.0,0.0,0.0,0.0,0.0,0.0,0.0,0.0,0.0,0.0,0.0,0.0,0.0,0.0,0.0,-2.1203,-2.1511,-2.0626,-1.9941,0.0,0.0,-2.1404,-2.1797,-2.3184,0.0,0.0,0.0,0.0,0.0,0.0,0.0,0.0,0.0,0.0,0.0,0.0,0.0,0.0,0.0,0.0,0.0,0.0,0.0,0.0,0.0,0.0,0.0,0.0,0.0,0.0,0.0,0.0,0.0,0.0,0.0,0.0,0.0,0.0,0.0,0.0,0.0,0.0,0.0,0.0,0.0,0.0,0.0,0.0,0.0,0.0,0.0,0.0,0.0,0.0,0.0,0.0,0.0,0.0,0.0,-1.9699,-2.3163,-2.6889,-3.0098,-3.2545,-3.2669,-3.2602,-3.2277,-2.7793,-2.4592,0.0,0.0,0.0,0.0,0.0,0.0,0.0,0.0,0.0,0.0,0.0,0.0,0.0,0.0,0.0,0.0,0.0,0.0,0.0,0.0,0.0,0.0,0.0,0.0,0.0,0.0,0.0,0.0,0.0,0.0,0.0,0.0,0.0,0.0,0.0,0.0,0.0,0.0,0.0,0.0,0.0,0.0,-2.2542,-2.2795,0.0,0.0,0.0,-2.2563,-2.2501,0.0,0.0,0.0,0.0,0.0,0.0,0.0,0.0,0.0,0.0,0.0,0.0,0.0,0.0,0.0,0.0,0.0,0.0,0.0,0.0,0.0,0.0,0.0,0.0,0.0,0.0,0.0,0.0,0.0,0.0,0.0,0.0,0.0,0.0,0.0,0.0,0.0,0.0,0.0,0.0,0.0,0.0,0.0,0.0,0.0,0.0,0.0,0.0,0.0,0.0,0.0,0.0,0.0,0.0,0.0,0.0,0.0,-2.3205,-2.7903,-3.1112,-3.2664,-3.2669,-3.2582,-3.2091,-2.7731,0.0,0.0,0.0,0.0,0.0,0.0,0.0,0.0,0.0,0.0,0.0,0.0,0.0,0.0,0.0,0.0,0.0,0.0,0.0,0.0,0.0,0.0,0.0,0.0,0.0,0.0,0.0,-0.9113,0.0,0.0,0.0,0.0,0.0,0.0,0.0,0.0,0.0,0.0,0.0,0.0,0.0,0.0,-2.2756,-2.3145,-2.4315,-2.4931,0.0,0.0,-2.4033,-2.4033,-2.4819,-2.4322,0.0,0.0,0.0,0.0,0.0,0.0,0.0,0.0,0.0,0.0,0.0,0.0,0.0,0.0,0.0,0.0,0.0,0.0,0.0,0.0,0.0,0.0,0.0,0.0,0.0,0.0,0.0,0.0,0.0,0.0,0.0,0.0,0.0,0.0,0.0,0.0,0.0,0.0,0.0,0.0,0.0,0.0,0.0,0.0,0.0,0.0,0.0,0.0,0.0,0.0,0.0,0.0,0.0,0.0,0.0,-2.3287,-2.8524,-3.1733,-3.2628,-3.2669,-3.2649,-3.2566,-2.9384,-2.6248,0.0,0.0,0.0,0.0,0.0,0.0,0.0,0.0,0.0,0.0,0.0,0.0,0.0,0.0,0.0,0.0,0.0,0.0,0.0,0.0,0.0,0.0,0.0,0.0,0.0,0.0,0.0,0.0,0.0,0.0,0.0,0.0,0.0,0.0,0.0,0.0,0.0,0.0,0.0,0.0,0.0,-2.297,-2.3094,-2.4239,-2.5597,0.0,0.0,-2.6765,-2.7986,-2.9973,-2.9518,-2.3867,0.0,0.0,0.0,0.0,0.0,0.0,0.0,0.0,0.0,0.0,0.0,0.0,0.0,0.0,0.0,0.0,0.0,0.0,0.0,0.0,0.0,0.0,0.0,0.0,0.0,0.0,0.0,0.0,0.0,0.0,0.0,0.0,0.0,0.0,0.0,0.0,0.0,0.0,0.0,0.0,0.0,0.0,0.0,0.0,0.0,0.0,0.0,0.0,0.0,0.0,0.0,0.0,0.0,-2.1073,-2.3205,-2.8297,-3.1526,-3.2607,-3.2669,-3.2545,-3.2256,-2.9725,-2.6724,0.0,0.0,0.0,0.0,0.0,0.0,0.0,0.0,0.0,0.0,0.0,0.0,0.0,0.0,0.0,0.0,0.0,0.0,0.0,0.0,0.0,0.0,0.0,0.0,0.0,0.0,0.0,0.0,-1.3641,-1.3935,-1.3786,0.0,0.0,0.0,0.0,0.0,0.0,0.0,0.0,0.0,0.0,-2.4459,-2.529,-2.671,0.0,0.0,-2.7541,-2.7631,-2.7708,-2.8114,-2.7119,-2.3514,-2.2072,0.0,0.0,0.0,0.0,0.0,0.0,0.0,0.0,0.0,0.0,0.0,0.0,0.0,0.0,0.0,0.0,0.0,0.0,0.0,0.0,0.0,0.0,0.0,0.0,0.0,0.0,0.0,0.0,0.0,0.0,0.0,0.0,0.0,0.0,0.0,0.0,0.0,0.0,0.0,0.0,0.0,0.0,0.0,0.0,0.0,0.0,0.0,0.0,0.0,0.0,0.0,0.0,-2.1275,-2.3017,-2.8193,-3.134,-3.2313,-3.2333,-3.2168,-3.1816,-3.0015,-2.7448,0.0,0.0,0.0,0.0,0.0,0.0,0.0,0.0,0.0,0.0,0.0,0.0,0.0,0.0,0.0,0.0,0.0,0.0,0.0,0.0,0.0,0.0,0.0,0.0,0.0,0.0,0.0,0.0,-1.4759,-1.4821,-1.4366,0.0,0.0,0.0,0.0,0.0,0.0,0.0,0.0,0.0,0.0,-2.5366,-2.6249,-2.7545,-2.8164,-2.7382,-2.7439,-2.75,-2.7435,-2.6954,-2.5967,-2.4047,0.0,0.0,0.0,0.0,0.0,0.0,0.0,0.0,0.0,0.0,0.0,0.0,0.0,0.0,0.0,0.0,0.0,0.0,0.0,0.0,0.0,0.0,0.0,0.0,0.0,0.0,0.0,0.0,0.0,0.0,-1.1143,0.0,0.0,0.0,0.0,0.0,0.0,0.0,0.0,0.0,0.0,0.0,0.0,0.0,0.0,0.0,0.0,0.0,0.0,0.0,0.0,0.0,0.0,-2.2004,-2.2584,-2.8338,-3.1381,-3.1422,-3.1402,-3.1422,-3.1381,-3.047,-2.8649,-2.5834,0.0,0.0,0.0,0.0,0.0,0.0,0.0,0.0,0.0,0.0,0.0,0.0,0.0,0.0,0.0,0.0,0.0,0.0,0.0,0.0,0.0,0.0,0.0,0.0,0.0,0.0,-1.308,-1.42,-1.48,0.0,0.0,0.0,0.0,0.0,0.0,0.0,0.0,0.0,0.0,-2.3426,-2.5342,-2.5476,-2.6044,-2.6714,-2.6886,-2.6413,-2.6455,-2.7689,-2.7834,-2.7379,0.0,0.0,0.0,0.0,0.0,0.0,0.0,0.0,0.0,0.0,0.0,0.0,0.0,0.0,0.0,0.0,0.0,0.0,0.0,0.0,0.0,0.0,0.0,0.0,0.0,0.0,0.0,-1.4674,-1.3917,0.0,0.0,0.0,0.0,0.0,0.0,0.0,0.0,0.0,0.0,0.0,-2.2708,-2.2729,0.0,0.0,0.0,0.0,0.0,0.0,0.0,0.0,0.0,0.0,0.0,0.0,-2.219,-2.3163,-2.8504,-3.1381,-3.1381,-3.1381,-3.1381,-3.1381,-3.1071,-2.9187,-2.5544,0.0,0.0,0.0,0.0,0.0,0.0,0.0,0.0,0.0,0.0,0.0,0.0,0.0,0.0,0.0,0.0,0.0,0.0,0.0,0.0,0.0,0.0,0.0,0.0,0.0,-1.4113,0.0,0.0,0.0,0.0,0.0,0.0,0.0,0.0,0.0,0.0,0.0,-2.0977,-2.2712,-2.4277,-2.5505,-2.6238,-2.7227,-2.8084,0.0,0.0,0.0,0.0,0.0,0.0,0.0,0.0,0.0,0.0,0.0,0.0,0.0,0.0,-2.3772,-1.9979,-1.9497,-1.9677,-1.9677,0.0,0.0,0.0,0.0,0.0,0.0,0.0,0.0,0.0,0.0,0.0,0.0,0.0,0.0,-1.8175,0.0,-1.7098,0.0,0.0,0.0,0.0,0.0,0.0,0.0,0.0,-2.3639,-2.5399,-2.6273,-2.6082,-2.602,0.0,-2.4447,-2.1528,0.0,0.0,0.0,0.0,0.0,0.0,0.0,0.0,-2.2666,-2.3639,-2.8504,-3.1071,-3.0905,-3.0905,-3.0905,-3.0905,-3.0884,-2.9394,-2.6222,-2.3267,-2.0617,0.0,0.0,0.0,0.0,0.0,0.0,0.0,0.0,0.0,0.0,0.0,0.0,0.0,0.0,0.0,0.0,0.0,0.0,0.0,0.0,0.0,0.0,0.0,-1.4775,0.0,0.0,0.0,0.0,0.0,0.0,0.0,0.0,0.0,-1.9962,-2.1471,-2.3291,-2.5063,-2.6108,-2.6712,-2.6774,0.0,0.0,0.0,0.0,0.0,0.0,0.0,-2.6513,-2.6054,-2.6053,-2.6254,-2.6762,-2.7509,-2.8009,-2.7956,0.0,0.0,-2.3442,-2.2893,-2.3071,-2.3071,-2.3457,-2.3806,-2.3806,-2.4447,-2.4941,0.0,0.0,0.0,0.0,0.0,0.0,0.0,0.0,-2.2501,-2.2625,0.0,-2.1118,0.0,0.0,0.0,0.0,0.0,0.0,0.0,0.0,-2.9694,-3.1526,-3.0739,-3.0243,-3.0077,-3.0015,-2.8276,-2.6496,-2.459,-2.1631,0.0,0.0,0.0,0.0,0.0,0.0,-2.3474,-2.4157,-2.8421,-3.047,-3.0036,-3.0015,-3.0015,-3.0056,-3.0036,-2.9394,-2.8028,-2.6243,-2.4239,-2.1963,-1.8071,0.0,0.0,0.0,0.0,0.0,0.0,0.0,0.0,0.0,0.0,0.0,0.0,0.0,0.0,0.0,0.0,0.0,0.0,0.0,0.0,-1.478,0.0,0.0,0.0,0.0,0.0,0.0,0.0,0.0,0.0,0.0,-2.2377,-2.4033,-2.5917,-2.7415,0.0,0.0,0.0,0.0,-2.8249,-2.6376,-2.6263,-2.6608,-2.7008,-2.8136,-2.932,-3.0458,0.0,0.0,-3.164,-3.0714,-2.9984,-2.9475,-3.0221,-3.0243,-2.8746,-2.7617,-2.707,-2.707,-2.709,-2.7168,-2.7226,-2.7851,-2.8457,-2.8686,0.0,0.0,0.0,0.0,-2.48,-2.563,-2.7138,-2.6951,-2.631,-2.5357,-2.4633,0.0,0.0,0.0,0.0,0.0,0.0,-2.633,-2.8649,-2.9994,-3.1464,-3.3058,-3.2313,-3.2271,-3.2851,-3.1712,-3.0739,-2.9797,-2.8317,-2.4469,-1.8434,0.0,0.0,0.0,0.0,-2.4695,-2.5916,-2.9021,-3.047,-2.9994,-2.9994,-3.016,-3.047,-3.0491,-3.0305,-2.9891,-2.8752,-2.6931,-2.4301,-2.1569,0.0,0.0,0.0,0.0,0.0,0.0,0.0,0.0,0.0,0.0,0.0,0.0,0.0,0.0,0.0,0.0,0.0,0.0,0.0,-1.5194,-1.5777,-1.6182,0.0,0.0,0.0,0.0,0.0,0.0,0.0,0.0,0.0,-2.6467,-2.6221,-2.6241,0.0,0.0,-2.6844,-2.6368,-2.7832,-2.9232,-2.9977,0.0,0.0,0.0,-3.0741,-3.059,-3.1166,-3.2458,-3.3336,-3.3134,-3.325,-3.3309,-3.3152,-3.3368,-3.3407,-3.2851,-3.1152,-2.9883,-2.9805,-3.0254,-3.0664,-3.0742,-3.1367,-3.1914,-3.3451,-3.0098,-2.8835,-2.8649,-2.9125,-2.8856,-2.9663,-3.1174,-3.0905,-3.0408,-2.9798,-2.8752,-2.7262,-2.5399,-2.4219,0.0,0.0,0.0,-2.9104,-3.1609,-3.1609,-3.2582,-3.4277,-3.3596,-3.3637,-3.4339,-3.341,-3.2934,-3.283,-3.1567,-2.8338,-2.3246,0.0,0.0,-2.159,-2.4053,-2.5916,-2.7138,-2.929,-3.0284,-2.9994,-2.9994,-3.0222,-3.0677,-3.0864,-3.0884,-3.0677,-2.9973,-2.8566,-2.6326,-2.395,-2.1176,0.0,0.0,0.0,0.0,0.0,0.0,0.0,0.0,0.0,0.0,0.0,-1.4155,-1.1654,0.0,0.0,0.0,-1.567,-1.6448,-1.74,-1.7993,0.0,0.0,0.0,0.0,0.0,0.0,0.0,-2.403,-2.6624,-2.8623,-2.9219,-2.8809,-2.8555,-2.8887,-2.8666,-2.8371,-2.8212,0.0,-3.0757,-3.1311,-3.1506,-3.1825,-3.2412,-3.243,-3.2585,-3.3489,-3.4329,-3.4954,-3.4952,-3.5241,-3.5375,-3.5395,-3.5144,-3.498,-3.4961,-3.3555,-3.2402,-3.2402,-3.2812,-3.3144,-3.3184,-3.3574,-3.3926,-3.7011,-3.6763,-3.3824,-3.2463,-3.2359,-3.2359,-3.312,-3.4258,-3.4339,-3.4507,-3.4795,-3.3058,-3.1567,-3.0201,-2.811,0.0,-3.0429,-3.1311,-3.2597,-3.4176,-3.4176,-3.4403,-3.4837,-3.4383,-3.4463,-3.4857,-3.3948,-3.3741,-3.4069,-3.2457,-3.0926,-2.9497,-2.7386,-2.5978,-2.5357,-2.6165,-2.7076,-2.7966,-2.9228,-2.9911,-2.9994,-3.0015,-3.0263,-3.0677,-3.1091,-3.1112,-3.0698,-3.0201,-2.9332,-2.7986,-2.5461,-2.3205,-2.1321,0.0,0.0,0.0,0.0,0.0,0.0,0.0,0.0,0.0,0.0,0.0,0.0,0.0,0.0,0.0,-1.9471,0.0,-2.0565,-2.1086,0.0,0.0,0.0,-2.4026,-2.5344,-2.7041,-2.8197,-2.8472,0.0,0.0,-3.1094,0.0,-3.209,-3.3051,-3.2511,-3.188,-3.154,-3.2289,-3.2527,-3.1419,-3.1606,-3.2018,-3.2514,-3.3538,-3.4859,-3.6323,-3.6934,-3.6836,-3.679,-3.6563,-3.6479,-3.6392,-3.5886,-3.5449,-3.543,-3.5,-3.4805,-3.4726,-3.4707,-3.4726,-3.4668,-3.4746,-3.4805,-3.8895,-3.8792,-3.7629,-3.6554,-3.5687,-3.5666,-3.5852,-3.6142,-3.6142,-3.6018,-3.5728,-3.4962,-3.4051,-3.3078,-3.2576,-3.2825,-3.3637,-3.3865,-3.4362,-3.5086,-3.5107,-3.5148,-3.5252,-3.5148,-3.5148,-3.5231,-3.5045,-3.4817,-3.465,-3.4214,-3.3078,-3.1422,-3.0491,-2.8607,-2.5875,-2.6687,-2.7552,-2.8442,-2.8773,-2.929,-2.9973,-3.0346,-3.0574,-3.0677,-3.0801,-3.0801,-3.0677,-2.9891,-2.9166,-2.8442,-2.6496,-2.4571,-2.277,-1.9251,0.0,0.0,0.0,0.0,0.0,0.0,0.0,0.0,0.0,-1.8112,-1.4097,0.0,-1.9417,0.0,-2.1358,-2.3225,-2.3928,-2.4051,0.0,0.0,-2.6479,-2.6947,-2.8707,-3.0389,-3.1052,-3.037,-3.1973,-3.3203,-3.3301,-3.3691,-3.4505,-3.589,-3.3828,-3.2157,-3.2084,-3.3053,-3.3902,-3.3993,-3.4481,-3.493,-3.4995,-3.5528,-3.6268,-3.7248,-3.7258,-3.7119,-3.7386,-3.6931,-3.6519,-3.6451,-3.6141,-3.5879,-3.5879,-3.5762,-3.5723,-3.5684,-3.5449,-3.5234,-3.5234,-3.5469,-3.5684,-3.9468,-3.9447,-3.9199,-3.8357,-3.7136,-3.7322,-3.7425,-3.7405,-3.7198,-3.697,-3.668,-3.6039,-3.5459,-3.4983,-3.4983,-3.5128,-3.5355,-3.5562,-3.5811,-3.6039,-3.6039,-3.6039,-3.6018,-3.5832,-3.5728,-3.5728,-3.5521,-3.5293,-3.5066,-3.5045,-3.4445,-3.3265,-3.3016,-3.1464,-2.8711,-2.811,-2.8028,-2.8297,-2.8504,-2.9166,-3.0263,-3.0553,-3.0408,-2.9808,-3.016,-2.9891,-2.8897,-2.8359,-2.7696,-2.6827,-2.5647,-2.4386,-2.2936,-2.0354,-1.8609,0.0,0.0,0.0,0.0,0.0,0.0,0.0,0.0,0.0,0.0,0.0,-2.1703,-2.1549,-2.424,-2.6268,-2.6972,-2.7545,-2.856,-3.0393,-3.056,-3.1294,-3.2954,-3.3975,-3.4402,-3.4088,-3.4916,-3.5508,-3.5508,-3.5703,-3.6171,-3.7065,-3.5613,-3.4497,-3.4687,-3.5131,-3.558,-3.5902,-3.6549,-3.6964,-3.6964,-3.7146,-3.7415,-3.777,-3.7867,-3.7922,-3.8077,-3.7678,-3.732,-3.73,-3.6907,-3.6582,-3.6582,-3.6601,-3.6601,-3.6562,-3.6406,-3.6113,-3.5762,-3.5859,-3.6035,-3.9723,-3.9702,-3.9592,-3.8937,-3.7881,-3.8212,-3.8171,-3.7798,-3.7343,-3.7198,-3.7281,-3.666,-3.637,-3.637,-3.6308,-3.6287,-3.6308,-3.6639,-3.6804,-3.6804,-3.6804,-3.6804,-3.6784,-3.639,-3.6204,-3.6183,-3.5728,-3.55,-3.55,-3.5459,-3.5148,-3.4671,-3.465,-3.3699,-3.1884,-2.9921,-2.8649,-2.8028,-2.8524,-2.9352,-3.047,-3.0387,-2.9766,-2.8628,-2.9208,-2.8628,-2.6729,-2.6501,-2.5854,-2.4673,-2.426,-2.3743,-2.3018,-2.1652,-2.0741,0.0,-1.9127,0.0,0.0,0.0,0.0,0.0,0.0,0.0,0.0,-2.3778,-2.4518,-2.523,-2.7586,-2.9394,-3.0036,-3.1195,-3.2437,-3.3762,-3.461,-3.5582,-3.6815,-3.7092,-3.7288,-3.7867,-3.7594,-3.7363,-3.7395,-3.7453,-3.7437,-3.748,-3.737,-3.722,-3.7682,-3.734,-3.7119,-3.7307,-3.7799,-3.8124,-3.8171,-3.8197,-3.8197,-3.8352,-3.8553,-3.8801,-3.8869,-3.8608,-3.8366,-3.8297,-3.7698,-3.7246,-3.7305,-3.7266,-3.7285,-3.7226,-3.7207,-3.6973,-3.6406,-3.623,-3.6191,-4.0613,-4.0593,-4.0241,-3.9951,-3.9702,-3.9392,-3.8005,-3.5914,-3.5459,-3.5687,-3.6432,-3.7384,-3.7798,-3.7757,-3.7405,-3.7239,-3.7218,-3.6929,-3.6804,-3.6804,-3.6804,-3.6804,-3.6804,-3.6722,-3.668,-3.6639,-3.6204,-3.5976,-3.5976,-3.5604,-3.4817,-3.3717,-3.3637,-3.2913,-3.1471,0.0,0.0,0.0,-2.9311,-2.9684,-2.9539,-2.8835,-2.8317,-2.8048,-2.751,0.0,-2.6625,-2.5875,-2.5334,-2.5065,-2.4983,0.0,0.0,0.0,0.0,0.0,0.0,0.0,0.0,0.0,0.0,0.0,-2.4907,-2.4541,-2.4815,-2.6837,-2.8578,-2.9477,-3.1008,-3.2582,-3.4113,-3.4486,-3.5211,-3.6535,-3.6609,-3.6795,-3.7496,-3.7677,-3.7827,-3.7877,-3.7793,-3.7884,-3.822,-3.824,-3.8345,-3.8485,-3.8375,-3.8375,-3.8702,-3.811,-3.79,-3.8499,-3.8519,-3.858,-3.8787,-3.8629,-3.8636,-3.9082,-3.9055,-3.9048,-3.9254,-3.8812,-3.8386,-3.8406,-3.7777,-3.7305,-3.7324,-3.7305,-3.7363,-3.7305,-3.7324,-3.7246,-3.709,-3.7051,-3.7051,-4.0882,0.0,-4.0634,-4.0158,0.0,-3.922,-3.8026,-3.6142,-3.6825,-3.726,-3.7443,-3.8191,-3.8378,-3.8129,-3.7218,-3.6804,-3.6763,-3.5873,-3.5811,-3.6453,-3.6453,-3.6825,-3.7488,-3.726,-3.7156,-3.7136,-3.668,-3.6453,-3.6432,-3.5976,-3.5418,-3.4734,-3.4507,-3.4031,-3.3389,-3.3368,-3.2478,-3.0677,-3.0657,-3.076,-3.0967,-3.0272,-2.9415,-2.8317,0.0,0.0,0.0,0.0,0.0,0.0,0.0,0.0,0.0,0.0,0.0,-2.5813,-2.5026,-2.5257,-2.6724,-2.6455,-2.7214,-2.9549,-2.9981,-2.9528,-2.8161,-3.0293,-3.2043,-3.2934,-3.3865,-3.4962,-3.6287,-3.666,-3.7156,-3.8046,-3.8156,-3.8344,-3.882,-3.8797,-3.8839,-3.8986,-3.8763,-3.8573,-3.8786,-3.8607,-3.8548,-3.8676,-3.8503,-3.8531,-3.8853,-3.8661,-3.86,-3.915,-3.9122,-3.9053,-3.9191,-3.9122,-3.9053,-3.9399,-3.933,-3.926,-3.926,-3.8755,-3.8397,-3.8387,-3.7952,-3.7656,-3.7891,-3.793,-3.793,-3.793,-3.793,-3.793,-3.791,-3.7598,-3.7305,-4.0882,-4.0882,-4.0882,-4.0241,-3.9206,-3.9137,-3.8564,-3.7612,0.0,0.0,0.0,-3.8786,-3.873,-3.8233,-3.7094,-3.6556,-3.6411,-3.5314,-3.5397,-3.6473,-3.6473,-3.7074,-3.815,-3.7798,-3.7612,-3.7591,-3.7136,-3.6929,-3.6908,-3.6453,-3.6183,-3.608,-3.5728,-3.55,-3.5438,-3.5418,-3.4693,-3.3186,-3.2091,-3.1864,-3.2504,-3.1864,-3.0615,-2.8649,-2.8835,-2.8007,-2.6103,-2.6418,-2.6438,-2.6065,-2.5751,-2.5834,-2.631,-2.6103,-2.6434,-2.7448,-2.7579,-2.8657,-3.0967,-3.0739,-3.1381,-3.3472,-3.4526,-3.4075,-3.1825,-3.3437,-3.49,-3.5728,-3.6121,-3.6722,-3.7632,-3.8067,-3.8481,-3.8848,-3.9323,-3.9736,-3.9997,-3.993,-3.979,-3.9963,-3.9414,-3.9061,-3.895,-3.8597,-3.8355,-3.8373,-3.8323,-3.8378,-3.8677,-3.8909,-3.915,-3.9399,-3.9399,-3.9468,-3.9468,-3.9468,-3.9468,-3.9468,-3.9468,-3.933,-3.9053,-3.8615,-3.8357,-3.8334,-3.8085,-3.8047,-3.8359,-3.8457,-3.8574,-3.8574,-3.8574,-3.8574,-3.8516,-3.8027,-3.7578,-4.0882,-4.0882,-4.0882,-4.0758,-4.0593,-4.0593,-4.0489,-4.0199,-3.8937,-3.8129,-3.7757,-3.8937,-3.9117,-3.8683,-3.8476,-3.8253,-3.7902,-3.7695,-3.7715,0.0,-3.7902,-3.7984,-3.8191,-3.8129,-3.8088,-3.8046,-3.7612,-3.7405,-3.7343,-3.6929,-3.6515,-3.6163,-3.6039,-3.5811,-3.5459,-3.5418,-3.5293,-3.5004,-3.3389,-3.2359,-3.207,-3.0532,-2.9352,-2.8649,-2.7966,-2.7268,-2.6563,-2.6604,-2.6584,-2.6521,-2.6786,-2.7345,-2.8173,-2.8545,-2.9497,-3.1037,-3.1223,-3.1795,-3.2892,-3.2582,-3.2975,-3.4484,-3.5418,-3.5438,-3.4445,-3.5583,-3.6639,-3.7156,-3.726,-3.7674,-3.8455,-3.8641,-3.8889,-3.9323,-3.9847,-4.0018,-3.9818,-4.0054,-3.9994,-3.9445,-3.9182,-3.8959,-3.856,-3.8404,-3.8269,-3.8233,-3.8218,-3.8135,-3.8118,-3.8767,-3.9337,-3.9468,-3.9468,-3.9468,-3.9296,-3.9447,-3.9385,-3.9468,-3.9199,-3.9019,-3.8861,-3.8375,-3.7947,-3.7946,-3.7869,-3.791,-3.8047,-3.834,-3.8535,-3.8574,-3.8574,-3.8574,-3.8574,-3.8398,-3.834,-4.0882,-4.0882,-4.0882,-4.0882,-4.0882,-4.0882,-4.0882,-4.08,-4.0013,-3.9392,-3.9061,-3.9571,-3.9592,-3.9096,-3.846,-3.7715,-3.7032,-3.6556,-3.6453,-3.6701,-3.6949,-3.7467,-3.815,-3.8191,-3.8191,-3.8171,-3.7984,-3.786,-3.7819,-3.7405,-3.7074,-3.6846,-3.637,-3.5997,-3.579,-3.5542,-3.5418,-3.5397,-3.461,-3.3969,-3.3513,-3.2457,-3.1671,-3.1195,-3.0098,-2.9445,-2.9238,-2.874,-2.8545,-2.8844,-2.9001,-2.9539,-3.0429,-3.0677,-3.1278,-3.2256,-3.2359,-3.2809,-3.3699,-3.4258,-3.4838,-3.5459,-3.6349,-3.6701,-3.6287,-3.6804,-3.7363,-3.7819,-3.8067,-3.8398,-3.8765,-3.9268,-3.9661,-3.9889,-4.0323,-4.0501,-4.0359,-4.0432,-4.034,-3.9789,-3.9502,-3.9093,-3.8664,-3.8377,-3.8238,-3.8212,-3.8191,-3.8125,-3.7971,-3.8388,-3.8656,-3.8296,-3.8296,-3.8364,-3.8248,-3.8364,-3.8452,-3.8452,-3.852,-3.8385,-3.8112,-3.7634,-3.7479,-3.7282,-3.7465,-3.7656,-3.7871,-3.8281,-3.8516,-3.8574,-3.8574,-3.8574,-3.8574,-3.8574,-3.8574,-4.0882,-4.0882,-4.0882,-4.0882,-4.0882,-4.0882,-4.0882,-4.0882,-4.0862,-4.0696,-4.0406,-4.0365,-4.0116,-3.953,-3.8564,-3.7674,-3.6867,-3.6163,-3.5935,-3.608,-3.6515,-3.7198,-3.7964,-3.8129,-3.8191,-3.8191,-3.8191,-3.8191,-3.815,-3.7819,-3.7591,-3.7425,-3.666,-3.6225,-3.6121,-3.5749,-3.5521,-3.5438,-3.5418,-3.5252,-3.4921,-3.4465,-3.3989,-3.3492,-3.2416,-3.1774,-3.165,-3.0988,-3.0781,-3.1112,-3.1153,-3.1464,-3.207,-3.2132,-3.238,-3.2954,-3.3037,-3.3472,-3.4465,-3.55,-3.6204,-3.6432,-3.7074,-3.7529,-3.7632,-3.7653,-3.7777,-3.8171,-3.8564,-3.8786,-3.9013,-3.9702,-4.0241,-4.0365,-4.0655,-4.0841,-4.0862,-4.0882,-4.0717,-4.0261,-3.9827,-3.9302,-3.8848,-3.846,-3.8212,-3.8191,-3.8191,-3.8191,-3.8125,-3.8104,-3.7904,-3.7415,-3.7415,-3.7744,-3.7435,-3.7657,-3.7811,-3.777,-3.7924,-3.7852,-3.7449,-3.7314,-3.7157,-3.7026,-3.7289,-3.7629,-3.791,-3.8281,-3.8535,-3.8574,-3.8574,-3.8574,-3.8574,-3.8574,-3.8574,-4.0882,-4.0882,-4.0882,-4.0882,-4.0882,-4.0882,-4.0882,-4.0882,-4.0882,-4.0862,-4.08,-4.082,-4.0572,-4.0199,-3.9992,-3.9599,-3.9123,-3.9123,-3.8626,-3.7984,-3.8378,-3.8166,-3.7674,-3.8005,-3.8191,-3.8171,-3.8171,-3.8191,-3.8191,-3.8129,-3.7902,-3.7488,-3.6991,-3.6535,-3.6183,-3.608,-3.5852,-3.5438,-3.5418,-3.5397,-3.5355,-3.4921,-3.4546,-3.401,-3.3472,-3.2996,-3.2623,-3.2483,-3.2421,-3.254,-3.2499,-3.2525,-3.2607,-3.2607,-3.3058,-3.3865,-3.3948,-3.4527,-3.5749,-3.6039,-3.6494,-3.726,-3.7425,-3.7674,-3.8046,-3.8109,-3.8129,-3.8253,-3.8585,-3.8972,-3.9385,-3.9951,-4.0406,-4.0717,-4.0841,-4.0882,-4.0882,-4.0882,-4.0717,-4.0282,-3.9827,-3.9302,-3.8848,-3.846,-3.8212,-3.8191,-3.8191,-3.8104,-3.7904,-3.8037,-3.7971,-3.7502,-3.7703,-3.8037,-3.7971,-3.8104,-3.8037,-3.8037,-3.7837,-3.7703,-3.7543,-3.7604,-3.7585,-3.7182,-3.7757,-3.811,-3.8053,-3.8262,-3.8535,-3.8574,-3.8574,-3.8574,-3.8574,-3.8574,-3.8574,-4.0882,-4.0882,-4.0882,-4.0882,-4.0882,-4.0882,-4.0882,-4.0882,-4.0882,-4.0882,-4.0882,-4.0882,-4.0779,-4.0613,-4.0613,-4.022,-3.9509,-3.9757,-3.9454,-3.8667,-3.904,-3.8771,-3.8026,-3.8357,-3.8316,-3.7839,-3.8046,-3.8191,-3.8191,-3.8191,-3.8088,-3.7881,-3.7446,-3.7115,-3.6929,-3.666,-3.6308,-3.5852,-3.5832,-3.5707,-3.5438,-3.5252,-3.5066,-3.4817,-3.4176,-3.372,-3.3492,-3.3037,-3.2669,-3.269,-3.2975,-3.3244,-3.3513,-3.3782,-3.4217,-3.4817,-3.5128,-3.5645,-3.6453,-3.6763,-3.7094,-3.7488,-3.7757,-3.8005,-3.8171,-3.8419,-3.8481,-3.8316,-3.8833,-3.9364,-3.9819,-4.0344,-4.0675,-4.0841,-4.0882,-4.0882,-4.0882,-4.0882,-4.0717,-4.0282,-3.9827,-3.9302,-3.8848,-3.846,-3.8212,-3.8191,-3.8191,-3.8125,-3.7991,-3.8104,-3.8037,-3.7837,-3.8037,-3.7971,-3.7703,-3.775,-3.7837,-3.7837,-3.7904,-3.7904,-3.7677,-3.7936,-3.7887,-3.7305,-3.7838,-3.8125,-3.7873,-3.7982,-3.8242,-3.8418,-3.8574,-3.8574,-3.8574,-3.8574,-3.8574,-4.0882,-4.0882,-4.0882,-4.0882,-4.0882,-4.0882,-4.0882,-4.0882,-4.0882,-4.0882,-4.0882,-4.0882,-4.0882,-4.0882,-4.0882,-4.051,-4.0013,-4.0241,-3.9909,-3.9096,-3.9447,-3.9247,-3.846,-3.8543,-3.8316,-3.7819,-3.7881,-3.8046,-3.8171,-3.8191,-3.8191,-3.8129,-3.7839,-3.7612,-3.7467,-3.7136,-3.6763,-3.6328,-3.608,-3.5749,-3.5438,-3.5293,-3.5293,-3.5335,-3.4797,-3.4445,-3.4424,-3.3803,-3.3472,-3.3413,-3.3782,-3.4093,-3.4424,-3.4755,-3.5128,-3.5583,-3.5914,-3.637,-3.6949,-3.7301,-3.755,-3.7695,-3.8005,-3.8253,-3.8378,-3.8564,-3.8647,-3.8688,-3.9164,-3.9682,-4.0013,-4.0551,-4.0862,-4.0882,-4.0882,-4.0882,-4.0882,-4.0882,-4.0758,-4.0427,-4.0054,-3.9488,-3.9034,-3.8621,-3.8419,-3.8585,-3.8481,-3.844,-3.8481,-3.8481,-3.8419,-3.8523,-3.8378,-3.7971,-3.7482,-3.7636,-3.775,-3.7837,-3.8037,-3.8037,-3.7857,-3.8159,-3.8289,-3.7827,-3.8035,-3.8137,-3.8114,-3.8157,-3.8158,-3.8418,-3.8574,-3.8574,-3.8574,-3.8574,-3.8574,-4.0882,-4.0882,-4.0882,-4.0882,-4.0882,-4.0882,-4.0882,-4.0882,-4.0882,-4.0882,-4.0882,-4.0882,-4.0882,-4.0882,-4.0882,-4.0841,-4.0779,-4.08,-4.0365,-3.964,-3.9992,-3.9702,-3.8765,-3.8419,-3.8212,-3.8067,-3.7777,-3.7798,-3.815,-3.8191,-3.8191,-3.8171,-3.8129,-3.7922,-3.7591,-3.7488,-3.7239,-3.6763,-3.6039,-3.5521,-3.5418,-3.5066,-3.5107,-3.5459,-3.5355,-3.5293,-3.5314,-3.5293,-3.5252,-3.5273,-3.5211,-3.5293,-3.5335,-3.5376,-3.5604,-3.6018,-3.6121,-3.6535,-3.7322,-3.7508,-3.7695,-3.8046,-3.8191,-3.8357,-3.8647,-3.8585,-3.8709,-3.9282,-3.9516,-3.9592,-3.9723,-4.0427,-4.0862,-4.0882,-4.0882,-4.0882,-4.0882,-4.0882,-4.0882,-4.0758,-4.0406,-3.993,-3.9468,-3.9034,-3.8972,-3.9185,-3.9081,-3.8869,-3.9206,-3.8993,-3.8951,-3.9102,-3.8792,-3.8212,-3.8145,-3.8161,-3.812,-3.8228,-3.8311,-3.8295,-3.8357,-3.8435,-3.8438,-3.8439,-3.8661,-3.8748,-3.8576,-3.8458,-3.8491,-3.8563,-3.8627,-3.8574,-3.8574,-3.8574,-3.8574,-4.0882,-4.0882,-4.0882,-4.0882,-4.0882,-4.0882,-4.0882,-4.0882,-4.0882,-4.0882,-4.0882,-4.0882,-4.0882,-4.0882,-4.0882,-4.0882,-4.0882,-4.0882,-4.0696,-4.0406,-4.0572,-4.0158,-3.9302,-3.9413,-3.8978,-3.8233,-3.8026,-3.786,-3.7777,-3.8026,-3.8191,-3.8191,-3.8191,-3.8088,-3.7964,-3.7943,-3.7715,-3.726,-3.6887,-3.6597,-3.6308,-3.6142,-3.6163,-3.6246,-3.5728,-3.5418,-3.5418,-3.5418,-3.5418,-3.5418,-3.5418,-3.5418,-3.5459,-3.5707,-3.6059,-3.6515,-3.6825,-3.7281,-3.7819,-3.7922,-3.7984,-3.8171,-3.846,-3.8543,-3.8585,-3.904,-3.9413,-3.9241,-3.9972,-4.0261,-4.0137,-4.053,-4.0882,-4.0882,-4.0882,-4.0882,-4.0882,-4.0882,-4.0882,-4.082,-4.051,-4.0054,-3.9702,-3.9323,-3.9302,-3.9475,-3.9392,-3.9323,-3.9406,-3.9302,-3.9302,-3.9385,-3.9268,-3.9061,-3.9061,-3.8703,-3.8579,-3.8662,-3.8792,-3.8978,-3.9034,-3.9309,-3.933,-3.8808,-3.9068,-3.9118,-3.8788,-3.8648,-3.8662,-3.8602,-3.8647,-3.8647,-3.8574,-3.8574,-3.8574,-4.0882,-4.0882,-4.0882,-4.0882,-4.0882,-4.0882,-4.0882,-4.0882,-4.0882,-4.0882,-4.0882,-4.0882,-4.0882,-4.0882,-4.0882,-4.0882,-4.0882,-4.0882,-4.0882,-4.0882,-4.0882,-4.0551,-4.0075,-3.9992,-3.9537,-3.8647,-3.8129,-3.7798,-3.757,-3.7819,-3.7964,-3.7943,-3.8088,-3.8191,-3.8191,-3.8191,-3.8026,-3.7736,-3.7425,-3.7094,-3.6825,-3.6639,-3.6577,-3.6515,-3.6101,-3.5873,-3.5873,-3.5852,-3.579,-3.5687,-3.5769,-3.5873,-3.5894,-3.6163,-3.6535,-3.6991,-3.7301,-3.7695,-3.8109,-3.8191,-3.8233,-3.8398,-3.86,-3.8724,-3.8874,-3.9558,-3.9592,-3.955,-4.0034,-4.051,-4.0386,-4.0613,-4.0862,-4.0882,-4.0882,-4.0882,-4.0882,-4.0882,-4.0882,-4.0841,-4.0655,-4.0323,-4.0034,-3.9868,-3.9868,-3.993,-3.9868,-3.9785,-3.993,-3.9847,-3.9827,-3.9909,-3.9682,-3.953,-3.9571,-3.9495,-3.9206,-3.9158,-3.9247,-3.9495,-3.9612,-3.9951,-3.986,-3.9385,-3.9137,-3.9167,-3.9091,-3.8974,-3.8833,-3.8773,-3.8793,-3.8865,-3.872,-3.8574,-3.8574,-4.0882,-4.0882,-4.0882,-4.0882,-4.0882,-4.0882,-4.0882,-4.0882,-4.0882,-4.0882,-4.0882,-4.0882,-4.0882,-4.0882,-4.0882,-4.0882,-4.0882,-4.0882,-4.0882,-4.0882,-4.0882,-4.0862,-4.0717,-4.0075,-3.9592,-3.9351,-3.8191,-3.7591,-3.757,-3.7632,-3.7632,-3.7632,-3.7964,-3.8129,-3.8191,-3.8191,-3.8171,-3.7984,-3.7384,-3.6949,-3.6784,-3.6556,-3.639,-3.637,-3.6618,-3.6804,-3.6804,-3.6742,-3.6515,-3.6204,-3.6494,-3.6784,-3.6701,-3.6784,-3.6991,-3.7363,-3.7488,-3.7736,-3.8109,-3.8212,-3.844,-3.8662,-3.8807,-3.9199,-3.9654,-3.9806,-3.9827,-4.0034,-4.022,-4.0282,-4.0323,-4.0613,-4.0882,-4.0882,-4.0882,-4.0882,-4.0882,-4.0882,-4.0882,-4.0862,-4.082,-4.0862,-4.0779,-4.0468,-4.0344,-4.0551,-4.0448,-4.0323,-4.0572,-4.0406,-4.0448,-4.053,-4.0261,-3.9992,-4.0116,-4.0199,-3.993,-3.9723,-3.9723,-3.9806,-3.9889,-4.0096,-4.0054,-3.9612,-3.9412,-3.9421,-3.9576,-3.9421,-3.9326,-3.9228,-3.9156,-3.903,-3.8885,-3.872,-3.8647,-4.0882,-4.0882,-4.0882,-4.0882,-4.0882,-4.0882,-4.0882,-4.0882,-4.0882,-4.0882,-4.0882,-4.0882,-4.0882,-4.0882,-4.0882,-4.0882,-4.0882,-4.0882,-4.0882,-4.0882,-4.0882,-4.0882,-4.082,-4.0593,-4.0137,-3.9509,-3.9144,-3.8564,-3.8067,-3.7964,-3.7964,-3.7964,-3.7798,-3.7902,-3.815,-3.8191,-3.8191,-3.815,-3.7902,-3.7757,-3.7757,-3.7612,-3.7529,-3.755,-3.7674,-3.7757,-3.7715,-3.7136,-3.6763,-3.6597,-3.6722,-3.6804,-3.6867,-3.7115,-3.7343,-3.7488,-3.7798,-3.8005,-3.8191,-3.846,-3.8688,-3.8869,-3.9344,-3.9702,-3.9757,-4.0199,-4.0323,-4.0303,-4.0468,-4.0675,-4.0696,-4.0779,-4.0862,-4.0882,-4.0882,-4.0882,-4.0882,-4.0882,-4.0882,-4.0882,-4.0882,-4.0882,-4.0862,-4.0696,-4.0696,-4.082,-4.0737,-4.0737,-4.08,-4.0737,-4.0696,-4.08,-4.051,-4.0365,-4.0468,-4.0551,-4.0406,-4.0241,-4.022,-4.0179,-4.022,-4.0241,-4.0179,-4.0026,-3.9824,-3.9786,-3.9942,-3.9932,-3.9838,-3.959,-3.9373,-3.9228,-3.903,-3.8885,-3.8647,-4.0882,-4.0882,-4.0882,-4.0882,-4.0882,-4.0882,-4.0882,-4.0882,-4.0882,-4.0882,-4.0882,-4.0882,-4.0882,-4.0882,-4.0882,-4.0882,-4.0882,-4.0882,-4.0882,-4.0882,-4.0882,-4.0882,-4.0882,-4.0882,-4.053,-3.9868,-3.955,-3.9164,-3.846,-3.8253,-3.8191,-3.8109,-3.7715,-3.7632,-3.7902,-3.7943,-3.7922,-3.7943,-3.8088,-3.8191,-3.8191,-3.8191,-3.8191,-3.8191,-3.8191,-3.8191,-3.815,-3.7591,-3.7218,-3.7094,-3.7053,-3.7136,-3.7301,-3.7591,-3.7757,-3.7798,-3.8005,-3.8253,-3.844,-3.8621,-3.8972,-3.9323,-3.9889,-4.0179,-4.0137,-4.0634,-4.0696,-4.0551,-4.0696,-4.0882,-4.0862,-4.0882,-4.0882,-4.0882,-4.0882,-4.0882,-4.0882,-4.0882,-4.0882,-4.0882,-4.0882,-4.0882,-4.0882,-4.0882,-4.0882,-4.0882,-4.0882,-4.0882,-4.0882,-4.0862,-4.0882,-4.0882,-4.0779,-4.0737,-4.082,-4.0841,-4.0862,-4.0779,-4.0737,-4.0675,-4.0655,-4.0655,-4.0613,-4.053,-4.0306,-4.0327,-4.0494,-4.0371,-4.0238,-3.995,-3.9662,-3.9373,-3.9156,-3.8793,-3.8647,-4.0882,-4.0882,-4.0882,-4.0882,-4.0882,-4.0882,-4.0882,-4.0882,-4.0882,-4.0882,-4.0882,-4.0882,-4.0882,-4.0882,-4.0882,-4.0882,-4.0882,-4.0882,-4.0882,-4.0882,-4.0882,-4.0882,-4.0882,-4.0882,-4.0634,-4.0261,-3.9889,-3.9433,-3.8931,-3.8605,-3.8253,-3.8233,-3.7839,-3.7508,-3.757,-3.7508,-3.755,-3.7612,-3.7922,-3.8109,-3.8171,-3.8191,-3.8191,-3.8191,-3.8191,-3.8191,-3.8171,-3.8067,-3.7902,-3.7591,-3.7529,-3.7695,-3.8046,-3.8171,-3.815,-3.8129,-3.8191,-3.846,-3.873,-3.8931,-3.9282,-3.9992,-4.0199,-4.0386,-4.0717,-4.08,-4.0862,-4.08,-4.0841,-4.0882,-4.0882,-4.0882,-4.0882,-4.0882,-4.0882,-4.0882,-4.0882,-4.0882,-4.0882,-4.0882,-4.0882,-4.0882,-4.0882,-4.0882,-4.0882,-4.0882,-4.0882,-4.0882,-4.0882,-4.0882,-4.0882,-4.0882,-4.0882,-4.0882,-4.0882,-4.0882,-4.0882,-4.0882,-4.0882,-4.0882,-4.0882,-4.0882,-4.0882,-4.082,-4.0779,-4.0841,-4.079,-4.0647,-4.0596,-4.0382,-4.0022,-3.9662,-3.9301,-3.8938,-3.8647,-4.0882,-4.0882,-4.0882,-4.0882,-4.0882,-4.0882,-4.0882,-4.0882,-4.0882,-4.0882,-4.0882,-4.0882,-4.0882,-4.0882,-4.0882,-4.0882,-4.0882,-4.0882,-4.0882,-4.0882,-4.0882,-4.0882,-4.0882,-4.0882,-4.082,-4.0655,-4.051,-4.0303,-3.9798,-3.9371,-3.9019,-3.8647,-3.8233,-3.7819,-3.755,-3.7529,-3.7488,-3.7488,-3.7612,-3.7881,-3.815,-3.8191,-3.8191,-3.8191,-3.8191,-3.8191,-3.8191,-3.8191,-3.815,-3.8026,-3.8005,-3.8046,-3.8171,-3.8191,-3.8191,-3.8253,-3.8502,-3.8641,-3.8889,-3.9406,-3.9972,-4.0199,-4.051,-4.0737,-4.0841,-4.0882,-4.0882,-4.0882,-4.0882,-4.0882,-4.0882,-4.0882,-4.0882,-4.0882,-4.0882,-4.0882,-4.0882,-4.0882,-4.0882,-4.0882,-4.0882,-4.0882,-4.0882,-4.0882,-4.0882,-4.0882,-4.0882,-4.0882,-4.0882,-4.0882,-4.0882,-4.0882,-4.0882,-4.0882,-4.0882,-4.0882,-4.0882,-4.0882,-4.0882,-4.0882,-4.0882,-4.0882,-4.0882,-4.0862,-4.0841,-4.0862,-4.0862,-4.0811,-4.074,-4.0668,-4.0238,-3.9734,-3.9425,-3.9136,-3.8793,-4.0882,-4.0882,-4.0882,-4.0882,-4.0882,-4.0882,-4.0882,-4.0882,-4.0882,-4.0882,-4.0882,-4.0882,-4.0882,-4.0882,-4.0882,-4.0882,-4.0882,-4.0882,-4.0882,-4.0882,-4.0882,-4.0882,-4.0882,-4.0882,-4.0882,-4.0882,-4.0882,-4.0737,-4.0448,-4.0054,-3.9612,-3.9282,-3.8771,-3.8233,-3.7839,-3.7777,-3.7674,-3.757,-3.7674,-3.7943,-3.8171,-3.8191,-3.8191,-3.8191,-3.8191,-3.8191,-3.8191,-3.8191,-3.8191,-3.8171,-3.8191,-3.8191,-3.8191,-3.8191,-3.8253,-3.844,-3.873,-3.891,-3.9385,-3.9972,-4.0282,-4.0489,-4.0779,-4.0841,-4.0882,-4.0882,-4.0882,-4.0882,-4.0882,-4.0882,-4.0882,-4.0882,-4.0882,-4.0882,-4.0882,-4.0882,-4.0882,-4.0882,-4.0882,-4.0882,-4.0882,-4.0882,-4.0882,-4.0882,-4.0882,-4.0882,-4.0882,-4.0882,-4.0882,-4.0882,-4.0882,-4.0882,-4.0882,-4.0882,-4.0882,-4.0882,-4.0882,-4.0882,-4.0882,-4.0882,-4.0882,-4.0882,-4.0882,-4.0882,-4.0882,-4.0882,-4.0882,-4.0882,-4.0882,-4.0668,-4.0218,-3.9858,-3.9642,-3.9228,-3.8865,-4.0882,-4.0882,-4.0882,-4.0882,-4.0882,-4.0882,-4.0882,-4.0882,-4.0882,-4.0882,-4.0882,-4.0882,-4.0882,-4.0882,-4.0882,-4.0882,-4.0882,-4.0882,-4.0882,-4.0882,-4.0882,-4.0882,-4.0882,-4.0882,-4.0882,-4.0882,-4.0882,-4.0862,-4.0717,-4.0427,-4.0261,-3.9972,-3.9261,-3.875,-3.8316,-3.8191,-3.7943,-3.7736,-3.7819,-3.8026,-3.815,-3.8191,-3.8191,-3.8191,-3.8191,-3.8191,-3.8191,-3.8191,-3.8191,-3.8191,-3.8191,-3.8233,-3.8233,-3.8274,-3.8502,-3.8874,-3.9013,-3.9433,-4.0034,-4.0241,-4.0468,-4.0758,-4.0841,-4.0882,-4.0882,-4.0882,-4.0882,-4.0882,-4.0882,-4.0882,-4.0882,-4.0882,-4.0882,-4.0882,-4.0882,-4.0882,-4.0882,-4.0882,-4.0882,-4.0882,-4.0882,-4.0882,-4.0882,-4.0882,-4.0882,-4.0882,-4.0882,-4.0882,-4.0882,-4.0882,-4.0882,-4.0882,-4.0882,-4.0882,-4.0882,-4.0882,-4.0882,-4.0882,-4.0882,-4.0882,-4.0882,-4.0882,-4.0882,-4.0882,-4.0882,-4.0882,-4.0882,-4.0882,-4.0882,-4.074,-4.0289,-4.0074,-3.9786,-3.9228,-3.8793,-4.0882,-4.0882,-4.0882,-4.0882,-4.0882,-4.0882,-4.0882,-4.0882,-4.0882,-4.0882,-4.0882,-4.0882,-4.0882,-4.0882,-4.0882,-4.0882,-4.0882,-4.0882,-4.0882,-4.0882,-4.0882,-4.0882,-4.0882,-4.0882,-4.0882,-4.0882,-4.0882,-4.0882,-4.082,-4.0737,-4.0551,-4.0179,-4.0013,-3.9516,-3.8812,-3.8481,-3.815,-3.8005,-3.7839,-3.7922,-3.815,-3.8191,-3.8191,-3.8191,-3.8191,-3.8191,-3.8191,-3.8191,-3.8191,-3.8191,-3.8212,-3.8316,-3.8585,-3.8647,-3.8874,-3.9241,-3.9633,-3.9972,-4.0241,-4.053,-4.0758,-4.0841,-4.0882,-4.0882,-4.0882,-4.0882,-4.0882,-4.0882,-4.0882,-4.0882,-4.0882,-4.0882,-4.0882,-4.0882,-4.0882,-4.0882,-4.0882,-4.0882,-4.0882,-4.0882,-4.0882,-4.0882,-4.0882,-4.0882,-4.0882,-4.0882,-4.0882,-4.0882,-4.0882,-4.0882,-4.0882,-4.0882,-4.0882,-4.0882,-4.0882,-4.0882,-4.0882,-4.0882,-4.0882,-4.0882,-4.0882,-4.0882,-4.0882,-4.0882,-4.0882,-4.0882,-4.0882,-4.0882,-4.0882,-4.0668,-4.0433,-4.0146,-3.9806,-3.9228,-3.8812,-4.0882,-4.0882,-4.0882,-4.0882,-4.0882,-4.0882,-4.0882,-4.0882,-4.0882,-4.0882,-4.0882,-4.0882,-4.0882,-4.0882,-4.0882,-4.0882,-4.0882,-4.0882,-4.0882,-4.0882,-4.0882,-4.0882,-4.0882,-4.0882,-4.0882,-4.0882,-4.0882,-4.0882,-4.0882,-4.0862,-4.0737,-4.053,-4.051,-4.0179,-3.953,-3.9226,-3.8916,-3.8543,-3.8274,-3.8191,-3.8191,-3.8191,-3.8191,-3.8191,-3.8191,-3.8191,-3.8191,-3.8191,-3.8191,-3.8191,-3.8191,-3.8378,-3.8688,-3.8688,-3.8978,-3.9723,-3.9806,-4.0179,-4.0468,-4.0737,-4.0862,-4.0882,-4.0882,-4.0882,-4.0882,-4.0882,-4.0882,-4.0882,-4.0882,-4.0882,-4.0882,-4.0882,-4.0882,-4.0882,-4.0882,-4.0882,-4.0882,-4.0882,-4.0882,-4.0882,-4.0882,-4.0882,-4.0882,-4.0882,-4.0882,-4.0882,-4.0882,-4.0882,-4.0882,-4.0882,-4.0882,-4.0882,-4.0882,-4.0882,-4.0882,-4.0882,-4.0882,-4.0882,-4.0882,-4.0882,-4.0882,-4.0882,-4.0882,-4.0882,-4.0882,-4.0882,-4.0882,-4.0882,-4.0882,-4.0811,-4.0596,-4.031,-3.995,-3.9445,-3.9011,-4.0882,-4.0882,-4.0882,-4.0882,-4.0882,-4.0882,-4.0882,-4.0882,-4.0882,-4.0882,-4.0882,-4.0882,-4.0882,-4.0882,-4.0882,-4.0882,-4.0882,-4.0882,-4.0882,-4.0882,-4.0882,-4.0882,-4.0882,-4.0882,-4.0882,-4.0882,-4.0882,-4.0882,-4.0882,-4.0882,-4.0841,-4.0841,-4.0862,-4.0613,-4.0365,-4.0199,-3.9785,-3.9185,-3.8786,-3.8538,-3.8336,-3.8253,-3.8191,-3.8191,-3.8191,-3.8191,-3.8191,-3.8191,-3.8191,-3.8191,-3.8191,-3.8419,-3.8647,-3.8709,-3.8854,-4.0096,-3.9992,-4.0241,-4.0675,-4.0862,-4.0882,-4.0882,-4.0882,-4.0882,-4.0882,-4.0882,-4.0882,-4.0882,-4.0882,-4.0882,-4.0882,-4.0882,-4.0882,-4.0882,-4.0882,-4.0882,-4.0882,-4.0882,-4.0882,-4.0882,-4.0882,-4.0882,-4.0882,-4.0882,-4.0882,-4.0882,-4.0882,-4.0882,-4.0882,-4.0882,-4.0882,-4.0882,-4.0882,-4.0882,-4.0882,-4.0882,-4.0882,-4.0882,-4.0882,-4.0882,-4.0882,-4.0882,-4.0882,-4.0882,-4.0882,-4.0882,-4.0882,-4.0882,-4.0882,-4.0882,-4.0596,-4.0146,-3.9858,-3.9642,-3.9208,-4.0882,-4.0882,-4.0882,-4.0882,-4.0882,-4.0882,-4.0882,-4.0882,-4.0882,-4.0882,-4.0882,-4.0882,-4.0882,-4.0882,-4.0882,-4.0882,-4.0882,-4.0882,-4.0882,-4.0882,-4.0882,-4.0882,-4.0882,-4.0882,-4.0882,-4.0882,-4.0882,-4.0882,-4.0882,-4.0882,-4.0882,-4.0882,-4.0882,-4.0779,-4.0655,-4.0448,-4.0199,-3.9785,-3.9241,-3.8848,-3.8579,-3.8357,-3.8191,-3.8191,-3.8191,-3.8191,-3.8191,-3.8191,-3.8191,-3.8191,-3.8191,-3.844,-3.8724,-3.9081,-3.9558,-4.0054,-4.0365,-4.0551,-4.082,-4.0882,-4.0882,-4.0882,-4.0882,-4.0882,-4.0882,-4.0882,-4.0882,-4.0882,-4.0882,-4.0882,-4.0882,-4.0882,-4.0882,-4.0882,-4.0882,-4.0882,-4.0882,-4.0882,-4.0882,-4.0882,-4.0882,-4.0882,-4.0882,-4.0882,-4.0882,-4.0882,-4.0882,-4.0882,-4.0882,-4.0882,-4.0882,-4.0882,-4.0882,-4.0882,-4.0882,-4.0882,-4.0882,-4.0882,-4.0882,-4.0882,-4.0882,-4.0882,-4.0882,-4.0882,-4.0882,-4.0882,-4.0882,-4.0882,-4.0811,-4.074,-4.0289,-3.993,-3.9714,-3.9498,-3.9228,-4.0882,-4.0882,-4.0882,-4.0882,-4.0882,-4.0882,-4.0882,-4.0882,-4.0882,-4.0882,-4.0882,-4.0882,-4.0882,-4.0882,-4.0882,-4.0882,-4.0882,-4.0882,-4.0882,-4.0882,-4.0882,-4.0882,-4.0882,-4.0882,-4.0882,-4.0882,-4.0882,-4.0882,-4.0882,-4.0882,-4.0882,-4.0882,-4.0882,-4.0882,-4.0841,-4.0696,-4.0427,-4.0179,-3.9695,-3.922,-3.8807,-3.844,-3.8233,-3.8191,-3.8212,-3.8191,-3.8191,-3.8191,-3.8191,-3.8191,-3.8191,-3.844,-3.8765,-3.9241,-3.9744,-4.0158,-4.0448,-4.0655,-4.082,-4.0882,-4.0882,-4.0882,-4.0882,-4.0882,-4.0882,-4.0882,-4.0882,-4.0882,-4.0882,-4.0882,-4.0882,-4.0882,-4.0882,-4.0882,-4.0882,-4.0882,-4.0882,-4.0882,-4.0882,-4.0882,-4.0882,-4.0882,-4.0882,-4.0882,-4.0882,-4.0882,-4.0882,-4.0882,-4.0882,-4.0882,-4.0882,-4.0882,-4.0882,-4.0882,-4.0882,-4.0882,-4.0882,-4.0882,-4.0882,-4.0882,-4.0882,-4.0882,-4.0882,-4.0882,-4.0882,-4.0882,-4.0811,-4.074,-4.0668,-4.0525,-4.0146,-3.9786,-3.9642,-3.9373,-3.9083,-4.0882,-4.0882,-4.0882,-4.0882,-4.0882,-4.0882,-4.0882,-4.0882,-4.0882,-4.0882,-4.0882,-4.0882,-4.0882,-4.0882,-4.0882,-4.0882,-4.0882,-4.0882,-4.0882,-4.0882,-4.0882,-4.0882,-4.0882,-4.0882,-4.0882,-4.0882,-4.0882,-4.0882,-4.0882,-4.0882,-4.0882,-4.0882,-4.0882,-4.0882,-4.0862,-4.082,-4.0613,-4.0468,-4.022,-3.9695,-3.9102,-3.8667,-3.846,-3.846,-3.846,-3.8502,-3.8564,-3.8585,-3.8564,-3.8564,-3.8564,-3.8667,-3.8931,-3.9364,-3.9827,-4.0158,-4.0282,-4.0551,-4.0737,-4.0882,-4.0882,-4.0882,-4.0882,-4.0882,-4.0882,-4.0882,-4.0882,-4.0882,-4.0882,-4.0882,-4.0882,-4.0882,-4.0882,-4.0882,-4.0882,-4.0882,-4.0882,-4.0882,-4.0882,-4.0882,-4.0882,-4.0882,-4.0882,-4.0882,-4.0882,-4.0882,-4.0882,-4.0882,-4.0882,-4.0882,-4.0882,-4.0882,-4.0882,-4.0882,-4.0882,-4.0882,-4.0882,-4.0882,-4.0882,-4.0882,-4.0882,-4.0882,-4.0882,-4.0882,-4.0882,-4.0882,-4.074,-4.0668,-4.0596,-4.0453,-4.0002,-3.9786,-3.9642,-3.9301,-3.8938,-4.0882,-4.0882,-4.0882,-4.0882,-4.0882,-4.0882,-4.0882,-4.0882,-4.0882,-4.0882,-4.0882,-4.0882,-4.0882,-4.0882,-4.0882,-4.0882,-4.0882,-4.0882,-4.0882,-4.0882,-4.0882,-4.0882,-4.0882,-4.0882,-4.0882,-4.0882,-4.0882,-4.0882,-4.0882,-4.0882,-4.0882,-4.0882,-4.0882,-4.0882,-4.0882,-4.0882,-4.0841,-4.0737,-4.0427,-3.9902,-3.9468,-3.9351,-3.922,-3.9288,-3.9288,-3.9247,-3.9206,-3.9206,-3.9226,-3.9268,-3.9309,-3.9323,-3.9468,-3.9889,-4.0116,-4.0323,-4.0551,-4.082,-4.0862,-4.0882,-4.0882,-4.0882,-4.0882,-4.0882,-4.0882,-4.0882,-4.0882,-4.0882,-4.0882,-4.0882,-4.0882,-4.0882,-4.0882,-4.0882,-4.0882,-4.0882,-4.0882,-4.0882,-4.0882,-4.0882,-4.0882,-4.0882,-4.0882,-4.0882,-4.0882,-4.0882,-4.0882,-4.0882,-4.0882,-4.0882,-4.0882,-4.0882,-4.0882,-4.0882,-4.0882,-4.0882,-4.0882,-4.0882,-4.0882,-4.0882,-4.0882,-4.0882,-4.0882,-4.0882,-4.0882,-4.0882,-4.0811,-4.074,-4.0668,-4.0453,-4.0074,-3.9858,-3.9714,-3.9373,-3.9011,-4.0882,-4.0882,-4.0882,-4.0882,-4.0882,-4.0882,-4.0882,-4.0882,-4.0882,-4.0882,-4.0882,-4.0882,-4.0882,-4.0882,-4.0882,-4.0882,-4.0882,-4.0882,-4.0882,-4.0882,-4.0882,-4.0882,-4.0882,-4.0882,-4.0882,-4.0882,-4.0882,-4.0882,-4.0882,-4.0882,-4.0882,-4.0882,-4.0882,-4.0882,-4.0882,-4.0882,-4.0882,-4.0737,-4.0468,-4.0158,-3.9909,-3.9633,-3.9488,-3.9488,-3.9488,-3.9509,-3.9509,-3.9468,-3.9468,-3.9468,-3.9468,-3.9612,-3.9819,-4.0137,-4.0303,-4.0613,-4.0758,-4.0862,-4.0882,-4.0882,-4.0882,-4.0882,-4.0882,-4.0882,-4.0882,-4.0882,-4.0882,-4.0882,-4.0882,-4.0882,-4.0882,-4.0882,-4.0882,-4.0882,-4.0882,-4.0882,-4.0882,-4.0882,-4.0882,-4.0882,-4.0882,-4.0882,-4.0882,-4.0882,-4.0882,-4.0882,-4.0882,-4.0882,-4.0882,-4.0882,-4.0882,-4.0882,-4.0882,-4.0882,-4.0882,-4.0882,-4.0882,-4.0882,-4.0882,-4.0882,-4.0882,-4.0882,-4.0882,-4.0882,-4.0882,-4.0882,-4.0882,-4.074,-4.0596,-4.0382,-4.0146,-4.0002,-3.993,-3.9714,-3.9373,-4.0882,-4.0882,-4.0882,-4.0882,-4.0882,-4.0882,-4.0882,-4.0882,-4.0882,-4.0882,-4.0882,-4.0882,-4.0882,-4.0882,-4.0882,-4.0882,-4.0882,-4.0882,-4.0882,-4.0882,-4.0882,-4.0882,-4.0882,-4.0882,-4.0882,-4.0882,-4.0882,-4.0882,-4.0882,-4.0882,-4.0882,-4.0882,-4.0882,-4.0882,-4.0882,-4.0882,-4.0882,-4.0841,-4.0593,-4.0427,-4.0344,-4.0096,-3.9972,-3.9909,-3.9889,-3.9868,-3.9868,-3.9909,-3.9909,-3.993,-3.9951,-4.0137,-4.0365,-4.0448,-4.0551,-4.0779,-4.0862,-4.0862,-4.0882,-4.0882,-4.0882,-4.0882,-4.0882,-4.0882,-4.0882,-4.0882,-4.0882,-4.0882,-4.0882,-4.0882,-4.0882,-4.0882,-4.0882,-4.0882,-4.0882,-4.0882,-4.0882,-4.0882,-4.0882,-4.0882,-4.0882,-4.0882,-4.0882,-4.0882,-4.0882,-4.0882,-4.0882,-4.0882,-4.0882,-4.0882,-4.0882,-4.0882,-4.0882,-4.0882,-4.0882,-4.0882,-4.0882,-4.0882,-4.0882,-4.0882,-4.0882,-4.0882,-4.0882,-4.0882,-4.0882,-4.0882,-4.0882,-4.0668,-4.0525,-4.0453,-4.0453,-4.031,-4.0166,-3.993,-3.957,-4.0882,-4.0882,-4.0882,-4.0882,-4.0882,-4.0882,-4.0882,-4.0882,-4.0882,-4.0882,-4.0882,-4.0882,-4.0882,-4.0882,-4.0882,-4.0882,-4.0882,-4.0882,-4.0882,-4.0882,-4.0882,-4.0882,-4.0882,-4.0882,-4.0882,-4.0882,-4.0882,-4.0882,-4.0882,-4.0882,-4.0882,-4.0882,-4.0882,-4.0882,-4.0882,-4.0882,-4.0882,-4.0862,-4.0758,-4.0758,-4.0758,-4.0696,-4.0675,-4.0696,-4.0737,-4.0779,-4.0758,-4.0655,-4.0613,-4.0613,-4.0593,-4.0593,-4.0696,-4.0717,-4.08,-4.0841,-4.0882,-4.0882,-4.0882,-4.0882,-4.0882,-4.0882,-4.0882,-4.0882,-4.0882,-4.0882,-4.0882,-4.0882,-4.0882,-4.0882,-4.0882,-4.0882,-4.0882,-4.0882,-4.0882,-4.0882,-4.0882,-4.0882,-4.0882,-4.0882,-4.0882,-4.0882,-4.0882,-4.0882,-4.0882,-4.0882,-4.0882,-4.0882,-4.0882,-4.0882,-4.0882,-4.0882,-4.0882,-4.0882,-4.0882,-4.0882,-4.0882,-4.0882,-4.0882,-4.0882,-4.0882,-4.0882,-4.0882,-4.0882,-4.0882,-4.0882,-4.0882,-4.0811,-4.074,-4.074,-4.0668,-4.0596,-4.0382,-4.0146,-3.9642,-4.0882,-4.0882,-4.0882,-4.0882,-4.0882,-4.0882,-4.0882,-4.0882,-4.0882,-4.0882,-4.0882,-4.0882,-4.0882,-4.0882,-4.0882,-4.0882,-4.0882,-4.0882,-4.0882,-4.0882,-4.0882,-4.0882,-4.0882,-4.0882,-4.0882,-4.0882,-4.0882,-4.0882,-4.0882,-4.0882,-4.0882,-4.0882,-4.0882,-4.0882,-4.0882,-4.0882,-4.0882,-4.0882,-4.0882,-4.0882,-4.0882,-4.0882,-4.0882,-4.0882,-4.0882,-4.0882,-4.0862,-4.0862,-4.0882,-4.0882,-4.0882,-4.0882,-4.0882,-4.0882,-4.0882,-4.0882,-4.0882,-4.0882,-4.0882,-4.0882,-4.0882,-4.0882,-4.0882,-4.0882,-4.0882,-4.0882,-4.0882,-4.0882,-4.0882,-4.0882,-4.0882,-4.0882,-4.0882,-4.0882,-4.0882,-4.0882,-4.0882,-4.0882,-4.0882,-4.0882,-4.0882,-4.0882,-4.0882,-4.0882,-4.0882,-4.0882,-4.0882,-4.0882,-4.0882,-4.0882,-4.0882,-4.0882,-4.0882,-4.0882,-4.0882,-4.0882,-4.0882,-4.0882,-4.0882,-4.0882,-4.0882,-4.0882,-4.0882,-4.0882,-4.0882,-4.0882,-4.0882,-4.0882,-4.0882,-4.0811,-4.0811,-4.0811,-4.0596,-4.0382,-3.9878,-4.0882,-4.0882,-4.0882,-4.0882,-4.0882,-4.0882,-4.0882,-4.0882,-4.0882,-4.0882,-4.0882,-4.0882,-4.0882,-4.0882,-4.0882,-4.0882,-4.0882,-4.0882,-4.0882,-4.0882,-4.0882,-4.0882,-4.0882,-4.0882,-4.0882,-4.0882,-4.0882,-4.0882,-4.0882,-4.0882,-4.0882,-4.0882,-4.0882,-4.0882,-4.0882,-4.0882,-4.0882,-4.0882,-4.0882,-4.0882,-4.0882,-4.0882,-4.0882,-4.0882,-4.0882,-4.0882,-4.0882,-4.0882,-4.0882,-4.0882,-4.0882,-4.0882,-4.0882,-4.0882,-4.0882,-4.0882,-4.0882,-4.0882,-4.0882,-4.0882,-4.0882,-4.0882,-4.0882,-4.0882,-4.0882,-4.0882,-4.0882,-4.0882,-4.0882,-4.0882,-4.0882,-4.0882,-4.0882,-4.0882,-4.0882,-4.0882,-4.0882,-4.0882,-4.0882,-4.0882,-4.0882,-4.0882,-4.0882,-4.0882,-4.0882,-4.0882,-4.0882,-4.0882,-4.0882,-4.0882,-4.0882,-4.0882,-4.0882,-4.0882,-4.0882,-4.0882,-4.0882,-4.0882,-4.0882,-4.0882,-4.0882,-4.0882,-4.0882,-4.0882,-4.0882,-4.0882,-4.0882,-4.0882,-4.0882,-4.0882,-4.0882,-4.0882,-4.0596,-4.031,-4.0166,-4.0882,-4.0882,-4.0882,-4.0882,-4.0882,-4.0882,-4.0882,-4.0882,-4.0882,-4.0882,-4.0882,-4.0882,-4.0882,-4.0882,-4.0882,-4.0882,-4.0882,-4.0882,-4.0882,-4.0882,-4.0882,-4.0882,-4.0882,-4.0882,-4.0882,-4.0882,-4.0882,-4.0882,-4.0882,-4.0882,-4.0882,-4.0882,-4.0882,-4.0882,-4.0882,-4.0882,-4.0882,-4.0882,-4.0882,-4.0882,-4.0882,-4.0882,-4.0882,-4.0882,-4.0882,-4.0882,-4.0882,-4.0882,-4.0882,-4.0882,-4.0882,-4.0882,-4.0882,-4.0882,-4.0882,-4.0882,-4.0882,-4.0882,-4.0882,-4.0882,-4.0882,-4.0882,-4.0882,-4.0882,-4.0882,-4.0882,-4.0882,-4.0882,-4.0882,-4.0882,-4.0882,-4.0882,-4.0882,-4.0882,-4.0882,-4.0882,-4.0882,-4.0882,-4.0882,-4.0882,-4.0882,-4.0882,-4.0882,-4.0882,-4.0882,-4.0882,-4.0882,-4.0882,-4.0882,-4.0882,-4.0882,-4.0882,-4.0882,-4.0882,-4.0882,-4.0882,-4.0882,-4.0882,-4.0882,-4.0882,-4.0882,-4.0882,-4.0882,-4.0882,-4.0882,-4.0882,-4.0882,-4.0882,-4.0882,-4.0882,-4.0882,-4.0811,-4.0525,-4.0382,-4.031,-4.0882,-4.0882,-4.0882,-4.0882,-4.0882,-4.0882,-4.0882,-4.0882,-4.0882,-4.0882,-4.0882,-4.0882,-4.0882,-4.0882,-4.0882,-4.0882,-4.0882,-4.0882,-4.0882,-4.0882,-4.0882,-4.0882,-4.0882,-4.0882,-4.0882,-4.0882,-4.0882,-4.0882,-4.0882,-4.0882,-4.0882,-4.0882,-4.0882,-4.0882,-4.0882,-4.0882,-4.0882,-4.0882,-4.0882,-4.0882,-4.0882,-4.0882,-4.0882,-4.0882,-4.0882,-4.0882,-4.0882,-4.0882,-4.0882,-4.0882,-4.0882,-4.0882,-4.0882,-4.0882,-4.0882,-4.0882,-4.0882,-4.0882,-4.0882,-4.0882,-4.0882,-4.0882,-4.0882,-4.0882,-4.0882,-4.0882,-4.0882,-4.0882,-4.0882,-4.0882,-4.0882,-4.0882,-4.0882,-4.0882,-4.0882,-4.0882,-4.0882,-4.0882,-4.0882,-4.0882,-4.0882,-4.0882,-4.0882,-4.0882,-4.0882,-4.0882,-4.0882,-4.0882,-4.0882,-4.0882,-4.0882,-4.0882,-4.0882,-4.0882,-4.0882,-4.0882,-4.0882,-4.0882,-4.0882,-4.0882,-4.0882,-4.0882,-4.0882,-4.0882,-4.0882,-4.0882,-4.0882,-4.0882,-4.0882,-4.0882,-4.0882,-4.0882,-4.074,-4.0668,-4.074,-4.0882,-4.0882,-4.0882,-4.0882,-4.0882,-4.0882,-4.0882,-4.0882,-4.0882,-4.0882,-4.0882,-4.0882,-4.0882,-4.0882,-4.0882,-4.0882,-4.0882,-4.0882,-4.0882,-4.0882,-4.0882,-4.0882,-4.0882,-4.0882,-4.0882,-4.0882,-4.0882,-4.0882,-4.0882,-4.0882,-4.0882,-4.0882,-4.0882,-4.0882,-4.0882,-4.0882,-4.0882,-4.0882,-4.0882,-4.0882,-4.0882,-4.0882,-4.0882,-4.0882,-4.0882,-4.0882,-4.0882,-4.0882,-4.0882,-4.0882,-4.0882,-4.0882,-4.0882,-4.0882,-4.0882,-4.0882,-4.0882,-4.0882,-4.0882,-4.0882,-4.0882,-4.0882,-4.0882,-4.0882,-4.0882,-4.0882,-4.0882,-4.0882,-4.0882,-4.0882,-4.0882,-4.0882,-4.0882,-4.0882,-4.0882,-4.0882,-4.0882,-4.0882,-4.0882,-4.0882,-4.0882,-4.0882,-4.0882,-4.0882,-4.0882,-4.0882,-4.0882,-4.0882,-4.0882,-4.0882,-4.0882,-4.0882,-4.0882,-4.0882,-4.0882,-4.0882,-4.0882,-4.0882,-4.0882,-4.0882,-4.0882,-4.0882,-4.0882,-4.0882,-4.0882,-4.0882,-4.0882,-4.0882,-4.0882,-4.0882,-4.0882,-4.0882,-4.0882,-4.0882,-4.0882,-4.0882,-4.0882,-4.0882,-4.0882,-4.0882,-4.0882,-4.0882,-4.0882,-4.0882,-4.0882,-4.0882,-4.0882,-4.0882,-4.0882,-4.0882,-4.0882,-4.0882,-4.0882,-4.0882,-4.0882,-4.0882,-4.0882,-4.0882,-4.0882,-4.0882,-4.0882,-4.0882,-4.0882,-4.0882,-4.0882,-4.0882,-4.0882,-4.0882,-4.0882,-4.0882,-4.0882,-4.0882,-4.0882,-4.0882,-4.0882,-4.0882,-4.0882,-4.0882,-4.0882,-4.0882,-4.0882,-4.0882,-4.0882,-4.0882,-4.0882,-4.0882,-4.0882,-4.0882,-4.0882,-4.0882,-4.0882,-4.0882,-4.0882,-4.0882,-4.0882,-4.0882,-4.0882,-4.0882,-4.0882,-4.0882,-4.0882,-4.0882,-4.0882,-4.0882,-4.0882,-4.0882,-4.0882,-4.0882,-4.0882,-4.0882,-4.0882,-4.0882,-4.0882,-4.0882,-4.0882,-4.0882,-4.0882,-4.0882,-4.0882,-4.0882,-4.0882,-4.0882,-4.0882,-4.0882,-4.0882,-4.0882,-4.0882,-4.0882,-4.0882,-4.0882,-4.0882,-4.0882,-4.0882,-4.0882,-4.0882,-4.0882,-4.0882,-4.0882,-4.0882,-4.0882,-4.0882,-4.0882,-4.0882,-4.0882,-4.0882,-4.0882,-4.0882,-4.0882,-4.0882,-4.0882,-4.0882,-4.0882,-4.0882,-4.0882,-4.0882,-4.0882,-4.0882,-4.0882,-4.0882,-4.0882,-4.0882,-4.0882,-4.0882,-4.0882,-4.0882,-4.0882,-4.0882,-4.0882,-4.0882,-4.0882,-4.0882,-4.0882,-4.0882,-4.0882,-4.0882,-4.0882,-4.0882,-4.0882,-4.0882,-4.0882,-4.0882,-4.0882,-4.0882,-4.0882,-4.0882,-4.0882,-4.0882,-4.0882,-4.0882,-4.0882,-4.0882,-4.0882,-4.0882,-4.0882,-4.0882,-4.0882,-4.0882,-4.0882,-4.0882,-4.0882,-4.0882,-4.0882,-4.0882,-4.0882,-4.0882,-4.0882,-4.0882,-4.0882,-4.0882,-4.0882,-4.0882,-4.0882,-4.0882,-4.0882,-4.0882,-4.0882,-4.0882,-4.0882,-4.0882,-4.0882,-4.0882,-4.0882,-4.0882,-4.0882,-4.0882,-4.0882,-4.0882,-4.0882,-4.0882,-4.0882,-4.0882,-4.0882,-4.0882,-4.0882,-4.0882,-4.0882,-4.0882,-4.0882,-4.0882,-4.0882,-4.0882,-4.0882,-4.0882,-4.0882,-4.0882,-4.0882,-4.0882,-4.0882,-4.0882,-4.0882,-4.0882,-4.0882,-4.0882,-4.0882,-4.0882,-4.0882,-4.0882,-4.0882,-4.0882,-4.0882,-4.0882,-4.0882,-4.0882,-4.0882,-4.0882,-4.0882,-4.0882,-4.0882,-4.0882,-4.0882,-4.0882,-4.0882,-4.0882,-4.0882,-4.0882,-4.0882,-4.0882,-4.0882,-4.0882,-4.0882,-4.0882,-4.0882,-4.0882,-4.0882,-4.0882,-4.0882,-4.0882,-4.0882,-4.0882,-4.0882,-4.0882,-4.0882,-4.0882,-4.0882,-4.0882,-4.0882,-4.0882,-4.0882,-4.0882,-4.0882,-4.0882,-4.0882,-4.0882,-4.0882,-4.0882,-4.0882,-4.0882,-4.0882,-4.0882,-4.0882,-4.0882,-4.0882,-4.0882,-4.0882,-4.0882,-4.0882,-4.0882,-4.0882,-4.0882,-4.0882,-4.0882,-4.0882,-4.0882,-4.0882,-4.0882,-4.0882,-4.0882,-4.0882,-4.0882,-4.0882,-4.0882,-4.0882,-4.0882,-4.0882,-4.0882,-4.0882,-4.0882,-4.0882,-4.0882,-4.0882,-4.0882,-4.0882,-4.0882,-4.0882,-4.0882,-4.0882,-4.0882,-4.0882,-4.0882,-4.0882,-4.0882,-4.0882,-4.0882,-4.0882,-4.0882,-4.0882,-4.0882,-4.0882,-4.0882,-4.0882,-4.0882,-4.0882,-4.0882,-4.0882,-4.0882,-4.0882,-4.0882,-4.0882,-4.0882,-4.0882,-4.0882,-4.0882,-4.0882,-4.0882,-4.0882,-4.0882,-4.0882,-4.0882,-4.0882,-4.0811,-4.0882,-4.0882,-4.0882,-4.0882,-4.0882,-4.0882,-4.0882,-4.0882,-4.0882,-4.0882,-4.0882,-4.0882,-4.0882,-4.0882,-4.0882,-4.0882,-4.0882,-4.0882,-4.0882,-4.0882,-4.0882,-4.0882,-4.0882,-4.0882,-4.0882,-4.0882,-4.0882,-4.0882,-4.0882,-4.0882,-4.0882,-4.0882,-4.0882,-4.0882,-4.0882,-4.0882,-4.0882,-4.0882,-4.0882,-4.0882,-4.0882,-4.0882,-4.0882,-4.0882,-4.0882,-4.0882,-4.0882,-4.0882,-4.0882,-4.0882,-4.0882,-4.0882,-4.0882,-4.0882,-4.0882,-4.0882,-4.0882,-4.0882,-4.0882,-4.0882,-4.0882,-4.0882,-4.0882,-4.0882,-4.0882,-4.0882,-4.0882,-4.0882,-4.0882,-4.0882,-4.0882,-4.0882,-4.0882,-4.0882,-4.0882,-4.0882,-4.0882,-4.0882,-4.0882,-4.0882,-4.0882,-4.0882,-4.0882,-4.0882,-4.0882,-4.0882,-4.0882,-4.0882,-4.0882,-4.0882,-4.0882,-4.0882,-4.0882,-4.0882,-4.0882,-4.0882,-4.0882,-4.0882,-4.0882,-4.0882,-4.0882,-4.0882,-4.0882,-4.0882,-4.0882,-4.0882,-4.0882,-4.0882,-4.0882,-4.0882,-4.0882,-4.0882,-4.0882,-4.0882,-4.074,-4.0882,-4.0882,-4.0882,-4.0882,-4.0882,-4.0882,-4.0882,-4.0882,-4.0882,-4.0882,-4.0882,-4.0882,-4.0882,-4.0882,-4.0882,-4.0882,-4.0882,-4.0882,-4.0882,-4.0882,-4.0882,-4.0882,-4.0882,-4.0882,-4.0882,-4.0882,-4.0882,-4.0882,-4.0882,-4.0882,-4.0882,-4.0882,-4.0882,-4.0882,-4.0882,-4.0882,-4.0882,-4.0882,-4.0882,-4.0882,-4.0882,-4.0882,-4.0882,-4.0882,-4.0882,-4.0882,-4.0882,-4.0882,-4.0882,-4.0882,-4.0882,-4.0882,-4.0882,-4.0882,-4.0882,-4.0882,-4.0882,-4.0882,-4.0882,-4.0882,-4.0882,-4.0882,-4.0882,-4.0882,-4.0882,-4.0882,-4.0882,-4.0882,-4.0882,-4.0882,-4.0882,-4.0882,-4.0882,-4.0882,-4.0882,-4.0882,-4.0882,-4.0882,-4.0882,-4.0882,-4.0882,-4.0882,-4.0882,-4.0882,-4.0882,-4.0882,-4.0882,-4.0882,-4.0882,-4.0882,-4.0882,-4.0882,-4.0882,-4.0882,-4.0882,-4.0882,-4.0882,-4.0882,-4.0882,-4.0882,-4.0882,-4.0882,-4.0882,-4.0882,-4.0882,-4.0882,-4.0882,-4.0882,-4.0882,-4.0882,-4.0882,-4.0882,-4.0882,-4.0882,-4.0668,-4.0882,-4.0882,-4.0882,-4.0882,-4.0882,-4.0882,-4.0882,-4.0882,-4.0882,-4.0882,-4.0882,-4.0882,-4.0882,-4.0882,-4.0882,-4.0882,-4.0882,-4.0882,-4.0882,-4.0882,-4.0882,-4.0882,-4.0882,-4.0882,-4.0882,-4.0882,-4.0882,-4.0882,-4.0882,-4.0882,-4.0882,-4.0882,-4.0882,-4.0882,-4.0882,-4.0882,-4.0882,-4.0882,-4.0882,-4.0882,-4.0882,-4.0882,-4.0882,-4.0882,-4.0882,-4.0882,-4.0882,-4.0882,-4.0882,-4.0882,-4.0882,-4.0882,-4.0882,-4.0882,-4.0882,-4.0882,-4.0882,-4.0882,-4.0882,-4.0882,-4.0882,-4.0882,-4.0882,-4.0882,-4.0882,-4.0882,-4.0882,-4.0882,-4.0882,-4.0882,-4.0882,-4.0882,-4.0882,-4.0882,-4.0882,-4.0882,-4.0882,-4.0882,-4.0882,-4.0882,-4.0882,-4.0882,-4.0882,-4.0882,-4.0882,-4.0882,-4.0882,-4.0882,-4.0882,-4.0882,-4.0882,-4.0882,-4.0882,-4.0882,-4.0882,-4.0882,-4.0882,-4.0882,-4.0882,-4.0882,-4.0882,-4.0882,-4.0882,-4.0882,-4.0882,-4.0882,-4.0882,-4.0882,-4.0882,-4.0882,-4.0882,-4.0882,-4.0882,-4.0811,-4.0596,-4.0882,-4.0882,-4.0882,-4.0882,-4.0882,-4.0882,-4.0882,-4.0882,-4.0882,-4.0882,-4.0882,-4.0882,-4.0882,-4.0882,-4.0882,-4.0882,-4.0882,-4.0882,-4.0882,-4.0882,-4.0882,-4.0882,-4.0882,-4.0882,-4.0882,-4.0882,-4.0882,-4.0882,-4.0882,-4.0882,-4.0882,-4.0882,-4.0882,-4.0882,-4.0882,-4.0882,-4.0882,-4.0882,-4.0882,-4.0882,-4.0882,-4.0882,-4.0882,-4.0882,-4.0882,-4.0882,-4.0882,-4.0882,-4.0882,-4.0882,-4.0882,-4.0882,-4.0882,-4.0882,-4.0882,-4.0882,-4.0882,-4.0882,-4.0882,-4.0882,-4.0882,-4.0882,-4.0882,-4.0882,-4.0882,-4.0882,-4.0882,-4.0882,-4.0882,-4.0882,-4.0882,-4.0882,-4.0882,-4.0882,-4.0882,-4.0882,-4.0882,-4.0882,-4.0882,-4.0882,-4.0882,-4.0882,-4.0882,-4.0882,-4.0882,-4.0882,-4.0882,-4.0882,-4.0882,-4.0882,-4.0882,-4.0882,-4.0882,-4.0882,-4.0882,-4.0882,-4.0882,-4.0882,-4.0882,-4.0882,-4.0882,-4.0882,-4.0882,-4.0882,-4.0882,-4.0882,-4.0882,-4.0882,-4.0882,-4.0882,-4.0882,-4.0882,-4.0882,-4.0811,-4.0596,-4.0882,-4.0882,-4.0882,-4.0882,-4.0882,-4.0882,-4.0882,-4.0882,-4.0882,-4.0882,-4.0882,-4.0882,-4.0882,-4.0882,-4.0882,-4.0882,-4.0882,-4.0882,-4.0882,-4.0882,-4.0882,-4.0882,-4.0882,-4.0882,-4.0882,-4.0882,-4.0882,-4.0882,-4.0882,-4.0882,-4.0882,-4.0882,-4.0882,-4.0882,-4.0882,-4.0882,-4.0882,-4.0882,-4.0882,-4.0882,-4.0882,-4.0882,-4.0882,-4.0882,-4.0882,-4.0882,-4.0882,-4.0882,-4.0882,-4.0882,-4.0882,-4.0882,-4.0882,-4.0882,-4.0882,-4.0882,-4.0882,-4.0882,-4.0882,-4.0882,-4.0882,-4.0882,-4.0882,-4.0882,-4.0882,-4.0882,-4.0882,-4.0882,-4.0882,-4.0882,-4.0882,-4.0882,-4.0882,-4.0882,-4.0882,-4.0882,-4.0882,-4.0882,-4.0882,-4.0882,-4.0882,-4.0882,-4.0882,-4.0882,-4.0882,-4.0882,-4.0882,-4.0882,-4.0882,-4.0882,-4.0882,-4.0882,-4.0882,-4.0882,-4.0882,-4.0882,-4.0882,-4.0882,-4.0882,-4.0882,-4.0882,-4.0882,-4.0882,-4.0882,-4.0882,-4.0882,-4.0882,-4.0882,-4.0882,-4.0882,-4.0882,-4.0882,-4.0882,-4.0811,-4.0668]},{"header":{"parameterUnit":"m.s-1","parameterCategory":1,"la1":31.0,"la2":29.5877,"lo1":-88.7671,"lo2":-86.6584,"dy":0.0162,"dx":0.0185,"nx":115,"ny":88,"refTime":"2024-06-21T18:00:00:Z","depth":0,"parameterNumber":3,"parameterNumberName":"V-component_of_WINDS"},"data":[0.0,0.0,0.0,0.0,0.0,0.0,0.0,0.0,0.0,0.0,0.0,0.0,0.0,0.0,0.0,0.0,0.0,0.0,0.0,0.0,0.0,0.0,0.0,0.0,0.0,0.0,0.0,0.0,0.0,0.0,0.0,0.0,0.0,0.0,0.0,0.0,0.0,0.0,0.0,0.0,0.0,0.0,0.0,0.0,0.0,0.0,0.0,0.0,0.0,0.0,0.0,0.0,0.0,0.0,0.0,0.0,0.0,0.0,0.0,0.0,0.0,0.0,0.0,0.0,0.0,0.0,0.0,0.0,0.0,0.0,0.0,0.0,0.0,0.0,0.0,0.0,0.0,0.0,0.0,0.0,0.0,0.0,0.0,0.0,0.0,0.0,0.0,0.0,0.0,0.0,0.0,0.0,0.0,0.0,0.0,0.0,0.0,0.0,0.0,0.0,0.0,0.0,0.0,0.0,0.0,0.0,0.0,0.0,0.0,0.0,0.0,0.0,0.0,0.0,0.0,0.0,0.0,0.0,0.0,0.0,0.0,0.0,0.0,0.0,0.0,0.0,0.0,0.0,0.0,0.0,0.0,0.0,0.0,0.0,0.0,0.0,0.0,0.0,0.0,0.0,0.0,0.0,0.0,0.0,0.0,0.0,0.0,0.0,0.0,0.0,0.0,0.0,0.0,0.0,0.0,0.0,0.0,0.0,0.0,0.0,0.0,0.0,0.0,0.0,0.0,0.0,0.0,0.0,0.0,0.0,0.0,0.0,0.0,0.0,0.0,0.0,0.0,0.0,0.0,0.0,0.0,0.0,0.0,0.0,0.0,0.0,0.0,0.0,0.0,0.0,0.0,0.0,0.0,0.0,0.0,0.0,0.0,0.0,0.0,0.0,0.0,0.0,0.0,0.0,0.0,0.0,0.0,0.0,0.0,0.0,0.0,0.0,0.0,0.0,0.0,0.0,0.0,0.0,0.0,0.0,0.0,0.0,0.0,0.0,0.0,0.0,0.0,0.0,0.0,0.0,0.0,0.0,0.0,0.0,0.0,0.0,0.0,0.0,0.0,0.0,0.0,0.0,0.0,0.0,0.0,0.0,0.0,0.0,0.0,0.0,0.0,0.0,0.0,0.0,0.0,0.0,0.0,0.0,0.0,0.0,0.0,0.0,0.0,0.0,0.0,0.0,0.0,0.0,0.0,0.0,0.0,0.0,0.0,0.0,0.0,0.0,0.0,0.0,0.0,0.0,0.0,0.0,0.0,0.0,0.0,0.0,0.0,0.0,0.0,0.0,0.0,0.0,0.0,0.0,0.0,0.0,0.0,0.0,0.0,0.0,0.0,0.0,0.0,0.0,0.0,0.0,0.0,0.0,0.0,0.0,0.0,0.0,0.0,0.0,0.0,0.0,0.0,0.0,0.0,0.0,0.0,0.0,0.0,0.0,0.0,0.0,0.0,0.0,0.0,0.0,0.0,0.0,0.0,0.0,0.0,0.0,0.0,0.0,0.0,0.0,0.0,0.0,0.0,0.0,0.0,0.0,0.0,0.0,0.0,0.0,0.0,0.0,0.0,0.0,0.0,0.0,0.0,0.0,0.0,0.0,0.0,0.0,0.0,0.0,0.0,0.0,0.0,0.0,0.0,0.0,0.0,0.0,0.0,0.0,0.0,0.0,0.0,0.0,0.0,0.0,0.0,0.0,0.0,0.0,0.0,0.0,0.0,0.0,0.0,0.0,0.0,0.0,0.0,0.0,0.0,0.0,0.0,0.0,0.0,0.0,0.0,0.0,0.0,0.0,0.0,0.0,0.0,0.0,0.0,0.0,0.0,0.0,0.0,0.0,0.0,0.0,0.0,0.0,0.0,0.0,0.0,0.0,0.0,0.0,0.0,0.0,0.0,0.0,0.0,0.0,0.0,0.0,0.0,0.0,0.0,0.0,0.0,0.0,0.0,0.0,0.0,0.0,0.0,0.0,0.0,0.0,0.0,0.0,0.0,0.0,0.0,0.0,0.0,0.0,0.0,0.0,0.0,0.0,0.0,0.0,0.0,0.0,0.0,0.0,0.0,0.0,0.0,0.0,0.0,0.0,0.0,0.0,0.0,0.0,0.0,0.0,0.0,0.0,0.0,0.0,0.0,0.0,0.0,0.0,0.0,0.0,0.0,0.0,0.0,0.0,0.0,0.0,0.0,0.0,0.0,0.0,0.0,0.0,0.0,0.0,0.0,0.0,0.0,0.0,0.0,0.0,0.0,0.0,0.0,0.0,0.0,0.0,0.0,0.0,0.0,0.0,0.0,0.0,0.0,0.0,0.0,0.0,0.0,0.0,0.0,0.0,0.0,0.0,0.0,0.0,0.0,0.0,0.0,0.0,0.0,0.0,0.0,0.0,0.0,0.0,0.0,0.0,0.0,0.0,0.0,0.0,0.0,0.0,0.0,0.0,0.0,0.0,0.0,0.0,0.0,0.0,0.0,0.0,0.0,0.0,0.0,0.0,0.0,0.0,0.0,0.0,0.0,0.0,0.0,0.0,0.0,0.0,0.0,0.0,0.0,0.0,0.0,0.0,0.0,0.0,0.0,0.0,0.0,0.0,0.0,0.0,0.0,0.0,0.0,0.0,0.0,0.0,0.0,0.0,0.0,0.0,0.0,0.0,0.0,0.0,0.0,0.0,0.0,0.0,0.0,0.0,0.0,0.0,0.0,0.0,0.0,0.0,0.0,0.0,0.0,0.0,0.0,0.0,0.0,0.0,0.0,0.0,0.0,0.0,0.0,0.0,0.0,0.0,0.0,0.0,0.0,0.0,0.0,0.0,0.0,0.0,0.0,0.0,0.0,0.0,0.0,0.0,0.0,0.0,0.0,0.0,0.0,0.0,0.0,0.0,0.0,0.0,0.0,0.0,0.0,0.0,0.0,0.0,0.0,0.0,0.0,0.0,0.0,0.0,0.0,0.0,0.0,0.0,0.0,0.0,0.0,0.0,0.0,0.0,0.0,0.0,0.0,0.0,0.0,0.0,0.0,0.0,0.0,0.0,0.0,0.0,0.0,0.0,0.0,0.0,0.0,0.0,0.0,0.0,0.0,0.0,0.0,0.0,0.0,0.0,0.0,0.0,0.0,0.0,0.0,0.0,0.0,0.0,0.0,0.0,0.0,0.0,0.0,0.0,0.0,0.0,0.0,0.0,0.0,0.0,0.0,0.0,0.0,0.0,0.0,0.0,0.0,0.0,0.0,0.0,0.0,0.0,0.0,0.0,0.0,0.0,0.0,0.0,0.0,0.0,0.0,0.0,0.0,0.0,0.0,0.0,0.0,0.0,0.0,0.0,0.0,0.0,0.0,0.0,0.0,0.0,0.0,0.0,0.0,0.0,0.0,0.0,0.0,0.0,0.0,0.0,0.0,0.0,0.0,0.0,0.0,0.0,0.0,0.0,0.0,0.0,0.0,0.0,0.0,0.0,0.0,0.0,0.0,0.0,0.0,0.0,0.0,0.0,0.0,0.0,0.0,0.0,0.0,0.0,0.0,0.0,0.0,0.0,0.0,0.0,0.0,0.0,0.0,0.0,0.0,0.0,0.0,0.0,0.0,0.0,0.0,0.0,0.0,0.0,0.0,0.0,0.0,0.0,0.0,0.0,0.0,0.0,0.0,0.0,0.0,0.0,0.0,0.0,0.0,0.0,0.0,0.0,0.0,0.0,0.0,0.0,0.0,0.0,0.0,0.0,0.0,0.0,0.0,0.0,0.0,0.0,0.0,0.0,0.0,0.0,0.0,0.0,0.0,0.0,0.0,0.0,0.0,0.0,0.0,0.0,0.0,0.0,0.0,0.0,0.0,0.0,0.0,0.0,0.0,0.0,0.0,0.0,0.0,0.0,0.0,0.0,0.0,0.0,0.0,0.0,0.0,0.0,0.0,0.0,0.0,0.0,0.0,0.0,0.0,0.0,0.0,0.0,0.0,0.0,0.0,0.0,0.0,0.0,0.0,0.0,0.0,0.0,0.0,0.0,0.0,0.0,0.0,0.0,0.0,0.0,0.0,0.0,0.0,0.0,0.0,0.0,0.0,0.0,0.0,0.0,0.0,0.0,0.0,0.0,0.0,0.0,0.0,0.0,0.0,0.0,0.0,0.0,0.0,0.0,0.0,0.0,0.0,0.0,0.0,0.0,0.0,0.0,0.0,0.0,0.0,0.0,0.0,0.0,0.0,0.0,0.0,0.0,0.0,0.0,0.0,0.0,0.0,0.0,0.0,0.0,0.0,0.0,0.0,0.0,0.0,0.0,-1.4355,0.0,0.0,0.0,0.0,0.0,0.0,0.0,0.0,0.0,0.0,0.0,0.0,0.0,0.0,0.0,0.0,0.0,0.0,0.0,0.0,0.0,0.0,0.0,0.0,0.0,0.0,0.0,0.0,0.0,0.0,0.0,0.0,0.0,0.0,0.0,0.0,0.0,0.0,0.0,0.0,0.0,0.0,0.0,0.0,0.0,0.0,0.0,0.0,0.0,0.0,0.0,0.0,0.0,0.0,0.0,0.0,0.0,0.0,0.0,0.0,0.0,0.0,0.0,0.0,0.0,0.0,0.0,0.0,0.0,0.0,0.0,0.0,0.0,0.0,0.0,0.0,0.0,0.0,0.0,0.0,0.0,0.0,0.0,0.0,0.0,0.0,0.0,0.0,0.0,0.0,0.0,0.0,0.0,0.0,0.0,0.0,0.0,0.0,0.0,0.0,0.0,0.0,0.0,0.0,0.0,0.0,0.0,0.0,0.0,0.0,-1.5283,-1.5283,-1.5283,-1.5167,-1.4877,0.0,0.0,0.0,0.0,0.0,0.0,0.0,0.0,0.0,0.0,0.0,0.0,0.0,0.0,0.0,0.0,0.0,0.0,0.0,0.0,0.0,0.0,0.0,0.0,0.0,0.0,0.0,0.0,0.0,0.0,0.0,0.0,0.0,0.0,0.0,0.0,0.0,0.0,0.0,0.0,0.0,0.0,0.0,0.0,0.0,0.0,0.0,0.0,0.0,0.0,0.0,0.0,0.0,0.0,0.0,0.0,0.0,0.0,0.0,0.0,0.0,0.0,0.0,0.0,0.0,0.0,0.0,0.0,0.0,0.0,0.0,0.0,0.0,0.0,0.0,0.0,0.0,0.0,0.0,0.0,0.0,0.0,0.0,0.0,0.0,0.0,0.0,0.0,0.0,0.0,0.0,0.0,0.0,0.0,0.0,0.0,0.0,0.0,0.0,0.0,0.0,0.0,0.0,0.0,0.0,0.0,0.0,0.0,0.0,0.0,0.0,0.0,-1.6013,-1.595,-1.595,0.0,0.0,0.0,0.0,0.0,0.0,0.0,0.0,0.0,0.0,0.0,0.0,0.0,0.0,0.0,0.0,0.0,0.0,0.0,0.0,0.0,0.0,0.0,0.0,0.0,0.0,0.0,0.0,0.0,0.0,0.0,0.0,0.0,0.0,0.0,0.0,0.0,0.0,0.0,0.0,0.0,0.0,0.0,0.0,0.0,0.0,0.0,0.0,0.0,0.0,0.0,0.0,0.0,0.0,0.0,0.0,0.0,0.0,0.0,0.0,0.0,0.0,0.0,0.0,0.0,0.0,0.0,0.0,0.0,0.0,0.0,0.0,0.0,0.0,0.0,0.0,0.0,0.0,0.0,0.0,0.0,0.0,0.0,0.0,0.0,0.0,0.0,0.0,0.0,0.0,0.0,0.0,0.0,0.0,0.0,0.0,0.0,0.0,0.0,0.0,0.0,0.0,0.0,0.0,0.0,0.0,0.0,0.0,0.0,0.0,-1.6331,-1.8477,-1.8155,0.0,-1.794,0.0,0.0,0.0,0.0,0.0,0.0,0.0,0.0,0.0,0.0,0.0,0.0,0.0,0.0,0.0,0.0,0.0,0.0,0.0,0.0,0.0,0.0,0.0,0.0,0.0,0.0,0.0,0.0,0.0,0.0,0.0,0.0,0.0,0.0,0.0,0.0,0.0,0.0,0.0,0.0,0.0,0.0,0.0,0.0,0.0,0.0,0.0,0.0,0.0,0.0,0.0,0.0,0.0,0.0,0.0,0.0,0.0,0.0,0.0,0.0,0.0,0.0,0.0,0.0,0.0,0.0,0.0,0.0,0.0,0.0,0.0,0.0,0.0,0.0,0.0,0.0,0.0,0.0,0.0,0.0,0.0,0.0,0.0,0.0,0.0,0.0,0.0,0.0,0.0,0.0,0.0,0.0,0.0,0.0,0.0,0.0,0.0,0.0,0.0,0.0,0.0,0.0,0.0,0.0,0.0,0.0,0.0,0.0,0.0,0.0,0.0,-1.9175,-1.8821,-1.8634,0.0,0.0,0.0,0.0,0.0,0.0,0.0,0.0,0.0,0.0,0.0,0.0,0.0,0.0,0.0,0.0,0.0,0.0,0.0,0.0,0.0,0.0,0.0,0.0,0.0,0.0,0.0,0.0,0.0,0.0,0.0,0.0,0.0,0.0,0.0,0.0,0.0,0.0,0.0,0.0,0.0,0.0,0.0,0.0,0.0,0.0,0.0,0.0,0.0,0.0,0.0,0.0,0.0,0.0,0.0,0.0,0.0,0.0,0.0,0.0,0.0,0.0,0.0,0.0,0.0,0.0,0.0,0.0,0.0,0.0,0.0,0.0,0.0,0.0,0.0,0.0,0.0,0.0,0.0,0.0,0.0,0.0,0.0,0.0,0.0,0.0,0.0,0.0,0.0,0.0,0.0,0.0,0.0,0.0,0.0,0.0,0.0,0.0,0.0,0.0,0.0,0.0,0.0,0.0,0.0,0.0,0.0,0.0,0.0,0.0,-1.8287,0.0,-2.0076,-1.9769,-1.9331,-1.8815,0.0,0.0,0.0,0.0,0.0,0.0,0.0,0.0,0.0,0.0,0.0,0.0,0.0,0.0,0.0,0.0,0.0,0.0,0.0,0.0,0.0,0.0,0.0,0.0,0.0,0.0,0.0,0.0,0.0,0.0,0.0,0.0,0.0,0.0,0.0,0.0,0.0,0.0,0.0,0.0,0.0,0.0,0.0,0.0,0.0,0.0,0.0,0.0,0.0,0.0,0.0,0.0,0.0,0.0,0.0,0.0,0.0,0.0,0.0,0.0,0.0,0.0,0.0,0.0,0.0,0.0,0.0,0.0,0.0,0.0,0.0,0.0,0.0,0.0,0.0,0.0,0.0,0.0,0.0,0.0,0.0,0.0,0.0,0.0,0.0,0.0,0.0,0.0,0.0,0.0,0.0,0.0,0.0,0.0,0.0,0.0,0.0,0.0,0.0,0.0,0.0,0.0,0.0,0.0,0.0,0.0,0.0,0.0,0.0,-2.0536,-2.023,-2.2009,-2.151,-2.021,0.0,0.0,0.0,0.0,0.0,0.0,0.0,0.0,0.0,0.0,0.0,0.0,0.0,0.0,0.0,0.0,0.0,0.0,0.0,0.0,0.0,0.0,0.0,0.0,0.0,0.0,0.0,0.0,0.0,0.0,0.0,0.0,0.0,0.0,0.0,0.0,0.0,0.0,0.0,0.0,0.0,0.0,0.0,0.0,0.0,0.0,0.0,0.0,0.0,0.0,0.0,0.0,0.0,0.0,0.0,0.0,0.0,0.0,0.0,0.0,0.0,0.0,0.0,0.0,0.0,0.0,0.0,0.0,0.0,0.0,0.0,0.0,0.0,0.0,0.0,0.0,0.0,0.0,0.0,0.0,0.0,0.0,0.0,0.0,0.0,0.0,0.0,0.0,0.0,0.0,0.0,0.0,0.0,0.0,0.0,0.0,0.0,0.0,0.0,0.0,0.0,0.0,0.0,0.0,0.0,0.0,0.0,0.0,0.0,-1.8978,-1.9694,-2.1431,-2.4209,-2.1855,-2.051,0.0,0.0,0.0,0.0,0.0,0.0,0.0,0.0,0.0,0.0,0.0,0.0,0.0,0.0,0.0,0.0,0.0,0.0,0.0,0.0,0.0,0.0,0.0,0.0,0.0,0.0,0.0,0.0,0.0,0.0,0.0,0.0,0.0,0.0,0.0,0.0,0.0,0.0,0.0,0.0,0.0,0.0,0.0,0.0,0.0,0.0,0.0,0.0,0.0,0.0,0.0,0.0,0.0,0.0,0.0,0.0,0.0,0.0,0.0,0.0,0.0,0.0,0.0,0.0,0.0,0.0,0.0,0.0,0.0,0.0,0.0,0.0,0.0,0.0,0.0,0.0,0.0,0.0,0.0,0.0,0.0,0.0,0.0,0.0,0.0,0.0,0.0,0.0,0.0,0.0,0.0,0.0,0.0,0.0,0.0,0.0,0.0,0.0,0.0,0.0,0.0,0.0,0.0,0.0,0.0,0.0,0.0,0.0,0.0,-1.8961,0.0,-2.3399,0.0,-2.2322,-2.0695,0.0,0.0,0.0,0.0,0.0,0.0,0.0,0.0,0.0,0.0,0.0,0.0,0.0,0.0,0.0,0.0,0.0,0.0,0.0,0.0,0.0,0.0,0.0,0.0,0.0,0.0,0.0,0.0,0.0,0.0,0.0,0.0,0.0,0.0,0.0,0.0,0.0,0.0,0.0,0.0,0.0,0.0,0.0,0.0,0.0,0.0,0.0,0.0,0.0,0.0,0.0,0.0,0.0,0.0,0.0,0.0,0.0,0.0,0.0,0.0,0.0,0.0,0.0,0.0,0.0,0.0,0.0,0.0,0.0,0.0,0.0,0.0,0.0,0.0,0.0,0.0,0.0,0.0,0.0,0.0,0.0,0.0,0.0,0.0,0.0,0.0,0.0,0.0,0.0,0.0,0.0,0.0,0.0,0.0,0.0,0.0,0.0,0.0,0.0,0.0,0.0,0.0,0.0,0.0,0.0,0.0,0.0,0.0,-1.9083,-2.344,-2.5745,-2.5826,-2.385,-2.3063,-2.0755,0.0,0.0,0.0,0.0,0.0,0.0,0.0,0.0,0.0,0.0,0.0,0.0,0.0,0.0,0.0,0.0,0.0,0.0,0.0,0.0,0.0,0.0,0.0,0.0,0.0,0.0,0.0,0.0,0.0,0.0,0.0,0.0,0.0,0.0,0.0,0.0,0.0,0.0,0.0,0.0,0.0,0.0,0.0,0.0,0.0,0.0,0.0,0.0,0.0,0.0,0.0,0.0,0.0,0.0,0.0,0.0,0.0,0.0,0.0,0.0,0.0,0.0,0.0,0.0,0.0,0.0,0.0,0.0,0.0,0.0,0.0,0.0,0.0,0.0,0.0,0.0,0.0,0.0,0.0,0.0,0.0,0.0,0.0,0.0,0.0,0.0,0.0,0.0,0.0,0.0,0.0,0.0,0.0,0.0,0.0,0.0,0.0,0.0,0.0,0.0,0.0,0.0,0.0,0.0,0.0,0.0,0.0,0.0,0.0,-2.1859,-2.3374,-2.4953,-2.6381,-2.3129,-2.1378,0.0,0.0,0.0,0.0,0.0,0.0,0.0,0.0,0.0,0.0,0.0,0.0,0.0,0.0,0.0,0.0,0.0,0.0,0.0,0.0,0.0,0.0,0.0,0.0,0.0,0.0,0.0,0.0,0.0,0.0,0.0,0.0,0.0,0.0,0.0,0.0,0.0,0.0,0.0,0.0,0.0,0.0,0.0,0.0,0.0,0.0,0.0,0.0,0.0,0.0,0.0,0.0,0.0,0.0,0.0,0.0,0.0,0.0,0.0,0.0,0.0,0.0,0.0,0.0,0.0,0.0,0.0,0.0,0.0,0.0,0.0,0.0,0.0,0.0,0.0,0.0,0.0,0.0,0.0,0.0,0.0,0.0,0.0,0.0,0.0,0.0,0.0,0.0,0.0,0.0,0.0,0.0,0.0,0.0,0.0,0.0,0.0,0.0,0.0,0.0,0.0,0.0,0.0,0.0,0.0,0.0,0.0,0.0,0.0,-2.5454,-2.663,-2.7792,-2.8845,-2.5616,-2.3505,-2.2725,0.0,0.0,0.0,0.0,0.0,0.0,0.0,0.0,0.0,0.0,0.0,0.0,0.0,0.0,0.0,0.0,0.0,0.0,0.0,0.0,0.0,0.0,0.0,0.0,0.0,0.0,0.0,0.0,0.0,0.0,0.0,0.0,0.0,0.0,0.0,0.0,0.0,0.0,0.0,0.0,0.0,0.0,0.0,0.0,0.0,0.0,0.0,0.0,0.0,0.0,0.0,0.0,0.0,0.0,0.0,0.0,0.0,0.0,0.0,0.0,0.0,0.0,0.0,0.0,0.0,0.0,0.0,0.0,0.0,0.0,0.0,0.0,0.0,0.0,0.0,0.0,0.0,0.0,0.0,0.0,0.0,0.0,0.0,0.0,0.0,0.0,0.0,0.0,0.0,0.0,0.0,0.0,0.0,0.0,0.0,0.0,0.0,0.0,0.0,0.0,0.0,0.0,0.0,0.0,0.0,0.0,0.0,0.0,-3.2851,-3.4618,-3.4087,-3.1217,-2.9992,-2.6866,0.0,0.0,0.0,0.0,0.0,0.0,0.0,0.0,0.0,0.0,0.0,0.0,0.0,0.0,0.0,0.0,0.0,0.0,0.0,0.0,0.0,0.0,0.0,0.0,0.0,0.0,0.0,0.0,0.0,0.0,0.0,0.0,0.0,0.0,0.0,0.0,0.0,0.0,0.0,0.0,0.0,0.0,0.0,0.0,0.0,0.0,0.0,0.0,0.0,0.0,0.0,0.0,0.0,0.0,0.0,0.0,0.0,0.0,0.0,0.0,0.0,0.0,0.0,0.0,0.0,0.0,0.0,0.0,0.0,0.0,0.0,0.0,0.0,0.0,0.0,0.0,0.0,0.0,0.0,0.0,0.0,0.0,0.0,0.0,0.0,0.0,0.0,0.0,0.0,0.0,0.0,0.0,0.0,0.0,0.0,0.0,0.0,0.0,0.0,0.0,0.0,0.0,0.0,0.0,0.0,0.0,0.0,0.0,0.0,-3.5148,-4.0216,-4.1309,-3.7831,-3.2895,-2.9231,0.0,0.0,0.0,0.0,0.0,0.0,0.0,0.0,0.0,0.0,0.0,0.0,0.0,0.0,0.0,0.0,0.0,0.0,0.0,0.0,0.0,0.0,0.0,0.0,0.0,0.0,0.0,0.0,0.0,0.0,0.0,0.0,0.0,0.0,0.0,0.0,0.0,0.0,0.0,0.0,0.0,0.0,0.0,0.0,0.0,0.0,0.0,0.0,0.0,0.0,0.0,0.0,0.0,0.0,0.0,0.0,0.0,0.0,0.0,0.0,0.0,0.0,0.0,0.0,0.0,0.0,0.0,0.0,0.0,0.0,0.0,0.0,0.0,0.0,0.0,0.0,0.0,0.0,0.0,0.0,0.0,0.0,0.0,0.0,0.0,0.0,0.0,0.0,0.0,0.0,0.0,0.0,0.0,0.0,0.0,0.0,0.0,0.0,0.0,0.0,0.0,0.0,0.0,0.0,0.0,0.0,0.0,0.0,-3.4452,-3.7831,-4.4586,-4.6941,-4.4556,-3.8129,-3.2994,0.0,0.0,0.0,0.0,0.0,0.0,0.0,0.0,0.0,0.0,0.0,0.0,0.0,0.0,0.0,0.0,0.0,0.0,0.0,0.0,0.0,0.0,0.0,0.0,0.0,0.0,0.0,0.0,0.0,0.0,0.0,0.0,0.0,0.0,0.0,0.0,0.0,0.0,0.0,0.0,0.0,0.0,0.0,0.0,0.0,0.0,0.0,0.0,0.0,0.0,0.0,0.0,0.0,0.0,0.0,0.0,0.0,0.0,0.0,0.0,0.0,0.0,0.0,0.0,0.0,0.0,0.0,0.0,0.0,0.0,0.0,0.0,0.0,0.0,0.0,0.0,0.0,0.0,0.0,0.0,0.0,0.0,0.0,0.0,0.0,0.0,0.0,0.0,0.0,0.0,0.0,0.0,0.0,0.0,0.0,0.0,0.0,0.0,0.0,0.0,0.0,0.0,0.0,0.0,0.0,0.0,0.0,0.0,-3.7698,-4.0741,-4.7735,-5.1083,-5.0187,-4.3794,-3.7061,0.0,0.0,0.0,0.0,0.0,0.0,0.0,0.0,0.0,0.0,0.0,0.0,0.0,0.0,0.0,0.0,0.0,0.0,0.0,0.0,0.0,0.0,0.0,0.0,0.0,0.0,0.0,0.0,0.0,0.0,0.0,0.0,0.0,0.0,0.0,0.0,0.0,0.0,0.0,0.0,0.0,0.0,0.0,0.0,0.0,0.0,0.0,0.0,0.0,0.0,0.0,0.0,0.0,0.0,0.0,0.0,0.0,0.0,0.0,0.0,0.0,0.0,0.0,0.0,0.0,0.0,0.0,0.0,0.0,0.0,0.0,0.0,0.0,0.0,0.0,0.0,0.0,0.0,0.0,0.0,0.0,0.0,0.0,0.0,0.0,0.0,0.0,0.0,0.0,0.0,0.0,0.0,0.0,0.0,0.0,0.0,0.0,0.0,0.0,0.0,0.0,0.0,0.0,0.0,0.0,0.0,0.0,0.0,-3.9421,-4.2932,-4.8961,-5.1846,-5.1048,-4.3591,-3.7724,0.0,0.0,0.0,0.0,0.0,0.0,0.0,0.0,0.0,0.0,0.0,0.0,0.0,0.0,0.0,0.0,0.0,0.0,0.0,0.0,0.0,0.0,0.0,0.0,0.0,0.0,0.0,0.0,0.0,0.0,0.0,0.0,0.0,0.0,0.0,0.0,0.0,0.0,0.0,0.0,0.0,0.0,0.0,0.0,0.0,0.0,0.0,0.0,-2.2824,0.0,0.0,0.0,0.0,0.0,0.0,0.0,0.0,0.0,0.0,0.0,0.0,0.0,0.0,0.0,0.0,0.0,0.0,0.0,0.0,0.0,0.0,0.0,0.0,0.0,0.0,0.0,0.0,0.0,0.0,0.0,0.0,0.0,0.0,0.0,0.0,0.0,0.0,0.0,0.0,0.0,0.0,0.0,0.0,0.0,0.0,0.0,0.0,0.0,0.0,0.0,0.0,0.0,0.0,0.0,0.0,0.0,0.0,0.0,-4.0812,-4.5119,-4.9889,-5.2175,-5.1614,-4.568,-4.015,0.0,0.0,0.0,0.0,0.0,0.0,0.0,0.0,0.0,0.0,0.0,0.0,0.0,0.0,0.0,0.0,0.0,0.0,0.0,0.0,0.0,0.0,0.0,0.0,0.0,0.0,0.0,0.0,0.0,0.0,0.0,0.0,0.0,0.0,0.0,0.0,0.0,0.0,0.0,0.0,0.0,0.0,0.0,0.0,0.0,0.0,0.0,0.0,0.0,0.0,0.0,0.0,0.0,0.0,0.0,0.0,0.0,0.0,0.0,0.0,0.0,0.0,0.0,0.0,0.0,0.0,0.0,0.0,0.0,0.0,0.0,0.0,0.0,0.0,0.0,0.0,0.0,0.0,0.0,0.0,0.0,0.0,0.0,0.0,0.0,0.0,0.0,0.0,0.0,0.0,0.0,0.0,0.0,0.0,0.0,0.0,0.0,0.0,0.0,0.0,0.0,0.0,0.0,0.0,0.0,0.0,0.0,-3.6605,-4.1901,-4.7404,-5.0717,-5.2409,-5.2343,-4.8199,-4.2899,-3.6439,0.0,0.0,0.0,0.0,0.0,0.0,0.0,0.0,0.0,0.0,0.0,0.0,0.0,0.0,0.0,0.0,0.0,0.0,0.0,0.0,0.0,0.0,0.0,0.0,0.0,0.0,0.0,0.0,0.0,0.0,0.0,0.0,0.0,0.0,0.0,0.0,0.0,0.0,-2.0511,-2.2228,0.0,0.0,0.0,0.0,0.0,0.0,0.0,0.0,-2.4348,0.0,0.0,0.0,0.0,0.0,0.0,0.0,0.0,0.0,0.0,0.0,0.0,0.0,0.0,0.0,0.0,0.0,0.0,0.0,0.0,0.0,0.0,0.0,0.0,0.0,0.0,0.0,0.0,0.0,0.0,0.0,0.0,0.0,0.0,0.0,0.0,0.0,0.0,0.0,0.0,0.0,0.0,0.0,0.0,0.0,0.0,0.0,0.0,0.0,0.0,0.0,0.0,0.0,0.0,0.0,0.0,-3.6779,-3.7897,-4.2336,-5.0354,-5.1779,-5.2409,-5.2274,-4.8696,-4.3628,-3.7201,0.0,0.0,0.0,0.0,0.0,0.0,0.0,0.0,0.0,0.0,0.0,0.0,0.0,0.0,0.0,0.0,0.0,0.0,0.0,0.0,0.0,0.0,0.0,0.0,0.0,0.0,0.0,0.0,0.0,0.0,0.0,0.0,0.0,0.0,0.0,0.0,0.0,0.0,0.0,-2.5424,-2.6203,0.0,0.0,0.0,0.0,0.0,0.0,0.0,0.0,-2.5623,0.0,0.0,0.0,0.0,0.0,0.0,0.0,0.0,0.0,0.0,0.0,0.0,0.0,0.0,0.0,0.0,0.0,0.0,0.0,0.0,0.0,0.0,0.0,0.0,0.0,0.0,0.0,0.0,0.0,0.0,0.0,0.0,0.0,0.0,0.0,0.0,0.0,0.0,0.0,0.0,0.0,0.0,0.0,0.0,0.0,0.0,0.0,0.0,0.0,0.0,0.0,0.0,0.0,0.0,0.0,-3.7235,-4.0216,-4.4887,-5.1614,-5.2243,-5.2409,-5.231,-4.7736,-4.2634,0.0,0.0,0.0,0.0,0.0,0.0,0.0,0.0,0.0,0.0,0.0,0.0,0.0,0.0,0.0,0.0,0.0,0.0,0.0,0.0,0.0,0.0,0.0,0.0,0.0,0.0,0.0,0.0,0.0,0.0,0.0,0.0,0.0,0.0,0.0,0.0,0.0,0.0,0.0,0.0,-2.7396,-2.837,-2.9847,0.0,0.0,0.0,0.0,0.0,0.0,-2.6833,-2.6119,0.0,0.0,0.0,0.0,0.0,0.0,0.0,0.0,0.0,0.0,0.0,0.0,0.0,0.0,0.0,0.0,0.0,0.0,0.0,0.0,0.0,0.0,0.0,0.0,0.0,0.0,0.0,0.0,0.0,0.0,0.0,0.0,0.0,0.0,0.0,0.0,0.0,0.0,0.0,0.0,0.0,0.0,0.0,0.0,0.0,0.0,0.0,0.0,0.0,0.0,0.0,0.0,0.0,0.0,0.0,-3.7003,-4.1972,-4.7072,-5.2144,-5.2409,-5.2409,-5.231,-4.6543,-4.138,0.0,0.0,0.0,0.0,0.0,0.0,0.0,0.0,0.0,0.0,0.0,0.0,0.0,0.0,0.0,0.0,0.0,0.0,0.0,0.0,0.0,0.0,0.0,0.0,0.0,0.0,0.0,0.0,0.0,0.0,0.0,0.0,0.0,0.0,0.0,0.0,0.0,0.0,0.0,0.0,0.0,-3.0995,-3.2078,-3.1558,0.0,0.0,0.0,0.0,-2.9039,-2.9052,0.0,0.0,0.0,0.0,0.0,0.0,0.0,0.0,0.0,0.0,0.0,0.0,0.0,0.0,0.0,0.0,0.0,0.0,0.0,0.0,0.0,0.0,0.0,0.0,0.0,0.0,0.0,0.0,0.0,0.0,0.0,0.0,0.0,0.0,0.0,0.0,0.0,0.0,0.0,0.0,0.0,0.0,0.0,0.0,0.0,0.0,0.0,0.0,0.0,0.0,0.0,0.0,0.0,0.0,0.0,0.0,-3.697,-4.1475,-4.6543,-5.2078,-5.2409,-5.2409,-5.231,-4.6046,-4.0912,0.0,0.0,0.0,0.0,0.0,0.0,0.0,0.0,0.0,0.0,0.0,0.0,0.0,0.0,0.0,0.0,0.0,0.0,0.0,0.0,0.0,0.0,0.0,0.0,0.0,0.0,0.0,0.0,0.0,0.0,0.0,0.0,0.0,0.0,0.0,0.0,0.0,0.0,0.0,0.0,0.0,-3.4515,-3.4508,-3.3494,-3.254,0.0,0.0,-3.4253,-3.4883,-3.7102,0.0,0.0,0.0,0.0,0.0,0.0,0.0,0.0,0.0,0.0,0.0,0.0,0.0,0.0,0.0,0.0,0.0,0.0,0.0,0.0,0.0,0.0,0.0,0.0,0.0,0.0,0.0,0.0,0.0,0.0,0.0,0.0,0.0,0.0,0.0,0.0,0.0,0.0,0.0,0.0,0.0,0.0,0.0,0.0,0.0,0.0,0.0,0.0,0.0,0.0,0.0,0.0,0.0,0.0,0.0,-3.1449,-3.7069,-4.3032,-4.8166,-5.221,-5.2409,-5.2175,-5.1779,-4.4586,-3.9355,0.0,0.0,0.0,0.0,0.0,0.0,0.0,0.0,0.0,0.0,0.0,0.0,0.0,0.0,0.0,0.0,0.0,0.0,0.0,0.0,0.0,0.0,0.0,0.0,0.0,0.0,0.0,0.0,0.0,0.0,0.0,0.0,0.0,0.0,0.0,0.0,0.0,0.0,0.0,0.0,0.0,0.0,-3.6075,-3.6746,0.0,0.0,0.0,-3.6108,-3.6009,0.0,0.0,0.0,0.0,0.0,0.0,0.0,0.0,0.0,0.0,0.0,0.0,0.0,0.0,0.0,0.0,0.0,0.0,0.0,0.0,0.0,0.0,0.0,0.0,0.0,0.0,0.0,0.0,0.0,0.0,0.0,0.0,0.0,0.0,0.0,0.0,0.0,0.0,0.0,0.0,0.0,0.0,0.0,0.0,0.0,0.0,0.0,0.0,0.0,0.0,0.0,0.0,0.0,0.0,0.0,0.0,0.0,-3.7135,-4.4655,-4.979,-5.2274,-5.2409,-5.2142,-5.1481,-4.4486,0.0,0.0,0.0,0.0,0.0,0.0,0.0,0.0,0.0,0.0,0.0,0.0,0.0,0.0,0.0,0.0,0.0,0.0,0.0,0.0,0.0,0.0,0.0,0.0,0.0,0.0,0.0,-1.4619,0.0,0.0,0.0,0.0,0.0,0.0,0.0,0.0,0.0,0.0,0.0,0.0,0.0,0.0,-3.6862,-3.7402,-3.9388,-4.0386,0.0,0.0,-3.846,-3.846,-3.9719,-3.8924,0.0,0.0,0.0,0.0,0.0,0.0,0.0,0.0,0.0,0.0,0.0,0.0,0.0,0.0,0.0,0.0,0.0,0.0,0.0,0.0,0.0,0.0,0.0,0.0,0.0,0.0,0.0,0.0,0.0,0.0,0.0,0.0,0.0,0.0,0.0,0.0,0.0,0.0,0.0,0.0,0.0,0.0,0.0,0.0,0.0,0.0,0.0,0.0,0.0,0.0,0.0,0.0,0.0,0.0,0.0,-3.7268,-4.5649,-5.0783,-5.2343,-5.2409,-5.2376,-5.2243,-4.7138,-4.2005,0.0,0.0,0.0,0.0,0.0,0.0,0.0,0.0,0.0,0.0,0.0,0.0,0.0,0.0,0.0,0.0,0.0,0.0,0.0,0.0,0.0,0.0,0.0,0.0,0.0,0.0,0.0,0.0,0.0,0.0,0.0,0.0,0.0,0.0,0.0,0.0,0.0,0.0,0.0,0.0,0.0,-3.8514,-3.8531,-4.044,-4.2496,0.0,0.0,-4.2833,-4.4787,-4.7968,-4.7239,-3.8195,0.0,0.0,0.0,0.0,0.0,0.0,0.0,0.0,0.0,0.0,0.0,0.0,0.0,0.0,0.0,0.0,0.0,0.0,0.0,0.0,0.0,0.0,0.0,0.0,0.0,0.0,0.0,0.0,0.0,0.0,0.0,0.0,0.0,0.0,0.0,0.0,0.0,0.0,0.0,0.0,0.0,0.0,0.0,0.0,0.0,0.0,0.0,0.0,0.0,0.0,0.0,0.0,0.0,-3.3723,-3.7135,-4.5284,-5.0452,-5.231,-5.2409,-5.221,-5.1746,-4.757,-4.2767,0.0,0.0,0.0,0.0,0.0,0.0,0.0,0.0,0.0,0.0,0.0,0.0,0.0,0.0,0.0,0.0,0.0,0.0,0.0,0.0,0.0,0.0,0.0,0.0,0.0,0.0,0.0,0.0,-2.1831,-2.2246,-2.2062,0.0,0.0,0.0,0.0,0.0,0.0,0.0,0.0,0.0,0.0,-4.0308,-4.1677,-4.3694,0.0,0.0,-4.4833,-4.487,-4.5327,-4.5765,-4.4038,-3.8184,-3.5494,0.0,0.0,0.0,0.0,0.0,0.0,0.0,0.0,0.0,0.0,0.0,0.0,0.0,0.0,0.0,0.0,0.0,0.0,0.0,0.0,0.0,0.0,0.0,0.0,0.0,0.0,0.0,0.0,0.0,0.0,0.0,0.0,0.0,0.0,0.0,0.0,0.0,0.0,0.0,0.0,0.0,0.0,0.0,0.0,0.0,0.0,0.0,0.0,0.0,0.0,0.0,0.0,-3.3965,-3.6746,-4.5119,-5.0154,-5.1711,-5.1744,-5.1479,-5.0916,-4.8034,-4.3926,0.0,0.0,0.0,0.0,0.0,0.0,0.0,0.0,0.0,0.0,0.0,0.0,0.0,0.0,0.0,0.0,0.0,0.0,0.0,0.0,0.0,0.0,0.0,0.0,0.0,0.0,0.0,0.0,-2.3619,-2.3719,-2.299,0.0,0.0,0.0,0.0,0.0,0.0,0.0,0.0,0.0,0.0,-4.1905,-4.3471,-4.506,-4.5735,-4.4793,-4.4667,-4.4767,-4.499,-4.4094,-4.2271,-3.9049,0.0,0.0,0.0,0.0,0.0,0.0,0.0,0.0,0.0,0.0,0.0,0.0,0.0,0.0,0.0,0.0,0.0,0.0,0.0,0.0,0.0,0.0,0.0,0.0,0.0,0.0,0.0,0.0,0.0,0.0,-1.7449,0.0,0.0,0.0,0.0,0.0,0.0,0.0,0.0,0.0,0.0,0.0,0.0,0.0,0.0,0.0,0.0,0.0,0.0,0.0,0.0,0.0,0.0,-3.5214,-3.6141,-4.5351,-5.022,-5.0286,-5.0253,-5.0286,-5.022,-4.8763,-4.5847,-4.1342,0.0,0.0,0.0,0.0,0.0,0.0,0.0,0.0,0.0,0.0,0.0,0.0,0.0,0.0,0.0,0.0,0.0,0.0,0.0,0.0,0.0,0.0,0.0,0.0,0.0,0.0,-2.0984,-2.2725,-2.3686,0.0,0.0,0.0,0.0,0.0,0.0,0.0,0.0,0.0,0.0,-3.9969,-4.3238,-4.325,-4.3776,-4.424,-4.409,-4.2684,-4.2336,-4.442,-4.4652,-4.3923,0.0,0.0,0.0,0.0,0.0,0.0,0.0,0.0,0.0,0.0,0.0,0.0,0.0,0.0,0.0,0.0,0.0,0.0,0.0,0.0,0.0,0.0,0.0,0.0,0.0,0.0,0.0,-2.3257,-2.2165,0.0,0.0,0.0,0.0,0.0,0.0,0.0,0.0,0.0,0.0,0.0,-3.634,-3.6373,0.0,0.0,0.0,0.0,0.0,0.0,0.0,0.0,0.0,0.0,0.0,0.0,-3.5512,-3.7069,-4.5616,-5.022,-5.022,-5.022,-5.022,-5.022,-4.9723,-4.6709,-4.0878,0.0,0.0,0.0,0.0,0.0,0.0,0.0,0.0,0.0,0.0,0.0,0.0,0.0,0.0,0.0,0.0,0.0,0.0,0.0,0.0,0.0,0.0,0.0,0.0,0.0,-2.2641,0.0,0.0,0.0,0.0,0.0,0.0,0.0,0.0,0.0,0.0,0.0,-3.588,-3.8848,-4.1009,-4.287,-4.4433,-4.4979,-4.5829,0.0,0.0,0.0,0.0,0.0,0.0,0.0,0.0,0.0,0.0,0.0,0.0,0.0,0.0,-4.0762,-3.3748,-3.2853,-3.3156,-3.3156,0.0,0.0,0.0,0.0,0.0,0.0,0.0,0.0,0.0,0.0,0.0,0.0,0.0,0.0,-2.9085,0.0,-2.7363,0.0,0.0,0.0,0.0,0.0,0.0,0.0,0.0,-3.7831,-4.0647,-4.1943,-4.174,-4.164,0.0,-3.9123,-3.4452,0.0,0.0,0.0,0.0,0.0,0.0,0.0,0.0,-3.6274,-3.7739,-4.5616,-4.9723,-4.9458,-4.9458,-4.9458,-4.9458,-4.9425,-4.704,-4.2067,-3.7235,-3.2994,0.0,0.0,0.0,0.0,0.0,0.0,0.0,0.0,0.0,0.0,0.0,0.0,0.0,0.0,0.0,0.0,0.0,0.0,0.0,0.0,0.0,0.0,0.0,-2.3702,0.0,0.0,0.0,0.0,0.0,0.0,0.0,0.0,0.0,-3.3304,-3.6632,-4.0138,-4.3084,-4.4102,-4.4787,-4.5341,0.0,0.0,0.0,0.0,0.0,0.0,0.0,-4.3265,-4.2309,-4.1896,-4.2323,-4.4211,-4.6585,-4.8149,-4.7818,0.0,0.0,-4.0095,-3.9059,-3.9362,-3.9362,-4.0222,-4.0923,-4.0923,-4.2132,-4.32,0.0,0.0,0.0,0.0,0.0,0.0,0.0,0.0,-3.6009,-3.6208,0.0,-3.3879,0.0,0.0,0.0,0.0,0.0,0.0,0.0,0.0,-4.7636,-5.0452,-4.9193,-4.8398,-4.8133,-4.8034,-4.5251,-4.2402,-3.9448,-3.4618,0.0,0.0,0.0,0.0,0.0,0.0,-3.7566,-3.8566,-4.5483,-4.8763,-4.8067,-4.8034,-4.8034,-4.81,-4.8067,-4.704,-4.4854,-4.21,-3.8884,-3.5148,-2.892,0.0,0.0,0.0,0.0,0.0,0.0,0.0,0.0,0.0,0.0,0.0,0.0,0.0,0.0,0.0,0.0,0.0,0.0,0.0,0.0,-2.3653,0.0,0.0,0.0,0.0,0.0,0.0,0.0,0.0,0.0,0.0,-3.8274,-4.1107,-4.444,-4.7365,0.0,0.0,0.0,0.0,-4.6324,-4.3896,-4.328,-4.3527,-4.429,-4.6027,-4.7729,-4.8862,0.0,0.0,-5.1759,-5.1497,-5.1157,-5.0414,-5.1562,-5.173,-4.9664,-4.7834,-4.6887,-4.6887,-4.6921,-4.7056,-4.7158,-4.824,-4.9289,-4.5686,0.0,0.0,0.0,0.0,-3.9593,-4.0917,-4.3429,-4.3131,-4.2104,-4.058,-3.9421,0.0,0.0,0.0,0.0,0.0,0.0,-4.2137,-4.5847,-4.8001,-5.0353,-5.2904,-5.1711,-5.1645,-5.2572,-5.075,-4.9193,-4.7801,-4.5317,-3.9063,-2.943,0.0,0.0,0.0,0.0,-3.952,-4.1475,-4.6444,-4.8763,-4.8001,-4.8001,-4.8266,-4.8763,-4.8796,-4.8498,-4.7835,-4.6013,-4.3098,-3.8984,-3.4518,0.0,0.0,0.0,0.0,0.0,0.0,0.0,0.0,0.0,0.0,0.0,0.0,0.0,0.0,0.0,0.0,0.0,0.0,0.0,-2.4315,-2.5746,-2.6734,0.0,0.0,0.0,0.0,0.0,0.0,0.0,0.0,0.0,-4.5612,-4.5302,-4.5336,0.0,0.0,-4.5572,-4.4764,-4.6666,-4.8651,-4.989,0.0,0.0,0.0,-5.1162,-5.066,-5.0859,-5.3228,-5.5071,-5.4873,-5.6306,-5.7403,-5.7133,-5.7504,-5.7572,-5.69,-5.3957,-5.1758,-5.1623,-5.2401,-5.3112,-5.3247,-5.4329,-5.5277,-5.3533,-4.8166,-4.6146,-4.5847,-4.6609,-4.6179,-4.7471,-4.9889,-4.9458,-4.8663,-4.7571,-4.6013,-4.3628,-4.0647,-3.8758,0.0,0.0,0.0,-4.6576,-5.0585,-5.0585,-5.2142,-5.4721,-5.3765,-5.3831,-5.4821,-5.3467,-5.2705,-5.2539,-5.0518,-4.5351,-3.7201,0.0,0.0,-3.4551,-3.8493,-4.1475,-4.3429,-4.6874,-4.8465,-4.8001,-4.8001,-4.8365,-4.9094,-4.9392,-4.9425,-4.9094,-4.7968,-4.5715,-4.2232,-3.8328,-3.3889,0.0,0.0,0.0,0.0,0.0,0.0,0.0,0.0,0.0,0.0,0.0,-2.2707,-1.8696,0.0,0.0,0.0,-2.5077,-2.6387,-2.8049,-2.929,0.0,0.0,0.0,0.0,0.0,0.0,0.0,-4.1516,-4.5882,-4.9328,-5.0608,-4.9898,-4.9458,-5.0033,-4.9032,-4.8164,-4.7894,0.0,-5.1062,-5.2369,-5.2434,-5.2835,-5.4077,-5.3839,-5.3699,-5.4383,-5.6296,-5.7745,-5.7883,-5.953,-6.0811,-6.0844,-6.0719,-6.0588,-6.0554,-5.8118,-5.6122,-5.6122,-5.6833,-5.7408,-5.7476,-5.8152,-5.8761,-5.9231,-5.8833,-5.4129,-5.2078,-5.1912,-5.1912,-5.3003,-5.4825,-5.4821,-5.5222,-5.5549,-5.2904,-5.0518,-4.8332,-4.4986,0.0,-4.8696,-4.9987,-5.204,-5.4692,-5.4692,-5.5057,-5.5615,-5.5024,-5.5019,-5.5648,-5.4328,-5.3997,-5.439,-5.1943,-4.9491,-4.7206,-4.3827,-4.1574,-4.058,-4.1872,-4.333,-4.4754,-4.6775,-4.7868,-4.8001,-4.8034,-4.8431,-4.9094,-4.9756,-4.979,-4.9127,-4.8332,-4.6941,-4.4787,-4.0746,-3.7135,-3.4121,0.0,0.0,0.0,0.0,0.0,0.0,0.0,0.0,0.0,0.0,0.0,0.0,0.0,0.0,0.0,-3.1085,0.0,-3.3395,-3.3991,0.0,0.0,0.0,-3.9016,-4.2283,-4.5228,-4.7631,-4.919,0.0,0.0,-5.3856,0.0,-5.5581,-5.7101,-5.5608,-5.4121,-5.3278,-5.3605,-5.3735,-5.2941,-5.2602,-5.2764,-5.4381,-5.5542,-5.7025,-5.8555,-5.9831,-6.0258,-6.0331,-6.1153,-6.1929,-6.1936,-6.1689,-6.14,-6.1366,-6.0622,-6.0283,-6.0148,-6.0114,-6.0148,-6.0047,-6.0182,-6.0283,-6.2245,-6.208,-6.0365,-5.8641,-5.7111,-5.7077,-5.7376,-5.7839,-5.7839,-5.7641,-5.7177,-5.5951,-5.4494,-5.2937,-5.2007,-5.2404,-5.3831,-5.4195,-5.499,-5.615,-5.6183,-5.6249,-5.6415,-5.6249,-5.6249,-5.6382,-5.6084,-5.5719,-5.5317,-5.4622,-5.2937,-5.0286,-4.8796,-4.5781,-4.1409,-4.2605,-4.4092,-4.5516,-4.6046,-4.6874,-4.7968,-4.8564,-4.8928,-4.9094,-4.9293,-4.9293,-4.9094,-4.7835,-4.6676,-4.5516,-4.2402,-3.9322,-3.6439,-3.0808,0.0,0.0,0.0,0.0,0.0,0.0,0.0,0.0,0.0,-2.8986,-2.2559,0.0,-3.1073,0.0,-3.4097,-3.7168,-3.8479,-3.8771,0.0,0.0,-4.3423,-4.4737,-4.8373,-5.1463,-5.3112,-5.247,-5.5378,-5.7509,-5.7679,-5.8355,-5.9464,-6.1234,-5.8005,-5.4728,-5.3135,-5.5696,-5.7554,-5.7137,-5.8392,-5.9895,-5.9857,-6.0314,-6.051,-6.0784,-6.1098,-6.132,-6.1158,-6.1616,-6.1997,-6.2037,-6.2127,-6.2144,-6.2144,-6.1941,-6.1873,-6.1806,-6.14,-6.1028,-6.1028,-6.1434,-6.1806,-6.3315,-6.3282,-6.2884,-6.1384,-5.9429,-5.9728,-5.9893,-5.986,-5.9529,-5.9164,-5.8701,-5.7674,-5.6746,-5.5984,-5.5984,-5.6216,-5.6581,-5.6912,-5.7309,-5.7674,-5.7674,-5.7674,-5.7641,-5.7342,-5.7177,-5.7177,-5.6846,-5.6481,-5.6117,-5.6084,-5.5123,-5.3235,-5.2837,-5.0353,-4.5947,-4.4986,-4.4854,-4.5284,-4.5616,-4.6676,-4.8431,-4.8895,-4.8663,-4.7703,-4.8266,-4.7835,-4.6245,-4.5384,-4.4324,-4.2932,-4.1044,-3.8931,-3.6704,-3.2652,-2.9781,0.0,0.0,0.0,0.0,0.0,0.0,0.0,0.0,0.0,0.0,0.0,-3.4987,-3.4485,-3.8791,-4.2038,-4.3164,-4.4188,-4.6041,-4.8995,-4.9626,-5.1192,-5.4709,-5.6966,-5.8257,-5.8305,-6.0173,-6.1501,-6.1501,-6.1839,-6.2336,-6.3081,-6.0762,-5.8564,-5.7586,-5.905,-6.0102,-6.0047,-6.0979,-6.1823,-6.1823,-6.1669,-6.1506,-6.1334,-6.1642,-6.1883,-6.1833,-6.2397,-6.2885,-6.2851,-6.3128,-6.3362,-6.3362,-6.3396,-6.3396,-6.3328,-6.3057,-6.255,-6.1941,-6.211,-6.2415,-6.357,-6.3537,-6.3514,-6.2312,-6.0622,-6.1152,-6.1086,-6.049,-5.9761,-5.9529,-5.9661,-5.8668,-5.8204,-5.8204,-5.8104,-5.8071,-5.8104,-5.8634,-5.8899,-5.8899,-5.8899,-5.8899,-5.8866,-5.8237,-5.7939,-5.7906,-5.7177,-5.6812,-5.6812,-5.6746,-5.6249,-5.535,-5.5317,-5.393,-5.1149,-4.8,-4.5847,-4.4854,-4.5649,-4.6974,-4.8763,-4.863,-4.7636,-4.5814,-4.6742,-4.5814,-4.2671,-4.2307,-4.1375,-3.958,-3.8825,-3.7996,-3.6837,-3.4651,-3.3193,0.0,-3.0609,0.0,0.0,0.0,0.0,0.0,0.0,0.0,0.0,-3.8802,-3.9814,-4.0475,-4.4254,-4.704,-4.8067,-4.9922,-5.191,-5.403,-5.5388,-5.736,-6.0224,-6.1428,-6.2676,-6.4285,-6.4626,-6.4715,-6.4607,-6.4708,-6.4356,-6.347,-6.3127,-6.2717,-6.2714,-6.2144,-6.1776,-6.1936,-6.1683,-6.1758,-6.1684,-6.1576,-6.1576,-6.1525,-6.1998,-6.2396,-6.2354,-6.3157,-6.3852,-6.3894,-6.4158,-6.4512,-6.4613,-6.4546,-6.458,-6.4478,-6.4444,-6.4038,-6.3057,-6.2753,-6.2685,-6.4995,-6.4962,-6.4399,-6.3935,-6.3537,-6.304,-6.0821,-5.7475,-5.6746,-5.7111,-5.8303,-5.9827,-6.049,-6.0423,-5.986,-5.9595,-5.9562,-5.9098,-5.8899,-5.8899,-5.8899,-5.8899,-5.8899,-5.8767,-5.8701,-5.8634,-5.7939,-5.7574,-5.7574,-5.6978,-5.5719,-5.3827,-5.3831,-5.2672,-5.0486,0.0,0.0,0.0,-4.6908,-4.7504,-4.7272,-4.6146,-4.5317,-4.4887,-4.4026,0.0,-4.2506,-4.1409,-4.0641,-4.021,-4.0078,0.0,0.0,0.0,0.0,0.0,0.0,0.0,0.0,0.0,0.0,0.0,-4.0446,-3.9754,-3.9906,-4.3157,-4.5846,-4.7173,-4.9624,-5.2142,-5.4593,-5.5189,-5.6349,-5.8469,-5.9159,-6.0191,-6.2096,-6.3172,-6.4218,-6.5275,-6.5459,-6.5452,-6.521,-6.5244,-6.4774,-6.3735,-6.371,-6.371,-6.3466,-6.2958,-6.2765,-6.3133,-6.3166,-6.3266,-6.314,-6.3191,-6.3049,-6.3003,-6.3112,-6.3254,-6.3126,-6.3491,-6.3886,-6.3919,-6.4293,-6.4613,-6.4647,-6.4613,-6.4715,-6.4613,-6.4647,-6.4512,-6.4241,-6.4174,-6.4174,-6.5425,0.0,-6.5028,-6.4266,0.0,-6.2917,-6.0854,-5.7839,-5.8933,-5.9628,-6.0067,-6.1119,-6.1417,-6.102,-5.9562,-5.8899,-5.8833,-5.7409,-5.7309,-5.8336,-5.8336,-5.8933,-5.9993,-5.9628,-5.9463,-5.9429,-5.8701,-5.8336,-5.8303,-5.7574,-5.668,-5.5587,-5.5222,-5.446,-5.3434,-5.34,-5.1976,-4.9094,-4.9061,-4.9226,-4.9558,-4.8564,-4.7073,-4.5317,0.0,0.0,0.0,0.0,0.0,0.0,0.0,0.0,0.0,0.0,0.0,-4.1309,-4.005,-4.0321,-4.2767,-4.2336,-4.3658,-4.7634,-4.8331,-4.7601,-4.5507,-4.8597,-5.128,-5.2705,-5.4195,-5.5951,-5.8071,-5.8668,-5.9463,-6.0887,-6.1509,-6.2266,-6.3348,-6.4094,-6.4799,-6.553,-6.548,-6.532,-6.5194,-6.4892,-6.4472,-6.3893,-6.345,-6.3342,-6.3557,-6.34,-6.3299,-6.342,-6.353,-6.3572,-6.3487,-6.353,-6.3572,-6.3358,-6.3401,-6.3444,-6.3444,-6.3709,-6.4061,-6.4522,-6.4915,-6.5222,-6.5628,-6.5696,-6.5696,-6.5696,-6.5696,-6.5696,-6.5662,-6.5121,-6.4613,-6.5425,-6.5425,-6.5425,-6.4399,-6.2742,-6.2785,-6.1715,-6.0191,0.0,0.0,0.0,-6.2221,-6.198,-6.1185,-5.9363,-5.8502,-5.827,-5.6514,-5.6647,-5.8369,-5.8369,-5.933,-6.1053,-6.049,-6.0191,-6.0158,-5.9429,-5.9098,-5.9065,-5.8336,-5.7906,-5.774,-5.7177,-5.6812,-5.6713,-5.668,-5.5521,-5.3238,-5.1481,-5.1116,-5.2144,-5.1116,-4.8995,-4.5847,-4.6146,-4.4821,-4.1773,-4.2175,-4.2208,-4.1612,-4.121,-4.1342,-4.2104,-4.1773,-4.2303,-4.3926,-4.4029,-4.575,-4.9558,-4.9193,-5.022,-5.3566,-5.5118,-5.4663,-5.1554,-5.3772,-5.5852,-5.7177,-5.7806,-5.8767,-6.0225,-6.092,-6.1583,-6.2321,-6.3083,-6.3746,-6.432,-6.4684,-6.509,-6.5534,-6.5273,-6.4848,-6.4504,-6.4078,-6.3676,-6.3392,-6.2691,-6.2474,-6.3115,-6.3339,-6.342,-6.3358,-6.3358,-6.3315,-6.3315,-6.3315,-6.3315,-6.3315,-6.3315,-6.3401,-6.3572,-6.3793,-6.4313,-6.4917,-6.547,-6.5899,-6.644,-6.6609,-6.6812,-6.6812,-6.6812,-6.6812,-6.6711,-6.5865,-6.5087,-6.5425,-6.5425,-6.5425,-6.5227,-6.4962,-6.4962,-6.4796,-6.4332,-6.2312,-6.102,-6.0423,-6.2312,-6.2752,-6.2056,-6.1724,-6.1218,-6.0655,-6.0324,-6.0357,0.0,-6.0655,-6.0788,-6.1119,-6.102,-6.0953,-6.0887,-6.0191,-5.986,-5.9761,-5.9098,-5.8436,-5.7873,-5.7674,-5.7309,-5.6746,-5.668,-5.6481,-5.6017,-5.3434,-5.1912,-5.1448,-4.8862,-4.6974,-4.5847,-4.4754,-4.3532,-4.2406,-4.2473,-4.244,-4.234,-4.2866,-4.3761,-4.5086,-4.5682,-4.7206,-4.979,-5.0089,-5.0883,-5.2638,-5.2142,-5.2771,-5.5052,-5.668,-5.6713,-5.5123,-5.6945,-5.8634,-5.9463,-5.9628,-6.0291,-6.1691,-6.1989,-6.2387,-6.3083,-6.3769,-6.4353,-6.466,-6.5203,-6.5424,-6.5163,-6.5048,-6.4361,-6.3233,-6.2824,-6.2449,-6.1783,-6.1609,-6.1476,-6.19,-6.2647,-6.3259,-6.3315,-6.3315,-6.3315,-6.3192,-6.3282,-6.3183,-6.3315,-6.3344,-6.3363,-6.3415,-6.371,-6.4102,-6.442,-6.5099,-6.5662,-6.5899,-6.6406,-6.6745,-6.6812,-6.6812,-6.6812,-6.6812,-6.6508,-6.6406,-6.5425,-6.5425,-6.5425,-6.5425,-6.5425,-6.5425,-6.5425,-6.5293,-6.4034,-6.304,-6.251,-6.3481,-6.3514,-6.2719,-6.155,-6.0357,-5.9264,-5.8502,-5.8336,-5.8734,-5.9131,-5.996,-6.1053,-6.1119,-6.1119,-6.1086,-6.0788,-6.0589,-6.0523,-5.986,-5.933,-5.8966,-5.8204,-5.7608,-5.7276,-5.6879,-5.668,-5.6647,-5.5388,-5.4361,-5.3632,-5.1943,-5.0684,-4.9922,-4.8166,-4.7008,-4.6677,-4.5882,-4.5682,-4.6048,-4.6411,-4.7272,-4.8696,-4.9094,-5.0055,-5.1746,-5.1912,-5.2506,-5.393,-5.4825,-5.5752,-5.6746,-5.8171,-5.8734,-5.8071,-5.8899,-5.9794,-6.0523,-6.092,-6.145,-6.2188,-6.2842,-6.3471,-6.3835,-6.4531,-6.4973,-6.5061,-6.5337,-6.5348,-6.477,-6.4304,-6.3639,-6.2481,-6.2016,-6.1642,-6.1152,-6.1119,-6.1161,-6.121,-6.1733,-6.2164,-6.2341,-6.2341,-6.2299,-6.2416,-6.2299,-6.229,-6.229,-6.2248,-6.2332,-6.2499,-6.2788,-6.3153,-6.3768,-6.4566,-6.5222,-6.5595,-6.6305,-6.6711,-6.6812,-6.6812,-6.6812,-6.6812,-6.6812,-6.6812,-6.5425,-6.5425,-6.5425,-6.5425,-6.5425,-6.5425,-6.5425,-6.5425,-6.5392,-6.5127,-6.4664,-6.4597,-6.42,-6.3415,-6.1715,-6.0291,-5.8999,-5.7873,-5.7508,-5.774,-5.8436,-5.9529,-6.0755,-6.102,-6.1119,-6.1119,-6.1119,-6.1119,-6.1053,-6.0523,-6.0158,-5.9893,-5.8668,-5.7972,-5.7806,-5.721,-5.6846,-5.6713,-5.668,-5.6415,-5.5885,-5.5156,-5.4394,-5.3599,-5.1877,-5.085,-5.0651,-4.9591,-4.926,-4.979,-4.9856,-5.0353,-5.1448,-5.1547,-5.1945,-5.2738,-5.287,-5.3566,-5.5156,-5.6812,-5.7939,-5.8303,-5.933,-6.0059,-6.0225,-6.0258,-6.0456,-6.1086,-6.1715,-6.2221,-6.2586,-6.3537,-6.4399,-6.4597,-6.5061,-6.5359,-6.5392,-6.5425,-6.516,-6.4432,-6.3736,-6.305,-6.2321,-6.155,-6.1152,-6.1119,-6.1119,-6.1119,-6.1161,-6.1127,-6.1252,-6.1506,-6.1506,-6.1442,-6.1539,-6.145,-6.1401,-6.1334,-6.1285,-6.1467,-6.1714,-6.1795,-6.23,-6.333,-6.4262,-6.5012,-6.5662,-6.6305,-6.6745,-6.6812,-6.6812,-6.6812,-6.6812,-6.6812,-6.6812,-6.5425,-6.5425,-6.5425,-6.5425,-6.5425,-6.5425,-6.5425,-6.5425,-6.5425,-6.5392,-6.5293,-6.5326,-6.4929,-6.4332,-6.4001,-6.3372,-6.261,-6.261,-6.1815,-6.0788,-6.1417,-6.1227,-6.0291,-6.0821,-6.1119,-6.1086,-6.1086,-6.1119,-6.1119,-6.102,-6.0655,-5.9993,-5.9198,-5.8469,-5.7906,-5.774,-5.7376,-5.6713,-5.668,-5.6647,-5.6581,-5.5885,-5.5152,-5.4427,-5.3566,-5.2804,-5.2208,-5.2111,-5.2011,-5.2075,-5.2009,-5.2177,-5.231,-5.231,-5.2904,-5.4195,-5.4328,-5.5256,-5.721,-5.7674,-5.8403,-5.9628,-5.9893,-6.0291,-6.0887,-6.0986,-6.102,-6.1218,-6.1748,-6.252,-6.3183,-6.3935,-6.4664,-6.516,-6.5359,-6.5425,-6.5425,-6.5425,-6.516,-6.4465,-6.3736,-6.305,-6.2321,-6.155,-6.1152,-6.1119,-6.1119,-6.1127,-6.1252,-6.1169,-6.121,-6.1499,-6.1375,-6.1169,-6.121,-6.1127,-6.1169,-6.1169,-6.1293,-6.1375,-6.1565,-6.2122,-6.2863,-6.2966,-6.4259,-6.5185,-6.5579,-6.6271,-6.6745,-6.6812,-6.6812,-6.6812,-6.6812,-6.6812,-6.6812,-6.5425,-6.5425,-6.5425,-6.5425,-6.5425,-6.5425,-6.5425,-6.5425,-6.5425,-6.5425,-6.5425,-6.5425,-6.526,-6.4995,-6.4995,-6.4365,-6.3382,-6.3779,-6.314,-6.1881,-6.2477,-6.2047,-6.0854,-6.1384,-6.1318,-6.0556,-6.0887,-6.1119,-6.1119,-6.1119,-6.0953,-6.0622,-5.9926,-5.9396,-5.9098,-5.8668,-5.8104,-5.7376,-5.7342,-5.7144,-5.6713,-5.6415,-5.6117,-5.5719,-5.4692,-5.3964,-5.3599,-5.287,-5.2409,-5.2442,-5.2771,-5.3202,-5.3632,-5.4063,-5.4759,-5.5719,-5.6216,-5.7044,-5.8336,-5.8833,-5.9363,-5.9993,-6.0423,-6.0821,-6.1086,-6.1483,-6.1583,-6.1318,-6.2146,-6.315,-6.3879,-6.4564,-6.5094,-6.5359,-6.5425,-6.5425,-6.5425,-6.5425,-6.516,-6.4465,-6.3736,-6.305,-6.2321,-6.155,-6.1152,-6.1119,-6.1119,-6.1161,-6.1244,-6.1127,-6.1169,-6.1293,-6.1169,-6.121,-6.1375,-6.1301,-6.1293,-6.1293,-6.1252,-6.1252,-6.1483,-6.2058,-6.259,-6.2393,-6.3758,-6.4723,-6.478,-6.5621,-6.6237,-6.6542,-6.6812,-6.6812,-6.6812,-6.6812,-6.6812,-6.5425,-6.5425,-6.5425,-6.5425,-6.5425,-6.5425,-6.5425,-6.5425,-6.5425,-6.5425,-6.5425,-6.5425,-6.5425,-6.5425,-6.5425,-6.4829,-6.4034,-6.4399,-6.3868,-6.2719,-6.3282,-6.2808,-6.155,-6.1682,-6.1318,-6.0523,-6.0622,-6.0887,-6.1086,-6.1119,-6.1119,-6.102,-6.0556,-6.0191,-5.996,-5.9429,-5.8833,-5.8138,-5.774,-5.721,-5.6713,-5.6481,-5.6481,-5.6547,-5.5686,-5.5123,-5.509,-5.4096,-5.3566,-5.3603,-5.4063,-5.456,-5.509,-5.562,-5.6216,-5.6945,-5.7475,-5.8204,-5.9131,-5.9694,-6.0092,-6.0324,-6.0821,-6.1218,-6.1417,-6.1715,-6.1848,-6.1914,-6.2676,-6.3504,-6.4034,-6.4895,-6.5392,-6.5425,-6.5425,-6.5425,-6.5425,-6.5425,-6.5227,-6.4697,-6.41,-6.3348,-6.2619,-6.1956,-6.1483,-6.1748,-6.1583,-6.1516,-6.1583,-6.1583,-6.1483,-6.1649,-6.1417,-6.121,-6.1465,-6.1417,-6.1301,-6.1293,-6.1169,-6.1169,-6.1326,-6.1966,-6.2482,-6.249,-6.3458,-6.4262,-6.4866,-6.5429,-6.5925,-6.6542,-6.6812,-6.6812,-6.6812,-6.6812,-6.6812,-6.5425,-6.5425,-6.5425,-6.5425,-6.5425,-6.5425,-6.5425,-6.5425,-6.5425,-6.5425,-6.5425,-6.5425,-6.5425,-6.5425,-6.5425,-6.5359,-6.526,-6.5293,-6.4597,-6.3438,-6.4001,-6.3537,-6.2188,-6.1483,-6.1152,-6.092,-6.0456,-6.049,-6.1053,-6.1119,-6.1119,-6.1086,-6.102,-6.0688,-6.0158,-5.9993,-5.9595,-5.8833,-5.7674,-5.6846,-5.668,-5.6117,-5.6183,-5.6746,-5.6581,-5.6481,-5.6514,-5.6481,-5.6415,-5.6448,-5.6349,-5.6481,-5.6547,-5.6614,-5.6978,-5.7641,-5.7806,-5.8469,-5.9728,-6.0026,-6.0324,-6.0887,-6.1119,-6.1384,-6.1848,-6.1748,-6.1947,-6.3017,-6.3239,-6.3514,-6.357,-6.4697,-6.5392,-6.5425,-6.5425,-6.5425,-6.5425,-6.5425,-6.5425,-6.5227,-6.4664,-6.3902,-6.3315,-6.2619,-6.252,-6.2709,-6.2543,-6.2354,-6.2742,-6.2553,-6.2487,-6.2577,-6.208,-6.1152,-6.1194,-6.1368,-6.1302,-6.1326,-6.1459,-6.1285,-6.1384,-6.1658,-6.2115,-6.2574,-6.34,-6.417,-6.5001,-6.5615,-6.6002,-6.6458,-6.6736,-6.6812,-6.6812,-6.6812,-6.6812,-6.5425,-6.5425,-6.5425,-6.5425,-6.5425,-6.5425,-6.5425,-6.5425,-6.5425,-6.5425,-6.5425,-6.5425,-6.5425,-6.5425,-6.5425,-6.5425,-6.5425,-6.5425,-6.5127,-6.4664,-6.4929,-6.4266,-6.305,-6.3073,-6.2378,-6.1185,-6.0854,-6.0589,-6.0456,-6.0854,-6.1119,-6.1119,-6.1119,-6.0953,-6.0755,-6.0721,-6.0357,-5.9628,-5.9032,-5.8568,-5.8104,-5.7839,-5.7873,-5.8005,-5.7177,-5.668,-5.668,-5.668,-5.668,-5.668,-5.668,-5.668,-5.6746,-5.7144,-5.7707,-5.8436,-5.8933,-5.9661,-6.0523,-6.0688,-6.0788,-6.1086,-6.155,-6.1682,-6.1748,-6.2477,-6.3073,-6.2951,-6.3968,-6.4432,-6.4233,-6.4862,-6.5425,-6.5425,-6.5425,-6.5425,-6.5425,-6.5425,-6.5425,-6.5326,-6.4829,-6.41,-6.3537,-6.3083,-6.305,-6.3173,-6.304,-6.3083,-6.3216,-6.305,-6.305,-6.3183,-6.2842,-6.251,-6.251,-6.2089,-6.189,-6.2022,-6.208,-6.2378,-6.2619,-6.2908,-6.3401,-6.2713,-6.3287,-6.3991,-6.4874,-6.5775,-6.6129,-6.6525,-6.677,-6.677,-6.6812,-6.6812,-6.6812,-6.5425,-6.5425,-6.5425,-6.5425,-6.5425,-6.5425,-6.5425,-6.5425,-6.5425,-6.5425,-6.5425,-6.5425,-6.5425,-6.5425,-6.5425,-6.5425,-6.5425,-6.5425,-6.5425,-6.5425,-6.5425,-6.4895,-6.4133,-6.4001,-6.3272,-6.1848,-6.102,-6.049,-6.0125,-6.0523,-6.0755,-6.0721,-6.0953,-6.1119,-6.1119,-6.1119,-6.0854,-6.039,-5.9893,-5.9363,-5.8933,-5.8634,-5.8535,-5.8436,-5.7773,-5.7409,-5.7409,-5.7376,-5.7276,-5.7111,-5.7243,-5.7409,-5.7442,-5.7873,-5.8469,-5.9198,-5.9694,-6.0324,-6.0986,-6.1119,-6.1185,-6.145,-6.1923,-6.2122,-6.2212,-6.3305,-6.3514,-6.3448,-6.4067,-6.4829,-6.463,-6.4995,-6.5392,-6.5425,-6.5425,-6.5425,-6.5425,-6.5425,-6.5425,-6.5359,-6.5061,-6.4531,-6.4067,-6.3802,-6.3802,-6.3902,-6.3802,-6.367,-6.3902,-6.3769,-6.3736,-6.3868,-6.3504,-6.3415,-6.3481,-6.3206,-6.2742,-6.2818,-6.2808,-6.3206,-6.3547,-6.3935,-6.3945,-6.3183,-6.3245,-6.3915,-6.4738,-6.5673,-6.6255,-6.6652,-6.6686,-6.6643,-6.6728,-6.6812,-6.6812,-6.5425,-6.5425,-6.5425,-6.5425,-6.5425,-6.5425,-6.5425,-6.5425,-6.5425,-6.5425,-6.5425,-6.5425,-6.5425,-6.5425,-6.5425,-6.5425,-6.5425,-6.5425,-6.5425,-6.5425,-6.5425,-6.5392,-6.516,-6.4133,-6.3514,-6.2974,-6.1119,-6.0158,-6.0125,-6.0225,-6.0225,-6.0225,-6.0755,-6.102,-6.1119,-6.1119,-6.1086,-6.0788,-5.9827,-5.9131,-5.8866,-5.8502,-5.8237,-5.8204,-5.8601,-5.8899,-5.8899,-5.88,-5.8436,-5.7939,-5.8403,-5.8866,-5.8734,-5.8866,-5.9198,-5.9794,-5.9993,-6.039,-6.0986,-6.1152,-6.1516,-6.2022,-6.2255,-6.2884,-6.3614,-6.3703,-6.3736,-6.4067,-6.4365,-6.4465,-6.4531,-6.4995,-6.5425,-6.5425,-6.5425,-6.5425,-6.5425,-6.5425,-6.5425,-6.5392,-6.5326,-6.5392,-6.526,-6.4763,-6.4564,-6.4895,-6.473,-6.4531,-6.4929,-6.4664,-6.473,-6.4862,-6.4432,-6.4001,-6.42,-6.4332,-6.3902,-6.357,-6.357,-6.3703,-6.3835,-6.4167,-6.41,-6.3547,-6.3534,-6.4171,-6.49,-6.577,-6.61,-6.643,-6.6473,-6.6592,-6.6677,-6.6728,-6.677,-6.5425,-6.5425,-6.5425,-6.5425,-6.5425,-6.5425,-6.5425,-6.5425,-6.5425,-6.5425,-6.5425,-6.5425,-6.5425,-6.5425,-6.5425,-6.5425,-6.5425,-6.5425,-6.5425,-6.5425,-6.5425,-6.5425,-6.5326,-6.4962,-6.4233,-6.3382,-6.2643,-6.1715,-6.092,-6.0755,-6.0755,-6.0755,-6.049,-6.0655,-6.1053,-6.1119,-6.1119,-6.1053,-6.0655,-6.0423,-6.0423,-6.0191,-6.0059,-6.0092,-6.0291,-6.0423,-6.0357,-5.9429,-5.8833,-5.8568,-5.8767,-5.8899,-5.8999,-5.9396,-5.9761,-5.9993,-6.049,-6.0821,-6.1119,-6.155,-6.1914,-6.2354,-6.3116,-6.3537,-6.3779,-6.4332,-6.4531,-6.4498,-6.4763,-6.5094,-6.5127,-6.526,-6.5392,-6.5425,-6.5425,-6.5425,-6.5425,-6.5425,-6.5425,-6.5425,-6.5425,-6.5425,-6.5392,-6.5127,-6.5127,-6.5326,-6.5194,-6.5194,-6.5293,-6.5194,-6.5127,-6.5293,-6.4829,-6.4597,-6.4763,-6.4895,-6.4664,-6.4399,-6.4365,-6.4299,-6.4365,-6.4399,-6.4299,-6.421,-6.4198,-6.4451,-6.518,-6.5644,-6.5975,-6.6215,-6.6345,-6.643,-6.6592,-6.6677,-6.677,-6.5425,-6.5425,-6.5425,-6.5425,-6.5425,-6.5425,-6.5425,-6.5425,-6.5425,-6.5425,-6.5425,-6.5425,-6.5425,-6.5425,-6.5425,-6.5425,-6.5425,-6.5425,-6.5425,-6.5425,-6.5425,-6.5425,-6.5425,-6.5425,-6.4862,-6.3802,-6.3448,-6.2676,-6.155,-6.1218,-6.1119,-6.0986,-6.0357,-6.0225,-6.0655,-6.0721,-6.0688,-6.0721,-6.0953,-6.1119,-6.1119,-6.1119,-6.1119,-6.1119,-6.1119,-6.1119,-6.1053,-6.0158,-5.9562,-5.9363,-5.9297,-5.9429,-5.9694,-6.0158,-6.0423,-6.049,-6.0821,-6.1218,-6.1516,-6.1956,-6.252,-6.3083,-6.3835,-6.4299,-6.4233,-6.5028,-6.5127,-6.4895,-6.5127,-6.5425,-6.5392,-6.5425,-6.5425,-6.5425,-6.5425,-6.5425,-6.5425,-6.5425,-6.5425,-6.5425,-6.5425,-6.5425,-6.5425,-6.5425,-6.5425,-6.5425,-6.5425,-6.5425,-6.5425,-6.5392,-6.5425,-6.5425,-6.526,-6.5194,-6.5326,-6.5359,-6.5392,-6.526,-6.5194,-6.5094,-6.5061,-6.5061,-6.4995,-6.4862,-6.4818,-6.4851,-6.5437,-6.5559,-6.5824,-6.5999,-6.6172,-6.6345,-6.6473,-6.6686,-6.677,-6.5425,-6.5425,-6.5425,-6.5425,-6.5425,-6.5425,-6.5425,-6.5425,-6.5425,-6.5425,-6.5425,-6.5425,-6.5425,-6.5425,-6.5425,-6.5425,-6.5425,-6.5425,-6.5425,-6.5425,-6.5425,-6.5425,-6.5425,-6.5425,-6.5028,-6.4432,-6.3835,-6.3107,-6.2453,-6.1781,-6.1218,-6.1185,-6.0556,-6.0026,-6.0125,-6.0026,-6.0092,-6.0191,-6.0688,-6.0986,-6.1086,-6.1119,-6.1119,-6.1119,-6.1119,-6.1119,-6.1086,-6.092,-6.0655,-6.0158,-6.0059,-6.0324,-6.0887,-6.1086,-6.1053,-6.102,-6.1119,-6.155,-6.198,-6.2453,-6.3017,-6.4001,-6.4332,-6.463,-6.516,-6.5293,-6.5392,-6.5293,-6.5359,-6.5425,-6.5425,-6.5425,-6.5425,-6.5425,-6.5425,-6.5425,-6.5425,-6.5425,-6.5425,-6.5425,-6.5425,-6.5425,-6.5425,-6.5425,-6.5425,-6.5425,-6.5425,-6.5425,-6.5425,-6.5425,-6.5425,-6.5425,-6.5425,-6.5425,-6.5425,-6.5425,-6.5425,-6.5425,-6.5425,-6.5425,-6.5425,-6.5425,-6.5425,-6.5326,-6.526,-6.5359,-6.5437,-6.5526,-6.5603,-6.5736,-6.5955,-6.6172,-6.6388,-6.6601,-6.677,-6.5425,-6.5425,-6.5425,-6.5425,-6.5425,-6.5425,-6.5425,-6.5425,-6.5425,-6.5425,-6.5425,-6.5425,-6.5425,-6.5425,-6.5425,-6.5425,-6.5425,-6.5425,-6.5425,-6.5425,-6.5425,-6.5425,-6.5425,-6.5425,-6.5326,-6.5061,-6.4829,-6.4498,-6.3846,-6.3007,-6.2444,-6.1848,-6.1185,-6.0523,-6.0092,-6.0059,-5.9993,-5.9993,-6.0191,-6.0622,-6.1053,-6.1119,-6.1119,-6.1119,-6.1119,-6.1119,-6.1119,-6.1119,-6.1053,-6.0854,-6.0821,-6.0887,-6.1086,-6.1119,-6.1119,-6.1218,-6.1616,-6.1989,-6.2387,-6.3216,-6.3968,-6.4332,-6.4829,-6.5194,-6.5359,-6.5425,-6.5425,-6.5425,-6.5425,-6.5425,-6.5425,-6.5425,-6.5425,-6.5425,-6.5425,-6.5425,-6.5425,-6.5425,-6.5425,-6.5425,-6.5425,-6.5425,-6.5425,-6.5425,-6.5425,-6.5425,-6.5425,-6.5425,-6.5425,-6.5425,-6.5425,-6.5425,-6.5425,-6.5425,-6.5425,-6.5425,-6.5425,-6.5425,-6.5425,-6.5425,-6.5425,-6.5425,-6.5425,-6.5392,-6.5359,-6.5392,-6.5392,-6.547,-6.5514,-6.5559,-6.5824,-6.6129,-6.6268,-6.644,-6.6686,-6.5425,-6.5425,-6.5425,-6.5425,-6.5425,-6.5425,-6.5425,-6.5425,-6.5425,-6.5425,-6.5425,-6.5425,-6.5425,-6.5425,-6.5425,-6.5425,-6.5425,-6.5425,-6.5425,-6.5425,-6.5425,-6.5425,-6.5425,-6.5425,-6.5425,-6.5425,-6.5425,-6.5194,-6.473,-6.41,-6.3547,-6.3017,-6.2047,-6.1185,-6.0556,-6.0456,-6.0291,-6.0125,-6.0291,-6.0721,-6.1086,-6.1119,-6.1119,-6.1119,-6.1119,-6.1119,-6.1119,-6.1119,-6.1119,-6.1086,-6.1119,-6.1119,-6.1119,-6.1119,-6.1218,-6.1516,-6.198,-6.242,-6.3183,-6.3968,-6.4465,-6.4796,-6.526,-6.5359,-6.5425,-6.5425,-6.5425,-6.5425,-6.5425,-6.5425,-6.5425,-6.5425,-6.5425,-6.5425,-6.5425,-6.5425,-6.5425,-6.5425,-6.5425,-6.5425,-6.5425,-6.5425,-6.5425,-6.5425,-6.5425,-6.5425,-6.5425,-6.5425,-6.5425,-6.5425,-6.5425,-6.5425,-6.5425,-6.5425,-6.5425,-6.5425,-6.5425,-6.5425,-6.5425,-6.5425,-6.5425,-6.5425,-6.5425,-6.5425,-6.5425,-6.5425,-6.5425,-6.5425,-6.5425,-6.5559,-6.579,-6.6009,-6.6139,-6.643,-6.6643,-6.5425,-6.5425,-6.5425,-6.5425,-6.5425,-6.5425,-6.5425,-6.5425,-6.5425,-6.5425,-6.5425,-6.5425,-6.5425,-6.5425,-6.5425,-6.5425,-6.5425,-6.5425,-6.5425,-6.5425,-6.5425,-6.5425,-6.5425,-6.5425,-6.5425,-6.5425,-6.5425,-6.5392,-6.516,-6.4697,-6.4432,-6.3968,-6.2984,-6.2013,-6.1318,-6.1119,-6.0721,-6.039,-6.0523,-6.0854,-6.1053,-6.1119,-6.1119,-6.1119,-6.1119,-6.1119,-6.1119,-6.1119,-6.1119,-6.1119,-6.1119,-6.1185,-6.1185,-6.1251,-6.1616,-6.2212,-6.2586,-6.3107,-6.4067,-6.4399,-6.4763,-6.5227,-6.5359,-6.5425,-6.5425,-6.5425,-6.5425,-6.5425,-6.5425,-6.5425,-6.5425,-6.5425,-6.5425,-6.5425,-6.5425,-6.5425,-6.5425,-6.5425,-6.5425,-6.5425,-6.5425,-6.5425,-6.5425,-6.5425,-6.5425,-6.5425,-6.5425,-6.5425,-6.5425,-6.5425,-6.5425,-6.5425,-6.5425,-6.5425,-6.5425,-6.5425,-6.5425,-6.5425,-6.5425,-6.5425,-6.5425,-6.5425,-6.5425,-6.5425,-6.5425,-6.5425,-6.5425,-6.5425,-6.5425,-6.5514,-6.5746,-6.5878,-6.6052,-6.643,-6.6686,-6.5425,-6.5425,-6.5425,-6.5425,-6.5425,-6.5425,-6.5425,-6.5425,-6.5425,-6.5425,-6.5425,-6.5425,-6.5425,-6.5425,-6.5425,-6.5425,-6.5425,-6.5425,-6.5425,-6.5425,-6.5425,-6.5425,-6.5425,-6.5425,-6.5425,-6.5425,-6.5425,-6.5425,-6.5326,-6.5194,-6.4895,-6.4299,-6.4034,-6.3239,-6.2113,-6.1583,-6.1053,-6.0821,-6.0556,-6.0688,-6.1053,-6.1119,-6.1119,-6.1119,-6.1119,-6.1119,-6.1119,-6.1119,-6.1119,-6.1119,-6.1152,-6.1318,-6.1748,-6.1848,-6.2212,-6.2951,-6.358,-6.3968,-6.4399,-6.4862,-6.5227,-6.5359,-6.5425,-6.5425,-6.5425,-6.5425,-6.5425,-6.5425,-6.5425,-6.5425,-6.5425,-6.5425,-6.5425,-6.5425,-6.5425,-6.5425,-6.5425,-6.5425,-6.5425,-6.5425,-6.5425,-6.5425,-6.5425,-6.5425,-6.5425,-6.5425,-6.5425,-6.5425,-6.5425,-6.5425,-6.5425,-6.5425,-6.5425,-6.5425,-6.5425,-6.5425,-6.5425,-6.5425,-6.5425,-6.5425,-6.5425,-6.5425,-6.5425,-6.5425,-6.5425,-6.5425,-6.5425,-6.5425,-6.5425,-6.5559,-6.5658,-6.5834,-6.6086,-6.643,-6.672,-6.5425,-6.5425,-6.5425,-6.5425,-6.5425,-6.5425,-6.5425,-6.5425,-6.5425,-6.5425,-6.5425,-6.5425,-6.5425,-6.5425,-6.5425,-6.5425,-6.5425,-6.5425,-6.5425,-6.5425,-6.5425,-6.5425,-6.5425,-6.5425,-6.5425,-6.5425,-6.5425,-6.5425,-6.5425,-6.5392,-6.5194,-6.4862,-6.4829,-6.4299,-6.3415,-6.2775,-6.2278,-6.1682,-6.1251,-6.1119,-6.1119,-6.1119,-6.1119,-6.1119,-6.1119,-6.1119,-6.1119,-6.1119,-6.1119,-6.1119,-6.1119,-6.1417,-6.1914,-6.1914,-6.2378,-6.357,-6.3703,-6.4299,-6.4763,-6.5194,-6.5392,-6.5425,-6.5425,-6.5425,-6.5425,-6.5425,-6.5425,-6.5425,-6.5425,-6.5425,-6.5425,-6.5425,-6.5425,-6.5425,-6.5425,-6.5425,-6.5425,-6.5425,-6.5425,-6.5425,-6.5425,-6.5425,-6.5425,-6.5425,-6.5425,-6.5425,-6.5425,-6.5425,-6.5425,-6.5425,-6.5425,-6.5425,-6.5425,-6.5425,-6.5425,-6.5425,-6.5425,-6.5425,-6.5425,-6.5425,-6.5425,-6.5425,-6.5425,-6.5425,-6.5425,-6.5425,-6.5425,-6.5425,-6.5425,-6.547,-6.5603,-6.578,-6.5999,-6.6302,-6.6558,-6.5425,-6.5425,-6.5425,-6.5425,-6.5425,-6.5425,-6.5425,-6.5425,-6.5425,-6.5425,-6.5425,-6.5425,-6.5425,-6.5425,-6.5425,-6.5425,-6.5425,-6.5425,-6.5425,-6.5425,-6.5425,-6.5425,-6.5425,-6.5425,-6.5425,-6.5425,-6.5425,-6.5425,-6.5425,-6.5425,-6.5359,-6.5359,-6.5392,-6.4995,-6.4597,-6.4332,-6.367,-6.2709,-6.2221,-6.1824,-6.1351,-6.1218,-6.1119,-6.1119,-6.1119,-6.1119,-6.1119,-6.1119,-6.1119,-6.1119,-6.1119,-6.1483,-6.1848,-6.1947,-6.2179,-6.4167,-6.4001,-6.4399,-6.5094,-6.5392,-6.5425,-6.5425,-6.5425,-6.5425,-6.5425,-6.5425,-6.5425,-6.5425,-6.5425,-6.5425,-6.5425,-6.5425,-6.5425,-6.5425,-6.5425,-6.5425,-6.5425,-6.5425,-6.5425,-6.5425,-6.5425,-6.5425,-6.5425,-6.5425,-6.5425,-6.5425,-6.5425,-6.5425,-6.5425,-6.5425,-6.5425,-6.5425,-6.5425,-6.5425,-6.5425,-6.5425,-6.5425,-6.5425,-6.5425,-6.5425,-6.5425,-6.5425,-6.5425,-6.5425,-6.5425,-6.5425,-6.5425,-6.5425,-6.5425,-6.5425,-6.5603,-6.5834,-6.6009,-6.6139,-6.6397,-6.5425,-6.5425,-6.5425,-6.5425,-6.5425,-6.5425,-6.5425,-6.5425,-6.5425,-6.5425,-6.5425,-6.5425,-6.5425,-6.5425,-6.5425,-6.5425,-6.5425,-6.5425,-6.5425,-6.5425,-6.5425,-6.5425,-6.5425,-6.5425,-6.5425,-6.5425,-6.5425,-6.5425,-6.5425,-6.5425,-6.5425,-6.5425,-6.5425,-6.526,-6.5061,-6.473,-6.4332,-6.367,-6.2951,-6.2321,-6.189,-6.1384,-6.1119,-6.1119,-6.1119,-6.1119,-6.1119,-6.1119,-6.1119,-6.1119,-6.1119,-6.1516,-6.2122,-6.2543,-6.3305,-6.41,-6.4597,-6.4895,-6.5326,-6.5425,-6.5425,-6.5425,-6.5425,-6.5425,-6.5425,-6.5425,-6.5425,-6.5425,-6.5425,-6.5425,-6.5425,-6.5425,-6.5425,-6.5425,-6.5425,-6.5425,-6.5425,-6.5425,-6.5425,-6.5425,-6.5425,-6.5425,-6.5425,-6.5425,-6.5425,-6.5425,-6.5425,-6.5425,-6.5425,-6.5425,-6.5425,-6.5425,-6.5425,-6.5425,-6.5425,-6.5425,-6.5425,-6.5425,-6.5425,-6.5425,-6.5425,-6.5425,-6.5425,-6.5425,-6.5425,-6.5425,-6.5425,-6.5425,-6.547,-6.5514,-6.5746,-6.5965,-6.6095,-6.6225,-6.643,-6.5425,-6.5425,-6.5425,-6.5425,-6.5425,-6.5425,-6.5425,-6.5425,-6.5425,-6.5425,-6.5425,-6.5425,-6.5425,-6.5425,-6.5425,-6.5425,-6.5425,-6.5425,-6.5425,-6.5425,-6.5425,-6.5425,-6.5425,-6.5425,-6.5425,-6.5425,-6.5425,-6.5425,-6.5425,-6.5425,-6.5425,-6.5425,-6.5425,-6.5425,-6.5359,-6.5127,-6.4697,-6.4299,-6.368,-6.2917,-6.2255,-6.1516,-6.1185,-6.1119,-6.1152,-6.1119,-6.1119,-6.1119,-6.1119,-6.1119,-6.1119,-6.1516,-6.2188,-6.2951,-6.3603,-6.4266,-6.473,-6.5061,-6.5326,-6.5425,-6.5425,-6.5425,-6.5425,-6.5425,-6.5425,-6.5425,-6.5425,-6.5425,-6.5425,-6.5425,-6.5425,-6.5425,-6.5425,-6.5425,-6.5425,-6.5425,-6.5425,-6.5425,-6.5425,-6.5425,-6.5425,-6.5425,-6.5425,-6.5425,-6.5425,-6.5425,-6.5425,-6.5425,-6.5425,-6.5425,-6.5425,-6.5425,-6.5425,-6.5425,-6.5425,-6.5425,-6.5425,-6.5425,-6.5425,-6.5425,-6.5425,-6.5425,-6.5425,-6.5425,-6.5425,-6.5425,-6.547,-6.5514,-6.5559,-6.5647,-6.5834,-6.6052,-6.6139,-6.6345,-6.6516,-6.5425,-6.5425,-6.5425,-6.5425,-6.5425,-6.5425,-6.5425,-6.5425,-6.5425,-6.5425,-6.5425,-6.5425,-6.5425,-6.5425,-6.5425,-6.5425,-6.5425,-6.5425,-6.5425,-6.5425,-6.5425,-6.5425,-6.5425,-6.5425,-6.5425,-6.5425,-6.5425,-6.5425,-6.5425,-6.5425,-6.5425,-6.5425,-6.5425,-6.5425,-6.5392,-6.5326,-6.4995,-6.4763,-6.4365,-6.368,-6.2577,-6.1881,-6.155,-6.155,-6.155,-6.1616,-6.1715,-6.1748,-6.1715,-6.1715,-6.1715,-6.1881,-6.2453,-6.315,-6.3736,-6.4266,-6.4465,-6.4895,-6.5194,-6.5425,-6.5425,-6.5425,-6.5425,-6.5425,-6.5425,-6.5425,-6.5425,-6.5425,-6.5425,-6.5425,-6.5425,-6.5425,-6.5425,-6.5425,-6.5425,-6.5425,-6.5425,-6.5425,-6.5425,-6.5425,-6.5425,-6.5425,-6.5425,-6.5425,-6.5425,-6.5425,-6.5425,-6.5425,-6.5425,-6.5425,-6.5425,-6.5425,-6.5425,-6.5425,-6.5425,-6.5425,-6.5425,-6.5425,-6.5425,-6.5425,-6.5425,-6.5425,-6.5425,-6.5425,-6.5425,-6.5425,-6.5514,-6.5559,-6.5603,-6.5692,-6.5922,-6.6052,-6.6139,-6.6388,-6.6601,-6.5425,-6.5425,-6.5425,-6.5425,-6.5425,-6.5425,-6.5425,-6.5425,-6.5425,-6.5425,-6.5425,-6.5425,-6.5425,-6.5425,-6.5425,-6.5425,-6.5425,-6.5425,-6.5425,-6.5425,-6.5425,-6.5425,-6.5425,-6.5425,-6.5425,-6.5425,-6.5425,-6.5425,-6.5425,-6.5425,-6.5425,-6.5425,-6.5425,-6.5425,-6.5425,-6.5425,-6.5359,-6.5194,-6.4697,-6.4011,-6.3315,-6.2974,-6.2917,-6.2875,-6.2875,-6.2808,-6.2742,-6.2742,-6.2775,-6.2842,-6.2908,-6.3083,-6.3315,-6.3835,-6.42,-6.4531,-6.4895,-6.5326,-6.5392,-6.5425,-6.5425,-6.5425,-6.5425,-6.5425,-6.5425,-6.5425,-6.5425,-6.5425,-6.5425,-6.5425,-6.5425,-6.5425,-6.5425,-6.5425,-6.5425,-6.5425,-6.5425,-6.5425,-6.5425,-6.5425,-6.5425,-6.5425,-6.5425,-6.5425,-6.5425,-6.5425,-6.5425,-6.5425,-6.5425,-6.5425,-6.5425,-6.5425,-6.5425,-6.5425,-6.5425,-6.5425,-6.5425,-6.5425,-6.5425,-6.5425,-6.5425,-6.5425,-6.5425,-6.5425,-6.5425,-6.5425,-6.547,-6.5514,-6.5559,-6.5692,-6.5878,-6.6009,-6.6095,-6.6345,-6.6558,-6.5425,-6.5425,-6.5425,-6.5425,-6.5425,-6.5425,-6.5425,-6.5425,-6.5425,-6.5425,-6.5425,-6.5425,-6.5425,-6.5425,-6.5425,-6.5425,-6.5425,-6.5425,-6.5425,-6.5425,-6.5425,-6.5425,-6.5425,-6.5425,-6.5425,-6.5425,-6.5425,-6.5425,-6.5425,-6.5425,-6.5425,-6.5425,-6.5425,-6.5425,-6.5425,-6.5425,-6.5425,-6.5194,-6.4763,-6.4266,-6.3868,-6.358,-6.3348,-6.3348,-6.3348,-6.3382,-6.3382,-6.3315,-6.3315,-6.3315,-6.3315,-6.3547,-6.3879,-6.4233,-6.4498,-6.4995,-6.5227,-6.5392,-6.5425,-6.5425,-6.5425,-6.5425,-6.5425,-6.5425,-6.5425,-6.5425,-6.5425,-6.5425,-6.5425,-6.5425,-6.5425,-6.5425,-6.5425,-6.5425,-6.5425,-6.5425,-6.5425,-6.5425,-6.5425,-6.5425,-6.5425,-6.5425,-6.5425,-6.5425,-6.5425,-6.5425,-6.5425,-6.5425,-6.5425,-6.5425,-6.5425,-6.5425,-6.5425,-6.5425,-6.5425,-6.5425,-6.5425,-6.5425,-6.5425,-6.5425,-6.5425,-6.5425,-6.5425,-6.5425,-6.5425,-6.5425,-6.5425,-6.5514,-6.5603,-6.5736,-6.5834,-6.5922,-6.5965,-6.6095,-6.6345,-6.5425,-6.5425,-6.5425,-6.5425,-6.5425,-6.5425,-6.5425,-6.5425,-6.5425,-6.5425,-6.5425,-6.5425,-6.5425,-6.5425,-6.5425,-6.5425,-6.5425,-6.5425,-6.5425,-6.5425,-6.5425,-6.5425,-6.5425,-6.5425,-6.5425,-6.5425,-6.5425,-6.5425,-6.5425,-6.5425,-6.5425,-6.5425,-6.5425,-6.5425,-6.5425,-6.5425,-6.5425,-6.5359,-6.4962,-6.4697,-6.4564,-6.4167,-6.3968,-6.3868,-6.3835,-6.3802,-6.3802,-6.3868,-6.3868,-6.3902,-6.3935,-6.4233,-6.4597,-6.473,-6.4895,-6.526,-6.5392,-6.5392,-6.5425,-6.5425,-6.5425,-6.5425,-6.5425,-6.5425,-6.5425,-6.5425,-6.5425,-6.5425,-6.5425,-6.5425,-6.5425,-6.5425,-6.5425,-6.5425,-6.5425,-6.5425,-6.5425,-6.5425,-6.5425,-6.5425,-6.5425,-6.5425,-6.5425,-6.5425,-6.5425,-6.5425,-6.5425,-6.5425,-6.5425,-6.5425,-6.5425,-6.5425,-6.5425,-6.5425,-6.5425,-6.5425,-6.5425,-6.5425,-6.5425,-6.5425,-6.5425,-6.5425,-6.5425,-6.5425,-6.5425,-6.5425,-6.5425,-6.5559,-6.5647,-6.5692,-6.5692,-6.578,-6.5867,-6.5965,-6.6182,-6.5425,-6.5425,-6.5425,-6.5425,-6.5425,-6.5425,-6.5425,-6.5425,-6.5425,-6.5425,-6.5425,-6.5425,-6.5425,-6.5425,-6.5425,-6.5425,-6.5425,-6.5425,-6.5425,-6.5425,-6.5425,-6.5425,-6.5425,-6.5425,-6.5425,-6.5425,-6.5425,-6.5425,-6.5425,-6.5425,-6.5425,-6.5425,-6.5425,-6.5425,-6.5425,-6.5425,-6.5425,-6.5392,-6.5227,-6.5227,-6.5227,-6.5127,-6.5094,-6.5127,-6.5194,-6.526,-6.5227,-6.5061,-6.4995,-6.4995,-6.4962,-6.4962,-6.5127,-6.516,-6.5293,-6.5359,-6.5425,-6.5425,-6.5425,-6.5425,-6.5425,-6.5425,-6.5425,-6.5425,-6.5425,-6.5425,-6.5425,-6.5425,-6.5425,-6.5425,-6.5425,-6.5425,-6.5425,-6.5425,-6.5425,-6.5425,-6.5425,-6.5425,-6.5425,-6.5425,-6.5425,-6.5425,-6.5425,-6.5425,-6.5425,-6.5425,-6.5425,-6.5425,-6.5425,-6.5425,-6.5425,-6.5425,-6.5425,-6.5425,-6.5425,-6.5425,-6.5425,-6.5425,-6.5425,-6.5425,-6.5425,-6.5425,-6.5425,-6.5425,-6.5425,-6.5425,-6.5425,-6.547,-6.5514,-6.5514,-6.5559,-6.5603,-6.5736,-6.5834,-6.6139,-6.5425,-6.5425,-6.5425,-6.5425,-6.5425,-6.5425,-6.5425,-6.5425,-6.5425,-6.5425,-6.5425,-6.5425,-6.5425,-6.5425,-6.5425,-6.5425,-6.5425,-6.5425,-6.5425,-6.5425,-6.5425,-6.5425,-6.5425,-6.5425,-6.5425,-6.5425,-6.5425,-6.5425,-6.5425,-6.5425,-6.5425,-6.5425,-6.5425,-6.5425,-6.5425,-6.5425,-6.5425,-6.5425,-6.5425,-6.5425,-6.5425,-6.5425,-6.5425,-6.5425,-6.5425,-6.5425,-6.5392,-6.5392,-6.5425,-6.5425,-6.5425,-6.5425,-6.5425,-6.5425,-6.5425,-6.5425,-6.5425,-6.5425,-6.5425,-6.5425,-6.5425,-6.5425,-6.5425,-6.5425,-6.5425,-6.5425,-6.5425,-6.5425,-6.5425,-6.5425,-6.5425,-6.5425,-6.5425,-6.5425,-6.5425,-6.5425,-6.5425,-6.5425,-6.5425,-6.5425,-6.5425,-6.5425,-6.5425,-6.5425,-6.5425,-6.5425,-6.5425,-6.5425,-6.5425,-6.5425,-6.5425,-6.5425,-6.5425,-6.5425,-6.5425,-6.5425,-6.5425,-6.5425,-6.5425,-6.5425,-6.5425,-6.5425,-6.5425,-6.5425,-6.5425,-6.5425,-6.5425,-6.5425,-6.5425,-6.547,-6.547,-6.547,-6.5603,-6.5736,-6.6042,-6.5425,-6.5425,-6.5425,-6.5425,-6.5425,-6.5425,-6.5425,-6.5425,-6.5425,-6.5425,-6.5425,-6.5425,-6.5425,-6.5425,-6.5425,-6.5425,-6.5425,-6.5425,-6.5425,-6.5425,-6.5425,-6.5425,-6.5425,-6.5425,-6.5425,-6.5425,-6.5425,-6.5425,-6.5425,-6.5425,-6.5425,-6.5425,-6.5425,-6.5425,-6.5425,-6.5425,-6.5425,-6.5425,-6.5425,-6.5425,-6.5425,-6.5425,-6.5425,-6.5425,-6.5425,-6.5425,-6.5425,-6.5425,-6.5425,-6.5425,-6.5425,-6.5425,-6.5425,-6.5425,-6.5425,-6.5425,-6.5425,-6.5425,-6.5425,-6.5425,-6.5425,-6.5425,-6.5425,-6.5425,-6.5425,-6.5425,-6.5425,-6.5425,-6.5425,-6.5425,-6.5425,-6.5425,-6.5425,-6.5425,-6.5425,-6.5425,-6.5425,-6.5425,-6.5425,-6.5425,-6.5425,-6.5425,-6.5425,-6.5425,-6.5425,-6.5425,-6.5425,-6.5425,-6.5425,-6.5425,-6.5425,-6.5425,-6.5425,-6.5425,-6.5425,-6.5425,-6.5425,-6.5425,-6.5425,-6.5425,-6.5425,-6.5425,-6.5425,-6.5425,-6.5425,-6.5425,-6.5425,-6.5425,-6.5425,-6.5425,-6.5425,-6.5425,-6.5603,-6.578,-6.5867,-6.5425,-6.5425,-6.5425,-6.5425,-6.5425,-6.5425,-6.5425,-6.5425,-6.5425,-6.5425,-6.5425,-6.5425,-6.5425,-6.5425,-6.5425,-6.5425,-6.5425,-6.5425,-6.5425,-6.5425,-6.5425,-6.5425,-6.5425,-6.5425,-6.5425,-6.5425,-6.5425,-6.5425,-6.5425,-6.5425,-6.5425,-6.5425,-6.5425,-6.5425,-6.5425,-6.5425,-6.5425,-6.5425,-6.5425,-6.5425,-6.5425,-6.5425,-6.5425,-6.5425,-6.5425,-6.5425,-6.5425,-6.5425,-6.5425,-6.5425,-6.5425,-6.5425,-6.5425,-6.5425,-6.5425,-6.5425,-6.5425,-6.5425,-6.5425,-6.5425,-6.5425,-6.5425,-6.5425,-6.5425,-6.5425,-6.5425,-6.5425,-6.5425,-6.5425,-6.5425,-6.5425,-6.5425,-6.5425,-6.5425,-6.5425,-6.5425,-6.5425,-6.5425,-6.5425,-6.5425,-6.5425,-6.5425,-6.5425,-6.5425,-6.5425,-6.5425,-6.5425,-6.5425,-6.5425,-6.5425,-6.5425,-6.5425,-6.5425,-6.5425,-6.5425,-6.5425,-6.5425,-6.5425,-6.5425,-6.5425,-6.5425,-6.5425,-6.5425,-6.5425,-6.5425,-6.5425,-6.5425,-6.5425,-6.5425,-6.5425,-6.5425,-6.547,-6.5647,-6.5736,-6.578,-6.5425,-6.5425,-6.5425,-6.5425,-6.5425,-6.5425,-6.5425,-6.5425,-6.5425,-6.5425,-6.5425,-6.5425,-6.5425,-6.5425,-6.5425,-6.5425,-6.5425,-6.5425,-6.5425,-6.5425,-6.5425,-6.5425,-6.5425,-6.5425,-6.5425,-6.5425,-6.5425,-6.5425,-6.5425,-6.5425,-6.5425,-6.5425,-6.5425,-6.5425,-6.5425,-6.5425,-6.5425,-6.5425,-6.5425,-6.5425,-6.5425,-6.5425,-6.5425,-6.5425,-6.5425,-6.5425,-6.5425,-6.5425,-6.5425,-6.5425,-6.5425,-6.5425,-6.5425,-6.5425,-6.5425,-6.5425,-6.5425,-6.5425,-6.5425,-6.5425,-6.5425,-6.5425,-6.5425,-6.5425,-6.5425,-6.5425,-6.5425,-6.5425,-6.5425,-6.5425,-6.5425,-6.5425,-6.5425,-6.5425,-6.5425,-6.5425,-6.5425,-6.5425,-6.5425,-6.5425,-6.5425,-6.5425,-6.5425,-6.5425,-6.5425,-6.5425,-6.5425,-6.5425,-6.5425,-6.5425,-6.5425,-6.5425,-6.5425,-6.5425,-6.5425,-6.5425,-6.5425,-6.5425,-6.5425,-6.5425,-6.5425,-6.5425,-6.5425,-6.5425,-6.5425,-6.5425,-6.5425,-6.5425,-6.5425,-6.5425,-6.5425,-6.5425,-6.5514,-6.5559,-6.5514,-6.5425,-6.5425,-6.5425,-6.5425,-6.5425,-6.5425,-6.5425,-6.5425,-6.5425,-6.5425,-6.5425,-6.5425,-6.5425,-6.5425,-6.5425,-6.5425,-6.5425,-6.5425,-6.5425,-6.5425,-6.5425,-6.5425,-6.5425,-6.5425,-6.5425,-6.5425,-6.5425,-6.5425,-6.5425,-6.5425,-6.5425,-6.5425,-6.5425,-6.5425,-6.5425,-6.5425,-6.5425,-6.5425,-6.5425,-6.5425,-6.5425,-6.5425,-6.5425,-6.5425,-6.5425,-6.5425,-6.5425,-6.5425,-6.5425,-6.5425,-6.5425,-6.5425,-6.5425,-6.5425,-6.5425,-6.5425,-6.5425,-6.5425,-6.5425,-6.5425,-6.5425,-6.5425,-6.5425,-6.5425,-6.5425,-6.5425,-6.5425,-6.5425,-6.5425,-6.5425,-6.5425,-6.5425,-6.5425,-6.5425,-6.5425,-6.5425,-6.5425,-6.5425,-6.5425,-6.5425,-6.5425,-6.5425,-6.5425,-6.5425,-6.5425,-6.5425,-6.5425,-6.5425,-6.5425,-6.5425,-6.5425,-6.5425,-6.5425,-6.5425,-6.5425,-6.5425,-6.5425,-6.5425,-6.5425,-6.5425,-6.5425,-6.5425,-6.5425,-6.5425,-6.5425,-6.5425,-6.5425,-6.5425,-6.5425,-6.5425,-6.5425,-6.5425,-6.5425,-6.5425,-6.5425,-6.5425,-6.5425,-6.5425,-6.5425,-6.5425,-6.5425,-6.5425,-6.5425,-6.5425,-6.5425,-6.5425,-6.5425,-6.5425,-6.5425,-6.5425,-6.5425,-6.5425,-6.5425,-6.5425,-6.5425,-6.5425,-6.5425,-6.5425,-6.5425,-6.5425,-6.5425,-6.5425,-6.5425,-6.5425,-6.5425,-6.5425,-6.5425,-6.5425,-6.5425,-6.5425,-6.5425,-6.5425,-6.5425,-6.5425,-6.5425,-6.5425,-6.5425,-6.5425,-6.5425,-6.5425,-6.5425,-6.5425,-6.5425,-6.5425,-6.5425,-6.5425,-6.5425,-6.5425,-6.5425,-6.5425,-6.5425,-6.5425,-6.5425,-6.5425,-6.5425,-6.5425,-6.5425,-6.5425,-6.5425,-6.5425,-6.5425,-6.5425,-6.5425,-6.5425,-6.5425,-6.5425,-6.5425,-6.5425,-6.5425,-6.5425,-6.5425,-6.5425,-6.5425,-6.5425,-6.5425,-6.5425,-6.5425,-6.5425,-6.5425,-6.5425,-6.5425,-6.5425,-6.5425,-6.5425,-6.5425,-6.5425,-6.5425,-6.5425,-6.5425,-6.5425,-6.5425,-6.5425,-6.5425,-6.5425,-6.5425,-6.5425,-6.5425,-6.5425,-6.5425,-6.5425,-6.5425,-6.5425,-6.5425,-6.5425,-6.5425,-6.5425,-6.5425,-6.5425,-6.5425,-6.5425,-6.5425,-6.5425,-6.5425,-6.5425,-6.5425,-6.5425,-6.5425,-6.5425,-6.5425,-6.5425,-6.5425,-6.5425,-6.5425,-6.5425,-6.5425,-6.5425,-6.5425,-6.5425,-6.5425,-6.5425,-6.5425,-6.5425,-6.5425,-6.5425,-6.5425,-6.5425,-6.5425,-6.5425,-6.5425,-6.5425,-6.5425,-6.5425,-6.5425,-6.5425,-6.5425,-6.5425,-6.5425,-6.5425,-6.5425,-6.5425,-6.5425,-6.5425,-6.5425,-6.5425,-6.5425,-6.5425,-6.5425,-6.5425,-6.5425,-6.5425,-6.5425,-6.5425,-6.5425,-6.5425,-6.5425,-6.5425,-6.5425,-6.5425,-6.5425,-6.5425,-6.5425,-6.5425,-6.5425,-6.5425,-6.5425,-6.5425,-6.5425,-6.5425,-6.5425,-6.5425,-6.5425,-6.5425,-6.5425,-6.5425,-6.5425,-6.5425,-6.5425,-6.5425,-6.5425,-6.5425,-6.5425,-6.5425,-6.5425,-6.5425,-6.5425,-6.5425,-6.5425,-6.5425,-6.5425,-6.5425,-6.5425,-6.5425,-6.5425,-6.5425,-6.5425,-6.5425,-6.5425,-6.5425,-6.5425,-6.5425,-6.5425,-6.5425,-6.5425,-6.5425,-6.5425,-6.5425,-6.5425,-6.5425,-6.5425,-6.5425,-6.5425,-6.5425,-6.5425,-6.5425,-6.5425,-6.5425,-6.5425,-6.5425,-6.5425,-6.5425,-6.5425,-6.5425,-6.5425,-6.5425,-6.5425,-6.5425,-6.5425,-6.5425,-6.5425,-6.5425,-6.5425,-6.5425,-6.5425,-6.5425,-6.5425,-6.5425,-6.5425,-6.5425,-6.5425,-6.5425,-6.5425,-6.5425,-6.5425,-6.5425,-6.5425,-6.5425,-6.5425,-6.5425,-6.5425,-6.5425,-6.5425,-6.5425,-6.5425,-6.5425,-6.5425,-6.5425,-6.5425,-6.5425,-6.5425,-6.5425,-6.5425,-6.5425,-6.5425,-6.5425,-6.5425,-6.5425,-6.5425,-6.5425,-6.5425,-6.5425,-6.5425,-6.5425,-6.5425,-6.5425,-6.5425,-6.5425,-6.5425,-6.5425,-6.5425,-6.5425,-6.5425,-6.5425,-6.5425,-6.5425,-6.5425,-6.5425,-6.5425,-6.5425,-6.5425,-6.5425,-6.5425,-6.5425,-6.5425,-6.5425,-6.5425,-6.5425,-6.5425,-6.5425,-6.5425,-6.5425,-6.5425,-6.5425,-6.5425,-6.5425,-6.5425,-6.5425,-6.5425,-6.5425,-6.5425,-6.5425,-6.5425,-6.5425,-6.5425,-6.5425,-6.5425,-6.5425,-6.5425,-6.5425,-6.5425,-6.5425,-6.5425,-6.5425,-6.5425,-6.5425,-6.5425,-6.5425,-6.5425,-6.5425,-6.5425,-6.547,-6.5425,-6.5425,-6.5425,-6.5425,-6.5425,-6.5425,-6.5425,-6.5425,-6.5425,-6.5425,-6.5425,-6.5425,-6.5425,-6.5425,-6.5425,-6.5425,-6.5425,-6.5425,-6.5425,-6.5425,-6.5425,-6.5425,-6.5425,-6.5425,-6.5425,-6.5425,-6.5425,-6.5425,-6.5425,-6.5425,-6.5425,-6.5425,-6.5425,-6.5425,-6.5425,-6.5425,-6.5425,-6.5425,-6.5425,-6.5425,-6.5425,-6.5425,-6.5425,-6.5425,-6.5425,-6.5425,-6.5425,-6.5425,-6.5425,-6.5425,-6.5425,-6.5425,-6.5425,-6.5425,-6.5425,-6.5425,-6.5425,-6.5425,-6.5425,-6.5425,-6.5425,-6.5425,-6.5425,-6.5425,-6.5425,-6.5425,-6.5425,-6.5425,-6.5425,-6.5425,-6.5425,-6.5425,-6.5425,-6.5425,-6.5425,-6.5425,-6.5425,-6.5425,-6.5425,-6.5425,-6.5425,-6.5425,-6.5425,-6.5425,-6.5425,-6.5425,-6.5425,-6.5425,-6.5425,-6.5425,-6.5425,-6.5425,-6.5425,-6.5425,-6.5425,-6.5425,-6.5425,-6.5425,-6.5425,-6.5425,-6.5425,-6.5425,-6.5425,-6.5425,-6.5425,-6.5425,-6.5425,-6.5425,-6.5425,-6.5425,-6.5425,-6.5425,-6.5425,-6.5425,-6.5514,-6.5425,-6.5425,-6.5425,-6.5425,-6.5425,-6.5425,-6.5425,-6.5425,-6.5425,-6.5425,-6.5425,-6.5425,-6.5425,-6.5425,-6.5425,-6.5425,-6.5425,-6.5425,-6.5425,-6.5425,-6.5425,-6.5425,-6.5425,-6.5425,-6.5425,-6.5425,-6.5425,-6.5425,-6.5425,-6.5425,-6.5425,-6.5425,-6.5425,-6.5425,-6.5425,-6.5425,-6.5425,-6.5425,-6.5425,-6.5425,-6.5425,-6.5425,-6.5425,-6.5425,-6.5425,-6.5425,-6.5425,-6.5425,-6.5425,-6.5425,-6.5425,-6.5425,-6.5425,-6.5425,-6.5425,-6.5425,-6.5425,-6.5425,-6.5425,-6.5425,-6.5425,-6.5425,-6.5425,-6.5425,-6.5425,-6.5425,-6.5425,-6.5425,-6.5425,-6.5425,-6.5425,-6.5425,-6.5425,-6.5425,-6.5425,-6.5425,-6.5425,-6.5425,-6.5425,-6.5425,-6.5425,-6.5425,-6.5425,-6.5425,-6.5425,-6.5425,-6.5425,-6.5425,-6.5425,-6.5425,-6.5425,-6.5425,-6.5425,-6.5425,-6.5425,-6.5425,-6.5425,-6.5425,-6.5425,-6.5425,-6.5425,-6.5425,-6.5425,-6.5425,-6.5425,-6.5425,-6.5425,-6.5425,-6.5425,-6.5425,-6.5425,-6.5425,-6.5425,-6.5425,-6.5559,-6.5425,-6.5425,-6.5425,-6.5425,-6.5425,-6.5425,-6.5425,-6.5425,-6.5425,-6.5425,-6.5425,-6.5425,-6.5425,-6.5425,-6.5425,-6.5425,-6.5425,-6.5425,-6.5425,-6.5425,-6.5425,-6.5425,-6.5425,-6.5425,-6.5425,-6.5425,-6.5425,-6.5425,-6.5425,-6.5425,-6.5425,-6.5425,-6.5425,-6.5425,-6.5425,-6.5425,-6.5425,-6.5425,-6.5425,-6.5425,-6.5425,-6.5425,-6.5425,-6.5425,-6.5425,-6.5425,-6.5425,-6.5425,-6.5425,-6.5425,-6.5425,-6.5425,-6.5425,-6.5425,-6.5425,-6.5425,-6.5425,-6.5425,-6.5425,-6.5425,-6.5425,-6.5425,-6.5425,-6.5425,-6.5425,-6.5425,-6.5425,-6.5425,-6.5425,-6.5425,-6.5425,-6.5425,-6.5425,-6.5425,-6.5425,-6.5425,-6.5425,-6.5425,-6.5425,-6.5425,-6.5425,-6.5425,-6.5425,-6.5425,-6.5425,-6.5425,-6.5425,-6.5425,-6.5425,-6.5425,-6.5425,-6.5425,-6.5425,-6.5425,-6.5425,-6.5425,-6.5425,-6.5425,-6.5425,-6.5425,-6.5425,-6.5425,-6.5425,-6.5425,-6.5425,-6.5425,-6.5425,-6.5425,-6.5425,-6.5425,-6.5425,-6.5425,-6.5425,-6.547,-6.5603,-6.5425,-6.5425,-6.5425,-6.5425,-6.5425,-6.5425,-6.5425,-6.5425,-6.5425,-6.5425,-6.5425,-6.5425,-6.5425,-6.5425,-6.5425,-6.5425,-6.5425,-6.5425,-6.5425,-6.5425,-6.5425,-6.5425,-6.5425,-6.5425,-6.5425,-6.5425,-6.5425,-6.5425,-6.5425,-6.5425,-6.5425,-6.5425,-6.5425,-6.5425,-6.5425,-6.5425,-6.5425,-6.5425,-6.5425,-6.5425,-6.5425,-6.5425,-6.5425,-6.5425,-6.5425,-6.5425,-6.5425,-6.5425,-6.5425,-6.5425,-6.5425,-6.5425,-6.5425,-6.5425,-6.5425,-6.5425,-6.5425,-6.5425,-6.5425,-6.5425,-6.5425,-6.5425,-6.5425,-6.5425,-6.5425,-6.5425,-6.5425,-6.5425,-6.5425,-6.5425,-6.5425,-6.5425,-6.5425,-6.5425,-6.5425,-6.5425,-6.5425,-6.5425,-6.5425,-6.5425,-6.5425,-6.5425,-6.5425,-6.5425,-6.5425,-6.5425,-6.5425,-6.5425,-6.5425,-6.5425,-6.5425,-6.5425,-6.5425,-6.5425,-6.5425,-6.5425,-6.5425,-6.5425,-6.5425,-6.5425,-6.5425,-6.5425,-6.5425,-6.5425,-6.5425,-6.5425,-6.5425,-6.5425,-6.5425,-6.5425,-6.5425,-6.5425,-6.5425,-6.547,-6.5603,-6.5425,-6.5425,-6.5425,-6.5425,-6.5425,-6.5425,-6.5425,-6.5425,-6.5425,-6.5425,-6.5425,-6.5425,-6.5425,-6.5425,-6.5425,-6.5425,-6.5425,-6.5425,-6.5425,-6.5425,-6.5425,-6.5425,-6.5425,-6.5425,-6.5425,-6.5425,-6.5425,-6.5425,-6.5425,-6.5425,-6.5425,-6.5425,-6.5425,-6.5425,-6.5425,-6.5425,-6.5425,-6.5425,-6.5425,-6.5425,-6.5425,-6.5425,-6.5425,-6.5425,-6.5425,-6.5425,-6.5425,-6.5425,-6.5425,-6.5425,-6.5425,-6.5425,-6.5425,-6.5425,-6.5425,-6.5425,-6.5425,-6.5425,-6.5425,-6.5425,-6.5425,-6.5425,-6.5425,-6.5425,-6.5425,-6.5425,-6.5425,-6.5425,-6.5425,-6.5425,-6.5425,-6.5425,-6.5425,-6.5425,-6.5425,-6.5425,-6.5425,-6.5425,-6.5425,-6.5425,-6.5425,-6.5425,-6.5425,-6.5425,-6.5425,-6.5425,-6.5425,-6.5425,-6.5425,-6.5425,-6.5425,-6.5425,-6.5425,-6.5425,-6.5425,-6.5425,-6.5425,-6.5425,-6.5425,-6.5425,-6.5425,-6.5425,-6.5425,-6.5425,-6.5425,-6.5425,-6.5425,-6.5425,-6.5425,-6.5425,-6.5425,-6.5425,-6.5425,-6.547,-6.5559]}]]